<?xml version="1.0" encoding="UTF-8" standalone="no" ?>
<gpx xmlns="http://www.topografix.com/GPX/1/1" xmlns:xsi="http://www.w3.org/2001/XMLSchema-instance" xsi:schemaLocation="http://www.topografix.com/GPX/1/1 http://www.topografix.com/GPX/1/1/gpx.xsd" version="1.1" creator="VisuGPX - https://www.visugpx.com">
  <metadata>
    <name>Alpes Epic - Etape 4 - 2022</name>
  </metadata>
  <trk>
    <name><![CDATA[13773496-2022 Etape 4 - La Course projet 1]]></name>
    <trkseg>
      <trkpt lat="44.82493" lon="6.49814">
        <ele>1425</ele>
        <time>2022-05-08T18:03:49Z</time>
      </trkpt>
      <trkpt lat="44.82502" lon="6.4978">
        <ele>1428</ele>
        <time>2022-05-08T18:03:55Z</time>
      </trkpt>
      <trkpt lat="44.82495" lon="6.49776">
        <ele>1429</ele>
        <time>2022-05-08T18:03:57Z</time>
      </trkpt>
      <trkpt lat="44.82479" lon="6.49774">
        <ele>1430</ele>
        <time>2022-05-08T18:04:01Z</time>
      </trkpt>
      <trkpt lat="44.82428" lon="6.49784">
        <ele>1433</ele>
        <time>2022-05-08T18:04:13Z</time>
      </trkpt>
      <trkpt lat="44.82394" lon="6.49784">
        <ele>1438</ele>
        <time>2022-05-08T18:04:20Z</time>
      </trkpt>
      <trkpt lat="44.82367" lon="6.49793">
        <ele>1443</ele>
        <time>2022-05-08T18:04:27Z</time>
      </trkpt>
      <trkpt lat="44.82352" lon="6.49792">
        <ele>1446</ele>
        <time>2022-05-08T18:04:30Z</time>
      </trkpt>
      <trkpt lat="44.82324" lon="6.49807">
        <ele>1449</ele>
        <time>2022-05-08T18:04:37Z</time>
      </trkpt>
      <trkpt lat="44.82308" lon="6.49825">
        <ele>1451</ele>
        <time>2022-05-08T18:04:42Z</time>
      </trkpt>
      <trkpt lat="44.82296" lon="6.49844">
        <ele>1451</ele>
        <time>2022-05-08T18:04:46Z</time>
      </trkpt>
      <trkpt lat="44.8227" lon="6.49901">
        <ele>1450</ele>
        <time>2022-05-08T18:04:58Z</time>
      </trkpt>
      <trkpt lat="44.82236" lon="6.49951">
        <ele>1453</ele>
        <time>2022-05-08T18:05:09Z</time>
      </trkpt>
      <trkpt lat="44.82222" lon="6.49962">
        <ele>1453</ele>
        <time>2022-05-08T18:05:13Z</time>
      </trkpt>
      <trkpt lat="44.82205" lon="6.49961">
        <ele>1455</ele>
        <time>2022-05-08T18:05:17Z</time>
      </trkpt>
      <trkpt lat="44.82184" lon="6.49941">
        <ele>1459</ele>
        <time>2022-05-08T18:05:23Z</time>
      </trkpt>
      <trkpt lat="44.82163" lon="6.49927">
        <ele>1462</ele>
        <time>2022-05-08T18:05:28Z</time>
      </trkpt>
      <trkpt lat="44.82148" lon="6.49924">
        <ele>1467</ele>
        <time>2022-05-08T18:05:32Z</time>
      </trkpt>
      <trkpt lat="44.82107" lon="6.49924">
        <ele>1478</ele>
        <time>2022-05-08T18:05:41Z</time>
      </trkpt>
      <trkpt lat="44.821" lon="6.4993">
        <ele>1479</ele>
        <time>2022-05-08T18:05:43Z</time>
      </trkpt>
      <trkpt lat="44.82075" lon="6.49971">
        <ele>1480</ele>
        <time>2022-05-08T18:05:52Z</time>
      </trkpt>
      <trkpt lat="44.8206" lon="6.50023">
        <ele>1480</ele>
        <time>2022-05-08T18:06:02Z</time>
      </trkpt>
      <trkpt lat="44.82044" lon="6.5011">
        <ele>1484</ele>
        <time>2022-05-08T18:06:16Z</time>
      </trkpt>
      <trkpt lat="44.82043" lon="6.50141">
        <ele>1483</ele>
        <time>2022-05-08T18:06:22Z</time>
      </trkpt>
      <trkpt lat="44.82037" lon="6.5019">
        <ele>1484</ele>
        <time>2022-05-08T18:06:30Z</time>
      </trkpt>
      <trkpt lat="44.82016" lon="6.50302">
        <ele>1490</ele>
        <time>2022-05-08T18:06:49Z</time>
      </trkpt>
      <trkpt lat="44.82013" lon="6.5034">
        <ele>1492</ele>
        <time>2022-05-08T18:06:55Z</time>
      </trkpt>
      <trkpt lat="44.81997" lon="6.50414">
        <ele>1498</ele>
        <time>2022-05-08T18:07:08Z</time>
      </trkpt>
      <trkpt lat="44.81988" lon="6.50443">
        <ele>1498</ele>
        <time>2022-05-08T18:07:13Z</time>
      </trkpt>
      <trkpt lat="44.81981" lon="6.50449">
        <ele>1499</ele>
        <time>2022-05-08T18:07:15Z</time>
      </trkpt>
      <trkpt lat="44.81975" lon="6.5044">
        <ele>1501</ele>
        <time>2022-05-08T18:07:17Z</time>
      </trkpt>
      <trkpt lat="44.81966" lon="6.50394">
        <ele>1504</ele>
        <time>2022-05-08T18:07:25Z</time>
      </trkpt>
      <trkpt lat="44.81954" lon="6.50373">
        <ele>1506</ele>
        <time>2022-05-08T18:07:30Z</time>
      </trkpt>
      <trkpt lat="44.81931" lon="6.50341">
        <ele>1510</ele>
        <time>2022-05-08T18:07:37Z</time>
      </trkpt>
      <trkpt lat="44.81927" lon="6.5032">
        <ele>1511</ele>
        <time>2022-05-08T18:07:41Z</time>
      </trkpt>
      <trkpt lat="44.81929" lon="6.50254">
        <ele>1512</ele>
        <time>2022-05-08T18:07:52Z</time>
      </trkpt>
      <trkpt lat="44.81927" lon="6.50241">
        <ele>1513</ele>
        <time>2022-05-08T18:07:54Z</time>
      </trkpt>
      <trkpt lat="44.81917" lon="6.5023">
        <ele>1517</ele>
        <time>2022-05-08T18:07:57Z</time>
      </trkpt>
      <trkpt lat="44.8191" lon="6.50234">
        <ele>1518</ele>
        <time>2022-05-08T18:07:59Z</time>
      </trkpt>
      <trkpt lat="44.81894" lon="6.50262">
        <ele>1520</ele>
        <time>2022-05-08T18:08:05Z</time>
      </trkpt>
      <trkpt lat="44.81874" lon="6.50305">
        <ele>1523</ele>
        <time>2022-05-08T18:08:13Z</time>
      </trkpt>
      <trkpt lat="44.81819" lon="6.50444">
        <ele>1531</ele>
        <time>2022-05-08T18:08:40Z</time>
      </trkpt>
      <trkpt lat="44.81804" lon="6.50473">
        <ele>1532</ele>
        <time>2022-05-08T18:08:45Z</time>
      </trkpt>
      <trkpt lat="44.81754" lon="6.50513">
        <ele>1536</ele>
        <time>2022-05-08T18:08:59Z</time>
      </trkpt>
      <trkpt lat="44.81719" lon="6.50531">
        <ele>1542</ele>
        <time>2022-05-08T18:09:08Z</time>
      </trkpt>
      <trkpt lat="44.81682" lon="6.5054">
        <ele>1549</ele>
        <time>2022-05-08T18:09:16Z</time>
      </trkpt>
      <trkpt lat="44.81675" lon="6.50544">
        <ele>1551</ele>
        <time>2022-05-08T18:09:18Z</time>
      </trkpt>
      <trkpt lat="44.81671" lon="6.50553">
        <ele>1551</ele>
        <time>2022-05-08T18:09:20Z</time>
      </trkpt>
      <trkpt lat="44.81671" lon="6.5063">
        <ele>1554</ele>
        <time>2022-05-08T18:09:33Z</time>
      </trkpt>
      <trkpt lat="44.81663" lon="6.50662">
        <ele>1559</ele>
        <time>2022-05-08T18:09:38Z</time>
      </trkpt>
      <trkpt lat="44.8166" lon="6.50694">
        <ele>1559</ele>
        <time>2022-05-08T18:09:44Z</time>
      </trkpt>
      <trkpt lat="44.81649" lon="6.50721">
        <ele>1562</ele>
        <time>2022-05-08T18:09:49Z</time>
      </trkpt>
      <trkpt lat="44.81628" lon="6.50805">
        <ele>1568</ele>
        <time>2022-05-08T18:10:04Z</time>
      </trkpt>
      <trkpt lat="44.81618" lon="6.50834">
        <ele>1573</ele>
        <time>2022-05-08T18:10:09Z</time>
      </trkpt>
      <trkpt lat="44.81612" lon="6.50842">
        <ele>1574</ele>
        <time>2022-05-08T18:10:11Z</time>
      </trkpt>
      <trkpt lat="44.81604" lon="6.50839">
        <ele>1578</ele>
        <time>2022-05-08T18:10:13Z</time>
      </trkpt>
      <trkpt lat="44.81601" lon="6.50805">
        <ele>1579</ele>
        <time>2022-05-08T18:10:18Z</time>
      </trkpt>
      <trkpt lat="44.81609" lon="6.50765">
        <ele>1576</ele>
        <time>2022-05-08T18:10:25Z</time>
      </trkpt>
      <trkpt lat="44.81608" lon="6.50743">
        <ele>1575</ele>
        <time>2022-05-08T18:10:29Z</time>
      </trkpt>
      <trkpt lat="44.81601" lon="6.50714">
        <ele>1577</ele>
        <time>2022-05-08T18:10:34Z</time>
      </trkpt>
      <trkpt lat="44.81578" lon="6.50661">
        <ele>1580</ele>
        <time>2022-05-08T18:10:44Z</time>
      </trkpt>
      <trkpt lat="44.81558" lon="6.50629">
        <ele>1586</ele>
        <time>2022-05-08T18:10:51Z</time>
      </trkpt>
      <trkpt lat="44.81553" lon="6.50606">
        <ele>1588</ele>
        <time>2022-05-08T18:10:55Z</time>
      </trkpt>
      <trkpt lat="44.81535" lon="6.50571">
        <ele>1596</ele>
        <time>2022-05-08T18:11:03Z</time>
      </trkpt>
      <trkpt lat="44.81533" lon="6.5054">
        <ele>1601</ele>
        <time>2022-05-08T18:11:08Z</time>
      </trkpt>
      <trkpt lat="44.81548" lon="6.50484">
        <ele>1604</ele>
        <time>2022-05-08T18:11:18Z</time>
      </trkpt>
      <trkpt lat="44.81544" lon="6.50474">
        <ele>1607</ele>
        <time>2022-05-08T18:11:20Z</time>
      </trkpt>
      <trkpt lat="44.81536" lon="6.50471">
        <ele>1610</ele>
        <time>2022-05-08T18:11:21Z</time>
      </trkpt>
      <trkpt lat="44.8153" lon="6.50476">
        <ele>1611</ele>
        <time>2022-05-08T18:11:23Z</time>
      </trkpt>
      <trkpt lat="44.81522" lon="6.5049">
        <ele>1611</ele>
        <time>2022-05-08T18:11:26Z</time>
      </trkpt>
      <trkpt lat="44.8151" lon="6.50502">
        <ele>1613</ele>
        <time>2022-05-08T18:11:29Z</time>
      </trkpt>
      <trkpt lat="44.8149" lon="6.50531">
        <ele>1616</ele>
        <time>2022-05-08T18:11:36Z</time>
      </trkpt>
      <trkpt lat="44.81482" lon="6.50551">
        <ele>1616</ele>
        <time>2022-05-08T18:11:40Z</time>
      </trkpt>
      <trkpt lat="44.81472" lon="6.5059">
        <ele>1615</ele>
        <time>2022-05-08T18:11:47Z</time>
      </trkpt>
      <trkpt lat="44.81445" lon="6.5066">
        <ele>1620</ele>
        <time>2022-05-08T18:12:00Z</time>
      </trkpt>
      <trkpt lat="44.81437" lon="6.50705">
        <ele>1622</ele>
        <time>2022-05-08T18:12:08Z</time>
      </trkpt>
      <trkpt lat="44.81438" lon="6.50715">
        <ele>1622</ele>
        <time>2022-05-08T18:12:09Z</time>
      </trkpt>
      <trkpt lat="44.8143" lon="6.50753">
        <ele>1624</ele>
        <time>2022-05-08T18:12:16Z</time>
      </trkpt>
      <trkpt lat="44.81428" lon="6.50778">
        <ele>1624</ele>
        <time>2022-05-08T18:12:20Z</time>
      </trkpt>
      <trkpt lat="44.81429" lon="6.50822">
        <ele>1623</ele>
        <time>2022-05-08T18:12:27Z</time>
      </trkpt>
      <trkpt lat="44.81421" lon="6.50854">
        <ele>1624</ele>
        <time>2022-05-08T18:12:33Z</time>
      </trkpt>
      <trkpt lat="44.81411" lon="6.50868">
        <ele>1627</ele>
        <time>2022-05-08T18:12:36Z</time>
      </trkpt>
      <trkpt lat="44.81392" lon="6.50906">
        <ele>1630</ele>
        <time>2022-05-08T18:12:44Z</time>
      </trkpt>
      <trkpt lat="44.81378" lon="6.50919">
        <ele>1633</ele>
        <time>2022-05-08T18:12:48Z</time>
      </trkpt>
      <trkpt lat="44.8137" lon="6.50922">
        <ele>1634</ele>
        <time>2022-05-08T18:12:50Z</time>
      </trkpt>
      <trkpt lat="44.81366" lon="6.50932">
        <ele>1635</ele>
        <time>2022-05-08T18:12:52Z</time>
      </trkpt>
      <trkpt lat="44.81339" lon="6.5097">
        <ele>1641</ele>
        <time>2022-05-08T18:13:01Z</time>
      </trkpt>
      <trkpt lat="44.81334" lon="6.5099">
        <ele>1642</ele>
        <time>2022-05-08T18:13:04Z</time>
      </trkpt>
      <trkpt lat="44.81331" lon="6.51023">
        <ele>1644</ele>
        <time>2022-05-08T18:13:10Z</time>
      </trkpt>
      <trkpt lat="44.81336" lon="6.51096">
        <ele>1645</ele>
        <time>2022-05-08T18:13:22Z</time>
      </trkpt>
      <trkpt lat="44.81322" lon="6.51135">
        <ele>1648</ele>
        <time>2022-05-08T18:13:29Z</time>
      </trkpt>
      <trkpt lat="44.81316" lon="6.51142">
        <ele>1648</ele>
        <time>2022-05-08T18:13:31Z</time>
      </trkpt>
      <trkpt lat="44.81301" lon="6.51149">
        <ele>1651</ele>
        <time>2022-05-08T18:13:35Z</time>
      </trkpt>
      <trkpt lat="44.81207" lon="6.51159">
        <ele>1662</ele>
        <time>2022-05-08T18:13:57Z</time>
      </trkpt>
      <trkpt lat="44.81166" lon="6.5117">
        <ele>1664</ele>
        <time>2022-05-08T18:14:06Z</time>
      </trkpt>
      <trkpt lat="44.81097" lon="6.51208">
        <ele>1676</ele>
        <time>2022-05-08T18:14:24Z</time>
      </trkpt>
      <trkpt lat="44.81064" lon="6.51245">
        <ele>1684</ele>
        <time>2022-05-08T18:14:34Z</time>
      </trkpt>
      <trkpt lat="44.81067" lon="6.51286">
        <ele>1685</ele>
        <time>2022-05-08T18:14:40Z</time>
      </trkpt>
      <trkpt lat="44.81074" lon="6.51292">
        <ele>1682</ele>
        <time>2022-05-08T18:14:42Z</time>
      </trkpt>
      <trkpt lat="44.81116" lon="6.51366">
        <ele>1670</ele>
        <time>2022-05-08T18:14:58Z</time>
      </trkpt>
      <trkpt lat="44.81174" lon="6.51557">
        <ele>1657</ele>
        <time>2022-05-08T18:15:32Z</time>
      </trkpt>
      <trkpt lat="44.81181" lon="6.51495">
        <ele>1641</ele>
        <time>2022-05-08T18:15:43Z</time>
      </trkpt>
      <trkpt lat="44.8132" lon="6.51635">
        <ele>1581</ele>
        <time>2022-05-08T18:16:23Z</time>
      </trkpt>
      <trkpt lat="44.81317" lon="6.516">
        <ele>1580</ele>
        <time>2022-05-08T18:16:29Z</time>
      </trkpt>
      <trkpt lat="44.81356" lon="6.51634">
        <ele>1565</ele>
        <time>2022-05-08T18:16:39Z</time>
      </trkpt>
      <trkpt lat="44.81361" lon="6.51672">
        <ele>1562</ele>
        <time>2022-05-08T18:16:46Z</time>
      </trkpt>
      <trkpt lat="44.81389" lon="6.51649">
        <ele>1551</ele>
        <time>2022-05-08T18:16:53Z</time>
      </trkpt>
      <trkpt lat="44.81404" lon="6.51793">
        <ele>1539</ele>
        <time>2022-05-08T18:17:17Z</time>
      </trkpt>
      <trkpt lat="44.8143" lon="6.51874">
        <ele>1519</ele>
        <time>2022-05-08T18:17:32Z</time>
      </trkpt>
      <trkpt lat="44.81482" lon="6.51859">
        <ele>1502</ele>
        <time>2022-05-08T18:17:44Z</time>
      </trkpt>
      <trkpt lat="44.81498" lon="6.5186">
        <ele>1496</ele>
        <time>2022-05-08T18:17:48Z</time>
      </trkpt>
      <trkpt lat="44.81498" lon="6.51926">
        <ele>1482</ele>
        <time>2022-05-08T18:17:59Z</time>
      </trkpt>
      <trkpt lat="44.81513" lon="6.5194">
        <ele>1476</ele>
        <time>2022-05-08T18:18:03Z</time>
      </trkpt>
      <trkpt lat="44.81516" lon="6.52041">
        <ele>1458</ele>
        <time>2022-05-08T18:18:20Z</time>
      </trkpt>
      <trkpt lat="44.8149" lon="6.52138">
        <ele>1450</ele>
        <time>2022-05-08T18:18:37Z</time>
      </trkpt>
      <trkpt lat="44.81502" lon="6.523">
        <ele>1434</ele>
        <time>2022-05-08T18:19:04Z</time>
      </trkpt>
      <trkpt lat="44.81536" lon="6.52394">
        <ele>1412</ele>
        <time>2022-05-08T18:19:22Z</time>
      </trkpt>
      <trkpt lat="44.81542" lon="6.5254">
        <ele>1410</ele>
        <time>2022-05-08T18:19:46Z</time>
      </trkpt>
      <trkpt lat="44.81605" lon="6.52656">
        <ele>1390</ele>
        <time>2022-05-08T18:20:10Z</time>
      </trkpt>
      <trkpt lat="44.81653" lon="6.52697">
        <ele>1377</ele>
        <time>2022-05-08T18:20:23Z</time>
      </trkpt>
      <trkpt lat="44.81671" lon="6.52771">
        <ele>1375</ele>
        <time>2022-05-08T18:20:36Z</time>
      </trkpt>
      <trkpt lat="44.81671" lon="6.52816">
        <ele>1376</ele>
        <time>2022-05-08T18:20:44Z</time>
      </trkpt>
      <trkpt lat="44.81697" lon="6.52909">
        <ele>1368</ele>
        <time>2022-05-08T18:21:00Z</time>
      </trkpt>
      <trkpt lat="44.81695" lon="6.5295">
        <ele>1371</ele>
        <time>2022-05-08T18:21:07Z</time>
      </trkpt>
      <trkpt lat="44.81735" lon="6.5302">
        <ele>1355</ele>
        <time>2022-05-08T18:21:22Z</time>
      </trkpt>
      <trkpt lat="44.8174" lon="6.53061">
        <ele>1354</ele>
        <time>2022-05-08T18:21:29Z</time>
      </trkpt>
      <trkpt lat="44.81749" lon="6.53099">
        <ele>1350</ele>
        <time>2022-05-08T18:21:35Z</time>
      </trkpt>
      <trkpt lat="44.81759" lon="6.53123">
        <ele>1344</ele>
        <time>2022-05-08T18:21:40Z</time>
      </trkpt>
      <trkpt lat="44.8177" lon="6.53217">
        <ele>1335</ele>
        <time>2022-05-08T18:21:56Z</time>
      </trkpt>
      <trkpt lat="44.81781" lon="6.53251">
        <ele>1327</ele>
        <time>2022-05-08T18:22:02Z</time>
      </trkpt>
      <trkpt lat="44.8178" lon="6.53293">
        <ele>1322</ele>
        <time>2022-05-08T18:22:09Z</time>
      </trkpt>
      <trkpt lat="44.81788" lon="6.53343">
        <ele>1312</ele>
        <time>2022-05-08T18:22:18Z</time>
      </trkpt>
      <trkpt lat="44.81789" lon="6.53382">
        <ele>1304</ele>
        <time>2022-05-08T18:22:24Z</time>
      </trkpt>
      <trkpt lat="44.81781" lon="6.53414">
        <ele>1301</ele>
        <time>2022-05-08T18:22:30Z</time>
      </trkpt>
      <trkpt lat="44.81744" lon="6.53493">
        <ele>1286</ele>
        <time>2022-05-08T18:22:45Z</time>
      </trkpt>
      <trkpt lat="44.8171" lon="6.53526">
        <ele>1291</ele>
        <time>2022-05-08T18:22:55Z</time>
      </trkpt>
      <trkpt lat="44.81703" lon="6.536">
        <ele>1283</ele>
        <time>2022-05-08T18:23:07Z</time>
      </trkpt>
      <trkpt lat="44.81723" lon="6.53644">
        <ele>1269</ele>
        <time>2022-05-08T18:23:16Z</time>
      </trkpt>
      <trkpt lat="44.81714" lon="6.53665">
        <ele>1272</ele>
        <time>2022-05-08T18:23:20Z</time>
      </trkpt>
      <trkpt lat="44.8171" lon="6.53701">
        <ele>1269</ele>
        <time>2022-05-08T18:23:26Z</time>
      </trkpt>
      <trkpt lat="44.81712" lon="6.53722">
        <ele>1265</ele>
        <time>2022-05-08T18:23:30Z</time>
      </trkpt>
      <trkpt lat="44.81724" lon="6.53705">
        <ele>1262</ele>
        <time>2022-05-08T18:23:34Z</time>
      </trkpt>
      <trkpt lat="44.81719" lon="6.53771">
        <ele>1256</ele>
        <time>2022-05-08T18:23:45Z</time>
      </trkpt>
      <trkpt lat="44.81726" lon="6.53797">
        <ele>1250</ele>
        <time>2022-05-08T18:23:49Z</time>
      </trkpt>
      <trkpt lat="44.81726" lon="6.53835">
        <ele>1247</ele>
        <time>2022-05-08T18:23:55Z</time>
      </trkpt>
      <trkpt lat="44.81711" lon="6.53857">
        <ele>1253</ele>
        <time>2022-05-08T18:24:00Z</time>
      </trkpt>
      <trkpt lat="44.81748" lon="6.5393">
        <ele>1234</ele>
        <time>2022-05-08T18:24:15Z</time>
      </trkpt>
      <trkpt lat="44.81803" lon="6.54115">
        <ele>1208</ele>
        <time>2022-05-08T18:24:49Z</time>
      </trkpt>
      <trkpt lat="44.81815" lon="6.54278">
        <ele>1179</ele>
        <time>2022-05-08T18:25:16Z</time>
      </trkpt>
      <trkpt lat="44.81827" lon="6.54398">
        <ele>1153</ele>
        <time>2022-05-08T18:25:36Z</time>
      </trkpt>
      <trkpt lat="44.81791" lon="6.54492">
        <ele>1145</ele>
        <time>2022-05-08T18:25:53Z</time>
      </trkpt>
      <trkpt lat="44.81785" lon="6.54612">
        <ele>1118</ele>
        <time>2022-05-08T18:26:13Z</time>
      </trkpt>
      <trkpt lat="44.8176" lon="6.54664">
        <ele>1118</ele>
        <time>2022-05-08T18:26:24Z</time>
      </trkpt>
      <trkpt lat="44.81754" lon="6.54754">
        <ele>1102</ele>
        <time>2022-05-08T18:26:39Z</time>
      </trkpt>
      <trkpt lat="44.81702" lon="6.5484">
        <ele>1092</ele>
        <time>2022-05-08T18:26:58Z</time>
      </trkpt>
      <trkpt lat="44.81684" lon="6.54857">
        <ele>1094</ele>
        <time>2022-05-08T18:27:03Z</time>
      </trkpt>
      <trkpt lat="44.81687" lon="6.54913">
        <ele>1084</ele>
        <time>2022-05-08T18:27:12Z</time>
      </trkpt>
      <trkpt lat="44.81657" lon="6.55003">
        <ele>1075</ele>
        <time>2022-05-08T18:27:28Z</time>
      </trkpt>
      <trkpt lat="44.81657" lon="6.5505">
        <ele>1063</ele>
        <time>2022-05-08T18:27:36Z</time>
      </trkpt>
      <trkpt lat="44.81632" lon="6.55076">
        <ele>1066</ele>
        <time>2022-05-08T18:27:43Z</time>
      </trkpt>
      <trkpt lat="44.81632" lon="6.55132">
        <ele>1053</ele>
        <time>2022-05-08T18:27:53Z</time>
      </trkpt>
      <trkpt lat="44.81599" lon="6.55209">
        <ele>1044</ele>
        <time>2022-05-08T18:28:08Z</time>
      </trkpt>
      <trkpt lat="44.81568" lon="6.55253">
        <ele>1040</ele>
        <time>2022-05-08T18:28:18Z</time>
      </trkpt>
      <trkpt lat="44.81511" lon="6.55319">
        <ele>1036</ele>
        <time>2022-05-08T18:28:35Z</time>
      </trkpt>
      <trkpt lat="44.81443" lon="6.55381">
        <ele>1044</ele>
        <time>2022-05-08T18:28:54Z</time>
      </trkpt>
      <trkpt lat="44.81382" lon="6.55468">
        <ele>1033</ele>
        <time>2022-05-08T18:29:14Z</time>
      </trkpt>
      <trkpt lat="44.81336" lon="6.55476">
        <ele>1039</ele>
        <time>2022-05-08T18:29:25Z</time>
      </trkpt>
      <trkpt lat="44.81315" lon="6.55484">
        <ele>1040</ele>
        <time>2022-05-08T18:29:30Z</time>
      </trkpt>
      <trkpt lat="44.81269" lon="6.55507">
        <ele>1040</ele>
        <time>2022-05-08T18:29:42Z</time>
      </trkpt>
      <trkpt lat="44.81223" lon="6.55539">
        <ele>1040</ele>
        <time>2022-05-08T18:29:54Z</time>
      </trkpt>
      <trkpt lat="44.81218" lon="6.55544">
        <ele>1039</ele>
        <time>2022-05-08T18:29:55Z</time>
      </trkpt>
      <trkpt lat="44.81223" lon="6.55547">
        <ele>1037</ele>
        <time>2022-05-08T18:29:56Z</time>
      </trkpt>
      <trkpt lat="44.81216" lon="6.55557">
        <ele>1034</ele>
        <time>2022-05-08T18:29:59Z</time>
      </trkpt>
      <trkpt lat="44.81154" lon="6.55583">
        <ele>1036</ele>
        <time>2022-05-08T18:30:14Z</time>
      </trkpt>
      <trkpt lat="44.81029" lon="6.55606">
        <ele>1049</ele>
        <time>2022-05-08T18:30:43Z</time>
      </trkpt>
      <trkpt lat="44.80966" lon="6.55607">
        <ele>1058</ele>
        <time>2022-05-08T18:30:58Z</time>
      </trkpt>
      <trkpt lat="44.80949" lon="6.55597">
        <ele>1065</ele>
        <time>2022-05-08T18:31:02Z</time>
      </trkpt>
      <trkpt lat="44.80847" lon="6.5565">
        <ele>1059</ele>
        <time>2022-05-08T18:31:28Z</time>
      </trkpt>
      <trkpt lat="44.80815" lon="6.55663">
        <ele>1057</ele>
        <time>2022-05-08T18:31:35Z</time>
      </trkpt>
      <trkpt lat="44.80694" lon="6.55654">
        <ele>1074</ele>
        <time>2022-05-08T18:32:04Z</time>
      </trkpt>
      <trkpt lat="44.80653" lon="6.55663">
        <ele>1077</ele>
        <time>2022-05-08T18:32:13Z</time>
      </trkpt>
      <trkpt lat="44.80584" lon="6.55664">
        <ele>1088</ele>
        <time>2022-05-08T18:32:29Z</time>
      </trkpt>
      <trkpt lat="44.80476" lon="6.55656">
        <ele>1084</ele>
        <time>2022-05-08T18:32:55Z</time>
      </trkpt>
      <trkpt lat="44.8038" lon="6.55604">
        <ele>1090</ele>
        <time>2022-05-08T18:33:19Z</time>
      </trkpt>
      <trkpt lat="44.80308" lon="6.55548">
        <ele>1102</ele>
        <time>2022-05-08T18:33:38Z</time>
      </trkpt>
      <trkpt lat="44.8025" lon="6.55544">
        <ele>1094</ele>
        <time>2022-05-08T18:33:51Z</time>
      </trkpt>
      <trkpt lat="44.80216" lon="6.55538">
        <ele>1091</ele>
        <time>2022-05-08T18:33:59Z</time>
      </trkpt>
      <trkpt lat="44.8018" lon="6.55527">
        <ele>1091</ele>
        <time>2022-05-08T18:34:08Z</time>
      </trkpt>
      <trkpt lat="44.80155" lon="6.55529">
        <ele>1084</ele>
        <time>2022-05-08T18:34:14Z</time>
      </trkpt>
      <trkpt lat="44.80146" lon="6.55512">
        <ele>1089</ele>
        <time>2022-05-08T18:34:17Z</time>
      </trkpt>
      <trkpt lat="44.80145" lon="6.55521">
        <ele>1085</ele>
        <time>2022-05-08T18:34:19Z</time>
      </trkpt>
      <trkpt lat="44.80138" lon="6.55519">
        <ele>1084</ele>
        <time>2022-05-08T18:34:21Z</time>
      </trkpt>
      <trkpt lat="44.80092" lon="6.55483">
        <ele>1084</ele>
        <time>2022-05-08T18:34:33Z</time>
      </trkpt>
      <trkpt lat="44.80082" lon="6.55479">
        <ele>1083</ele>
        <time>2022-05-08T18:34:35Z</time>
      </trkpt>
      <trkpt lat="44.80073" lon="6.55482">
        <ele>1078</ele>
        <time>2022-05-08T18:34:37Z</time>
      </trkpt>
      <trkpt lat="44.80063" lon="6.55481">
        <ele>1075</ele>
        <time>2022-05-08T18:34:40Z</time>
      </trkpt>
      <trkpt lat="44.80034" lon="6.55473">
        <ele>1069</ele>
        <time>2022-05-08T18:34:47Z</time>
      </trkpt>
      <trkpt lat="44.79996" lon="6.55457">
        <ele>1064</ele>
        <time>2022-05-08T18:34:56Z</time>
      </trkpt>
      <trkpt lat="44.79998" lon="6.55452">
        <ele>1067</ele>
        <time>2022-05-08T18:34:57Z</time>
      </trkpt>
      <trkpt lat="44.80002" lon="6.55451">
        <ele>1068</ele>
        <time>2022-05-08T18:34:58Z</time>
      </trkpt>
      <trkpt lat="44.79991" lon="6.55449">
        <ele>1067</ele>
        <time>2022-05-08T18:35:00Z</time>
      </trkpt>
      <trkpt lat="44.79987" lon="6.55457">
        <ele>1063</ele>
        <time>2022-05-08T18:35:02Z</time>
      </trkpt>
      <trkpt lat="44.79948" lon="6.55449">
        <ele>1061</ele>
        <time>2022-05-08T18:35:11Z</time>
      </trkpt>
      <trkpt lat="44.79873" lon="6.5545">
        <ele>1053</ele>
        <time>2022-05-08T18:35:29Z</time>
      </trkpt>
      <trkpt lat="44.79843" lon="6.55454">
        <ele>1049</ele>
        <time>2022-05-08T18:35:36Z</time>
      </trkpt>
      <trkpt lat="44.79824" lon="6.55459">
        <ele>1047</ele>
        <time>2022-05-08T18:35:40Z</time>
      </trkpt>
      <trkpt lat="44.79801" lon="6.55472">
        <ele>1042</ele>
        <time>2022-05-08T18:35:46Z</time>
      </trkpt>
      <trkpt lat="44.79773" lon="6.5547">
        <ele>1042</ele>
        <time>2022-05-08T18:35:53Z</time>
      </trkpt>
      <trkpt lat="44.79627" lon="6.55512">
        <ele>1036</ele>
        <time>2022-05-08T18:36:27Z</time>
      </trkpt>
      <trkpt lat="44.79603" lon="6.55518">
        <ele>1036</ele>
        <time>2022-05-08T18:36:33Z</time>
      </trkpt>
      <trkpt lat="44.79554" lon="6.55525">
        <ele>1036</ele>
        <time>2022-05-08T18:36:45Z</time>
      </trkpt>
      <trkpt lat="44.7953" lon="6.55515">
        <ele>1039</ele>
        <time>2022-05-08T18:36:51Z</time>
      </trkpt>
      <trkpt lat="44.79499" lon="6.55462">
        <ele>1048</ele>
        <time>2022-05-08T18:37:02Z</time>
      </trkpt>
      <trkpt lat="44.7948" lon="6.55441">
        <ele>1052</ele>
        <time>2022-05-08T18:37:08Z</time>
      </trkpt>
      <trkpt lat="44.79459" lon="6.55428">
        <ele>1054</ele>
        <time>2022-05-08T18:37:13Z</time>
      </trkpt>
      <trkpt lat="44.79437" lon="6.55419">
        <ele>1056</ele>
        <time>2022-05-08T18:37:18Z</time>
      </trkpt>
      <trkpt lat="44.79412" lon="6.55399">
        <ele>1057</ele>
        <time>2022-05-08T18:37:25Z</time>
      </trkpt>
      <trkpt lat="44.79354" lon="6.55311">
        <ele>1058</ele>
        <time>2022-05-08T18:37:45Z</time>
      </trkpt>
      <trkpt lat="44.7931" lon="6.55273">
        <ele>1056</ele>
        <time>2022-05-08T18:37:57Z</time>
      </trkpt>
      <trkpt lat="44.7928" lon="6.55261">
        <ele>1052</ele>
        <time>2022-05-08T18:38:04Z</time>
      </trkpt>
      <trkpt lat="44.79251" lon="6.5528">
        <ele>1049</ele>
        <time>2022-05-08T18:38:12Z</time>
      </trkpt>
      <trkpt lat="44.7921" lon="6.55281">
        <ele>1047</ele>
        <time>2022-05-08T18:38:21Z</time>
      </trkpt>
      <trkpt lat="44.79172" lon="6.55292">
        <ele>1047</ele>
        <time>2022-05-08T18:38:30Z</time>
      </trkpt>
      <trkpt lat="44.79136" lon="6.55297">
        <ele>1043</ele>
        <time>2022-05-08T18:38:39Z</time>
      </trkpt>
      <trkpt lat="44.79093" lon="6.55292">
        <ele>1038</ele>
        <time>2022-05-08T18:38:49Z</time>
      </trkpt>
      <trkpt lat="44.79064" lon="6.55281">
        <ele>1034</ele>
        <time>2022-05-08T18:38:56Z</time>
      </trkpt>
      <trkpt lat="44.79016" lon="6.55291">
        <ele>1029</ele>
        <time>2022-05-08T18:39:07Z</time>
      </trkpt>
      <trkpt lat="44.78971" lon="6.55324">
        <ele>1025</ele>
        <time>2022-05-08T18:39:19Z</time>
      </trkpt>
      <trkpt lat="44.7894" lon="6.55339">
        <ele>1022</ele>
        <time>2022-05-08T18:39:27Z</time>
      </trkpt>
      <trkpt lat="44.78898" lon="6.5533">
        <ele>1019</ele>
        <time>2022-05-08T18:39:37Z</time>
      </trkpt>
      <trkpt lat="44.78872" lon="6.55272">
        <ele>1018</ele>
        <time>2022-05-08T18:39:48Z</time>
      </trkpt>
      <trkpt lat="44.78825" lon="6.55263">
        <ele>1014</ele>
        <time>2022-05-08T18:39:59Z</time>
      </trkpt>
      <trkpt lat="44.78781" lon="6.55262">
        <ele>1010</ele>
        <time>2022-05-08T18:40:09Z</time>
      </trkpt>
      <trkpt lat="44.78729" lon="6.55266">
        <ele>1005</ele>
        <time>2022-05-08T18:40:21Z</time>
      </trkpt>
      <trkpt lat="44.78709" lon="6.55286">
        <ele>1001</ele>
        <time>2022-05-08T18:40:27Z</time>
      </trkpt>
      <trkpt lat="44.7871" lon="6.55352">
        <ele>996</ele>
        <time>2022-05-08T18:40:38Z</time>
      </trkpt>
      <trkpt lat="44.78705" lon="6.5537">
        <ele>993</ele>
        <time>2022-05-08T18:40:41Z</time>
      </trkpt>
      <trkpt lat="44.78685" lon="6.55369">
        <ele>990</ele>
        <time>2022-05-08T18:40:46Z</time>
      </trkpt>
      <trkpt lat="44.78684" lon="6.55389">
        <ele>988</ele>
        <time>2022-05-08T18:40:49Z</time>
      </trkpt>
      <trkpt lat="44.78578" lon="6.55386">
        <ele>979</ele>
        <time>2022-05-08T18:41:14Z</time>
      </trkpt>
      <trkpt lat="44.78549" lon="6.5538">
        <ele>978</ele>
        <time>2022-05-08T18:41:21Z</time>
      </trkpt>
      <trkpt lat="44.78524" lon="6.55359">
        <ele>978</ele>
        <time>2022-05-08T18:41:28Z</time>
      </trkpt>
      <trkpt lat="44.78504" lon="6.55363">
        <ele>977</ele>
        <time>2022-05-08T18:41:32Z</time>
      </trkpt>
      <trkpt lat="44.78418" lon="6.55249">
        <ele>982</ele>
        <time>2022-05-08T18:42:00Z</time>
      </trkpt>
      <trkpt lat="44.78357" lon="6.55219">
        <ele>986</ele>
        <time>2022-05-08T18:42:15Z</time>
      </trkpt>
      <trkpt lat="44.78349" lon="6.55188">
        <ele>989</ele>
        <time>2022-05-08T18:42:21Z</time>
      </trkpt>
      <trkpt lat="44.78365" lon="6.55114">
        <ele>994</ele>
        <time>2022-05-08T18:42:33Z</time>
      </trkpt>
      <trkpt lat="44.78355" lon="6.55007">
        <ele>996</ele>
        <time>2022-05-08T18:42:51Z</time>
      </trkpt>
      <trkpt lat="44.78326" lon="6.54916">
        <ele>1000</ele>
        <time>2022-05-08T18:43:08Z</time>
      </trkpt>
      <trkpt lat="44.78266" lon="6.5491">
        <ele>996</ele>
        <time>2022-05-08T18:43:22Z</time>
      </trkpt>
      <trkpt lat="44.78218" lon="6.54921">
        <ele>995</ele>
        <time>2022-05-08T18:43:33Z</time>
      </trkpt>
      <trkpt lat="44.78155" lon="6.5497">
        <ele>994</ele>
        <time>2022-05-08T18:43:50Z</time>
      </trkpt>
      <trkpt lat="44.78106" lon="6.54998">
        <ele>993</ele>
        <time>2022-05-08T18:44:02Z</time>
      </trkpt>
      <trkpt lat="44.78063" lon="6.5504">
        <ele>992</ele>
        <time>2022-05-08T18:44:15Z</time>
      </trkpt>
      <trkpt lat="44.78047" lon="6.55075">
        <ele>989</ele>
        <time>2022-05-08T18:44:22Z</time>
      </trkpt>
      <trkpt lat="44.7803" lon="6.55139">
        <ele>985</ele>
        <time>2022-05-08T18:44:33Z</time>
      </trkpt>
      <trkpt lat="44.78014" lon="6.55168">
        <ele>983</ele>
        <time>2022-05-08T18:44:39Z</time>
      </trkpt>
      <trkpt lat="44.7797" lon="6.55196">
        <ele>982</ele>
        <time>2022-05-08T18:44:50Z</time>
      </trkpt>
      <trkpt lat="44.7792" lon="6.55242">
        <ele>980</ele>
        <time>2022-05-08T18:45:04Z</time>
      </trkpt>
      <trkpt lat="44.77894" lon="6.55283">
        <ele>979</ele>
        <time>2022-05-08T18:45:13Z</time>
      </trkpt>
      <trkpt lat="44.77885" lon="6.5532">
        <ele>979</ele>
        <time>2022-05-08T18:45:20Z</time>
      </trkpt>
      <trkpt lat="44.7785" lon="6.55363">
        <ele>977</ele>
        <time>2022-05-08T18:45:31Z</time>
      </trkpt>
      <trkpt lat="44.77804" lon="6.55428">
        <ele>975</ele>
        <time>2022-05-08T18:45:46Z</time>
      </trkpt>
      <trkpt lat="44.77759" lon="6.55405">
        <ele>977</ele>
        <time>2022-05-08T18:45:57Z</time>
      </trkpt>
      <trkpt lat="44.77719" lon="6.55389">
        <ele>981</ele>
        <time>2022-05-08T18:46:07Z</time>
      </trkpt>
      <trkpt lat="44.77736" lon="6.55346">
        <ele>985</ele>
        <time>2022-05-08T18:46:15Z</time>
      </trkpt>
      <trkpt lat="44.7773" lon="6.55309">
        <ele>992</ele>
        <time>2022-05-08T18:46:21Z</time>
      </trkpt>
      <trkpt lat="44.77714" lon="6.55305">
        <ele>995</ele>
        <time>2022-05-08T18:46:25Z</time>
      </trkpt>
      <trkpt lat="44.77703" lon="6.55319">
        <ele>994</ele>
        <time>2022-05-08T18:46:28Z</time>
      </trkpt>
      <trkpt lat="44.77679" lon="6.55334">
        <ele>993</ele>
        <time>2022-05-08T18:46:35Z</time>
      </trkpt>
      <trkpt lat="44.77604" lon="6.55335">
        <ele>1000</ele>
        <time>2022-05-08T18:46:52Z</time>
      </trkpt>
      <trkpt lat="44.77569" lon="6.5534">
        <ele>1003</ele>
        <time>2022-05-08T18:47:00Z</time>
      </trkpt>
      <trkpt lat="44.77533" lon="6.55341">
        <ele>1008</ele>
        <time>2022-05-08T18:47:09Z</time>
      </trkpt>
      <trkpt lat="44.77491" lon="6.55356">
        <ele>1012</ele>
        <time>2022-05-08T18:47:19Z</time>
      </trkpt>
      <trkpt lat="44.77491" lon="6.55359">
        <ele>1011</ele>
        <time>2022-05-08T18:47:19Z</time>
      </trkpt>
      <trkpt lat="44.77477" lon="6.55373">
        <ele>1011</ele>
        <time>2022-05-08T18:47:23Z</time>
      </trkpt>
      <trkpt lat="44.77466" lon="6.5539">
        <ele>1008</ele>
        <time>2022-05-08T18:47:27Z</time>
      </trkpt>
      <trkpt lat="44.77432" lon="6.55409">
        <ele>1007</ele>
        <time>2022-05-08T18:47:36Z</time>
      </trkpt>
      <trkpt lat="44.77419" lon="6.5541">
        <ele>1008</ele>
        <time>2022-05-08T18:47:39Z</time>
      </trkpt>
      <trkpt lat="44.77412" lon="6.55402">
        <ele>1011</ele>
        <time>2022-05-08T18:47:41Z</time>
      </trkpt>
      <trkpt lat="44.77396" lon="6.55397">
        <ele>1014</ele>
        <time>2022-05-08T18:47:45Z</time>
      </trkpt>
      <trkpt lat="44.77382" lon="6.55385">
        <ele>1020</ele>
        <time>2022-05-08T18:47:48Z</time>
      </trkpt>
      <trkpt lat="44.77375" lon="6.55383">
        <ele>1022</ele>
        <time>2022-05-08T18:47:50Z</time>
      </trkpt>
      <trkpt lat="44.77366" lon="6.55383">
        <ele>1023</ele>
        <time>2022-05-08T18:47:52Z</time>
      </trkpt>
      <trkpt lat="44.77358" lon="6.55386">
        <ele>1023</ele>
        <time>2022-05-08T18:47:54Z</time>
      </trkpt>
      <trkpt lat="44.7734" lon="6.55386">
        <ele>1026</ele>
        <time>2022-05-08T18:47:58Z</time>
      </trkpt>
      <trkpt lat="44.77338" lon="6.55377">
        <ele>1029</ele>
        <time>2022-05-08T18:48:00Z</time>
      </trkpt>
      <trkpt lat="44.77347" lon="6.55376">
        <ele>1029</ele>
        <time>2022-05-08T18:48:02Z</time>
      </trkpt>
      <trkpt lat="44.77369" lon="6.55358">
        <ele>1032</ele>
        <time>2022-05-08T18:48:08Z</time>
      </trkpt>
      <trkpt lat="44.77361" lon="6.55357">
        <ele>1034</ele>
        <time>2022-05-08T18:48:10Z</time>
      </trkpt>
      <trkpt lat="44.77354" lon="6.55361">
        <ele>1033</ele>
        <time>2022-05-08T18:48:12Z</time>
      </trkpt>
      <trkpt lat="44.77305" lon="6.55365">
        <ele>1044</ele>
        <time>2022-05-08T18:48:23Z</time>
      </trkpt>
      <trkpt lat="44.77292" lon="6.5538">
        <ele>1041</ele>
        <time>2022-05-08T18:48:27Z</time>
      </trkpt>
      <trkpt lat="44.77284" lon="6.55385">
        <ele>1041</ele>
        <time>2022-05-08T18:48:29Z</time>
      </trkpt>
      <trkpt lat="44.77235" lon="6.55397">
        <ele>1050</ele>
        <time>2022-05-08T18:48:41Z</time>
      </trkpt>
      <trkpt lat="44.77212" lon="6.55407">
        <ele>1051</ele>
        <time>2022-05-08T18:48:46Z</time>
      </trkpt>
      <trkpt lat="44.77188" lon="6.55412">
        <ele>1054</ele>
        <time>2022-05-08T18:48:52Z</time>
      </trkpt>
      <trkpt lat="44.77172" lon="6.55412">
        <ele>1058</ele>
        <time>2022-05-08T18:48:56Z</time>
      </trkpt>
      <trkpt lat="44.77158" lon="6.55408">
        <ele>1062</ele>
        <time>2022-05-08T18:48:59Z</time>
      </trkpt>
      <trkpt lat="44.77135" lon="6.55395">
        <ele>1070</ele>
        <time>2022-05-08T18:49:05Z</time>
      </trkpt>
      <trkpt lat="44.77094" lon="6.55387">
        <ele>1077</ele>
        <time>2022-05-08T18:49:14Z</time>
      </trkpt>
      <trkpt lat="44.77086" lon="6.55391">
        <ele>1077</ele>
        <time>2022-05-08T18:49:16Z</time>
      </trkpt>
      <trkpt lat="44.77073" lon="6.55404">
        <ele>1073</ele>
        <time>2022-05-08T18:49:20Z</time>
      </trkpt>
      <trkpt lat="44.7705" lon="6.55398">
        <ele>1078</ele>
        <time>2022-05-08T18:49:26Z</time>
      </trkpt>
      <trkpt lat="44.77042" lon="6.55401">
        <ele>1078</ele>
        <time>2022-05-08T18:49:28Z</time>
      </trkpt>
      <trkpt lat="44.77001" lon="6.55397">
        <ele>1084</ele>
        <time>2022-05-08T18:49:37Z</time>
      </trkpt>
      <trkpt lat="44.7697" lon="6.55407">
        <ele>1085</ele>
        <time>2022-05-08T18:49:45Z</time>
      </trkpt>
      <trkpt lat="44.76962" lon="6.55413">
        <ele>1084</ele>
        <time>2022-05-08T18:49:47Z</time>
      </trkpt>
      <trkpt lat="44.76947" lon="6.55409">
        <ele>1088</ele>
        <time>2022-05-08T18:49:50Z</time>
      </trkpt>
      <trkpt lat="44.76924" lon="6.55409">
        <ele>1091</ele>
        <time>2022-05-08T18:49:56Z</time>
      </trkpt>
      <trkpt lat="44.7691" lon="6.55415">
        <ele>1092</ele>
        <time>2022-05-08T18:49:59Z</time>
      </trkpt>
      <trkpt lat="44.7688" lon="6.55436">
        <ele>1097</ele>
        <time>2022-05-08T18:50:07Z</time>
      </trkpt>
      <trkpt lat="44.76868" lon="6.55451">
        <ele>1096</ele>
        <time>2022-05-08T18:50:11Z</time>
      </trkpt>
      <trkpt lat="44.76852" lon="6.55465">
        <ele>1097</ele>
        <time>2022-05-08T18:50:15Z</time>
      </trkpt>
      <trkpt lat="44.76844" lon="6.55465">
        <ele>1100</ele>
        <time>2022-05-08T18:50:17Z</time>
      </trkpt>
      <trkpt lat="44.76845" lon="6.55479">
        <ele>1094</ele>
        <time>2022-05-08T18:50:19Z</time>
      </trkpt>
      <trkpt lat="44.76826" lon="6.55503">
        <ele>1091</ele>
        <time>2022-05-08T18:50:25Z</time>
      </trkpt>
      <trkpt lat="44.76806" lon="6.55514">
        <ele>1092</ele>
        <time>2022-05-08T18:50:30Z</time>
      </trkpt>
      <trkpt lat="44.76779" lon="6.5552">
        <ele>1097</ele>
        <time>2022-05-08T18:50:37Z</time>
      </trkpt>
      <trkpt lat="44.76771" lon="6.55525">
        <ele>1096</ele>
        <time>2022-05-08T18:50:39Z</time>
      </trkpt>
      <trkpt lat="44.76762" lon="6.55536">
        <ele>1094</ele>
        <time>2022-05-08T18:50:41Z</time>
      </trkpt>
      <trkpt lat="44.76721" lon="6.55603">
        <ele>1083</ele>
        <time>2022-05-08T18:50:56Z</time>
      </trkpt>
      <trkpt lat="44.76695" lon="6.55651">
        <ele>1078</ele>
        <time>2022-05-08T18:51:06Z</time>
      </trkpt>
      <trkpt lat="44.76663" lon="6.55685">
        <ele>1079</ele>
        <time>2022-05-08T18:51:15Z</time>
      </trkpt>
      <trkpt lat="44.76656" lon="6.55696">
        <ele>1078</ele>
        <time>2022-05-08T18:51:18Z</time>
      </trkpt>
      <trkpt lat="44.76644" lon="6.55734">
        <ele>1070</ele>
        <time>2022-05-08T18:51:25Z</time>
      </trkpt>
      <trkpt lat="44.76624" lon="6.55777">
        <ele>1065</ele>
        <time>2022-05-08T18:51:33Z</time>
      </trkpt>
      <trkpt lat="44.76617" lon="6.55808">
        <ele>1059</ele>
        <time>2022-05-08T18:51:39Z</time>
      </trkpt>
      <trkpt lat="44.76612" lon="6.55817">
        <ele>1058</ele>
        <time>2022-05-08T18:51:41Z</time>
      </trkpt>
      <trkpt lat="44.76601" lon="6.55828">
        <ele>1057</ele>
        <time>2022-05-08T18:51:44Z</time>
      </trkpt>
      <trkpt lat="44.76597" lon="6.55829">
        <ele>1058</ele>
        <time>2022-05-08T18:51:45Z</time>
      </trkpt>
      <trkpt lat="44.76578" lon="6.55829">
        <ele>1063</ele>
        <time>2022-05-08T18:51:49Z</time>
      </trkpt>
      <trkpt lat="44.76561" lon="6.55823">
        <ele>1071</ele>
        <time>2022-05-08T18:51:53Z</time>
      </trkpt>
      <trkpt lat="44.76553" lon="6.55831">
        <ele>1071</ele>
        <time>2022-05-08T18:51:56Z</time>
      </trkpt>
      <trkpt lat="44.76545" lon="6.55843">
        <ele>1070</ele>
        <time>2022-05-08T18:51:58Z</time>
      </trkpt>
      <trkpt lat="44.76542" lon="6.55852">
        <ele>1068</ele>
        <time>2022-05-08T18:52:00Z</time>
      </trkpt>
      <trkpt lat="44.76537" lon="6.55886">
        <ele>1058</ele>
        <time>2022-05-08T18:52:06Z</time>
      </trkpt>
      <trkpt lat="44.7653" lon="6.55908">
        <ele>1053</ele>
        <time>2022-05-08T18:52:10Z</time>
      </trkpt>
      <trkpt lat="44.76518" lon="6.55925">
        <ele>1050</ele>
        <time>2022-05-08T18:52:14Z</time>
      </trkpt>
      <trkpt lat="44.76511" lon="6.5593">
        <ele>1051</ele>
        <time>2022-05-08T18:52:15Z</time>
      </trkpt>
      <trkpt lat="44.76483" lon="6.55961">
        <ele>1049</ele>
        <time>2022-05-08T18:52:24Z</time>
      </trkpt>
      <trkpt lat="44.76468" lon="6.55986">
        <ele>1046</ele>
        <time>2022-05-08T18:52:29Z</time>
      </trkpt>
      <trkpt lat="44.76435" lon="6.56023">
        <ele>1047</ele>
        <time>2022-05-08T18:52:39Z</time>
      </trkpt>
      <trkpt lat="44.7642" lon="6.56058">
        <ele>1042</ele>
        <time>2022-05-08T18:52:46Z</time>
      </trkpt>
      <trkpt lat="44.76387" lon="6.56106">
        <ele>1042</ele>
        <time>2022-05-08T18:52:57Z</time>
      </trkpt>
      <trkpt lat="44.76377" lon="6.56128">
        <ele>1042</ele>
        <time>2022-05-08T18:53:01Z</time>
      </trkpt>
      <trkpt lat="44.76371" lon="6.56136">
        <ele>1042</ele>
        <time>2022-05-08T18:53:03Z</time>
      </trkpt>
      <trkpt lat="44.76348" lon="6.56206">
        <ele>1039</ele>
        <time>2022-05-08T18:53:16Z</time>
      </trkpt>
      <trkpt lat="44.76331" lon="6.56229">
        <ele>1043</ele>
        <time>2022-05-08T18:53:21Z</time>
      </trkpt>
      <trkpt lat="44.76319" lon="6.5624">
        <ele>1047</ele>
        <time>2022-05-08T18:53:25Z</time>
      </trkpt>
      <trkpt lat="44.76308" lon="6.56257">
        <ele>1050</ele>
        <time>2022-05-08T18:53:29Z</time>
      </trkpt>
      <trkpt lat="44.76297" lon="6.56284">
        <ele>1052</ele>
        <time>2022-05-08T18:53:34Z</time>
      </trkpt>
      <trkpt lat="44.76291" lon="6.56342">
        <ele>1045</ele>
        <time>2022-05-08T18:53:44Z</time>
      </trkpt>
      <trkpt lat="44.76284" lon="6.56349">
        <ele>1046</ele>
        <time>2022-05-08T18:53:46Z</time>
      </trkpt>
      <trkpt lat="44.76277" lon="6.56344">
        <ele>1050</ele>
        <time>2022-05-08T18:53:47Z</time>
      </trkpt>
      <trkpt lat="44.76273" lon="6.56311">
        <ele>1059</ele>
        <time>2022-05-08T18:53:53Z</time>
      </trkpt>
      <trkpt lat="44.76275" lon="6.56298">
        <ele>1061</ele>
        <time>2022-05-08T18:53:55Z</time>
      </trkpt>
      <trkpt lat="44.76267" lon="6.56292">
        <ele>1065</ele>
        <time>2022-05-08T18:53:57Z</time>
      </trkpt>
      <trkpt lat="44.76262" lon="6.563">
        <ele>1066</ele>
        <time>2022-05-08T18:53:59Z</time>
      </trkpt>
      <trkpt lat="44.76258" lon="6.56289">
        <ele>1070</ele>
        <time>2022-05-08T18:54:01Z</time>
      </trkpt>
      <trkpt lat="44.7626" lon="6.56243">
        <ele>1078</ele>
        <time>2022-05-08T18:54:09Z</time>
      </trkpt>
      <trkpt lat="44.76228" lon="6.5628">
        <ele>1085</ele>
        <time>2022-05-08T18:54:18Z</time>
      </trkpt>
      <trkpt lat="44.76219" lon="6.56283">
        <ele>1088</ele>
        <time>2022-05-08T18:54:21Z</time>
      </trkpt>
      <trkpt lat="44.76217" lon="6.56295">
        <ele>1086</ele>
        <time>2022-05-08T18:54:23Z</time>
      </trkpt>
      <trkpt lat="44.76204" lon="6.56307">
        <ele>1088</ele>
        <time>2022-05-08T18:54:26Z</time>
      </trkpt>
      <trkpt lat="44.76172" lon="6.56326">
        <ele>1095</ele>
        <time>2022-05-08T18:54:34Z</time>
      </trkpt>
      <trkpt lat="44.76155" lon="6.56324">
        <ele>1100</ele>
        <time>2022-05-08T18:54:38Z</time>
      </trkpt>
      <trkpt lat="44.76147" lon="6.56327">
        <ele>1101</ele>
        <time>2022-05-08T18:54:40Z</time>
      </trkpt>
      <trkpt lat="44.76117" lon="6.56342">
        <ele>1101</ele>
        <time>2022-05-08T18:54:48Z</time>
      </trkpt>
      <trkpt lat="44.76103" lon="6.56353">
        <ele>1099</ele>
        <time>2022-05-08T18:54:51Z</time>
      </trkpt>
      <trkpt lat="44.76095" lon="6.56355">
        <ele>1100</ele>
        <time>2022-05-08T18:54:53Z</time>
      </trkpt>
      <trkpt lat="44.76075" lon="6.56376">
        <ele>1097</ele>
        <time>2022-05-08T18:54:59Z</time>
      </trkpt>
      <trkpt lat="44.76059" lon="6.56402">
        <ele>1092</ele>
        <time>2022-05-08T18:55:05Z</time>
      </trkpt>
      <trkpt lat="44.76051" lon="6.56406">
        <ele>1093</ele>
        <time>2022-05-08T18:55:07Z</time>
      </trkpt>
      <trkpt lat="44.76041" lon="6.56407">
        <ele>1097</ele>
        <time>2022-05-08T18:55:09Z</time>
      </trkpt>
      <trkpt lat="44.7603" lon="6.56422">
        <ele>1095</ele>
        <time>2022-05-08T18:55:13Z</time>
      </trkpt>
      <trkpt lat="44.76015" lon="6.56459">
        <ele>1084</ele>
        <time>2022-05-08T18:55:20Z</time>
      </trkpt>
      <trkpt lat="44.75986" lon="6.56499">
        <ele>1076</ele>
        <time>2022-05-08T18:55:29Z</time>
      </trkpt>
      <trkpt lat="44.75953" lon="6.56529">
        <ele>1073</ele>
        <time>2022-05-08T18:55:38Z</time>
      </trkpt>
      <trkpt lat="44.75939" lon="6.56547">
        <ele>1069</ele>
        <time>2022-05-08T18:55:43Z</time>
      </trkpt>
      <trkpt lat="44.75929" lon="6.56554">
        <ele>1069</ele>
        <time>2022-05-08T18:55:45Z</time>
      </trkpt>
      <trkpt lat="44.75918" lon="6.56556">
        <ele>1071</ele>
        <time>2022-05-08T18:55:48Z</time>
      </trkpt>
      <trkpt lat="44.75905" lon="6.56564">
        <ele>1072</ele>
        <time>2022-05-08T18:55:51Z</time>
      </trkpt>
      <trkpt lat="44.759" lon="6.56575">
        <ele>1069</ele>
        <time>2022-05-08T18:55:54Z</time>
      </trkpt>
      <trkpt lat="44.75891" lon="6.56578">
        <ele>1071</ele>
        <time>2022-05-08T18:55:56Z</time>
      </trkpt>
      <trkpt lat="44.75874" lon="6.56594">
        <ele>1071</ele>
        <time>2022-05-08T18:56:00Z</time>
      </trkpt>
      <trkpt lat="44.75861" lon="6.56618">
        <ele>1068</ele>
        <time>2022-05-08T18:56:05Z</time>
      </trkpt>
      <trkpt lat="44.75842" lon="6.56665">
        <ele>1060</ele>
        <time>2022-05-08T18:56:14Z</time>
      </trkpt>
      <trkpt lat="44.75831" lon="6.5668">
        <ele>1059</ele>
        <time>2022-05-08T18:56:18Z</time>
      </trkpt>
      <trkpt lat="44.75823" lon="6.5671">
        <ele>1052</ele>
        <time>2022-05-08T18:56:23Z</time>
      </trkpt>
      <trkpt lat="44.75848" lon="6.56684">
        <ele>1051</ele>
        <time>2022-05-08T18:56:31Z</time>
      </trkpt>
      <trkpt lat="44.75853" lon="6.5669">
        <ele>1047</ele>
        <time>2022-05-08T18:56:32Z</time>
      </trkpt>
      <trkpt lat="44.75846" lon="6.56721">
        <ele>1039</ele>
        <time>2022-05-08T18:56:38Z</time>
      </trkpt>
      <trkpt lat="44.75842" lon="6.56724">
        <ele>1040</ele>
        <time>2022-05-08T18:56:39Z</time>
      </trkpt>
      <trkpt lat="44.75825" lon="6.56763">
        <ele>1032</ele>
        <time>2022-05-08T18:56:46Z</time>
      </trkpt>
      <trkpt lat="44.75818" lon="6.5677">
        <ele>1032</ele>
        <time>2022-05-08T18:56:48Z</time>
      </trkpt>
      <trkpt lat="44.75815" lon="6.56779">
        <ele>1030</ele>
        <time>2022-05-08T18:56:50Z</time>
      </trkpt>
      <trkpt lat="44.75797" lon="6.56808">
        <ele>1024</ele>
        <time>2022-05-08T18:56:56Z</time>
      </trkpt>
      <trkpt lat="44.75781" lon="6.5683">
        <ele>1020</ele>
        <time>2022-05-08T18:57:01Z</time>
      </trkpt>
      <trkpt lat="44.75774" lon="6.56836">
        <ele>1020</ele>
        <time>2022-05-08T18:57:03Z</time>
      </trkpt>
      <trkpt lat="44.75768" lon="6.56848">
        <ele>1017</ele>
        <time>2022-05-08T18:57:06Z</time>
      </trkpt>
      <trkpt lat="44.75733" lon="6.56893">
        <ele>1011</ele>
        <time>2022-05-08T18:57:17Z</time>
      </trkpt>
      <trkpt lat="44.75715" lon="6.56952">
        <ele>997</ele>
        <time>2022-05-08T18:57:27Z</time>
      </trkpt>
      <trkpt lat="44.75681" lon="6.57004">
        <ele>991</ele>
        <time>2022-05-08T18:57:39Z</time>
      </trkpt>
      <trkpt lat="44.75673" lon="6.57021">
        <ele>985</ele>
        <time>2022-05-08T18:57:43Z</time>
      </trkpt>
      <trkpt lat="44.7565" lon="6.5705">
        <ele>978</ele>
        <time>2022-05-08T18:57:50Z</time>
      </trkpt>
      <trkpt lat="44.75611" lon="6.57086">
        <ele>975</ele>
        <time>2022-05-08T18:58:01Z</time>
      </trkpt>
      <trkpt lat="44.75584" lon="6.57127">
        <ele>966</ele>
        <time>2022-05-08T18:58:10Z</time>
      </trkpt>
      <trkpt lat="44.75554" lon="6.57157">
        <ele>960</ele>
        <time>2022-05-08T18:58:19Z</time>
      </trkpt>
      <trkpt lat="44.75539" lon="6.57165">
        <ele>960</ele>
        <time>2022-05-08T18:58:22Z</time>
      </trkpt>
      <trkpt lat="44.7553" lon="6.57163">
        <ele>963</ele>
        <time>2022-05-08T18:58:24Z</time>
      </trkpt>
      <trkpt lat="44.75512" lon="6.57174">
        <ele>963</ele>
        <time>2022-05-08T18:58:29Z</time>
      </trkpt>
      <trkpt lat="44.75467" lon="6.57219">
        <ele>959</ele>
        <time>2022-05-08T18:58:42Z</time>
      </trkpt>
      <trkpt lat="44.75473" lon="6.57226">
        <ele>956</ele>
        <time>2022-05-08T18:58:44Z</time>
      </trkpt>
      <trkpt lat="44.75478" lon="6.57221">
        <ele>956</ele>
        <time>2022-05-08T18:58:45Z</time>
      </trkpt>
      <trkpt lat="44.75499" lon="6.57218">
        <ele>953</ele>
        <time>2022-05-08T18:58:50Z</time>
      </trkpt>
      <trkpt lat="44.75504" lon="6.57213">
        <ele>954</ele>
        <time>2022-05-08T18:58:52Z</time>
      </trkpt>
      <trkpt lat="44.75512" lon="6.57213">
        <ele>953</ele>
        <time>2022-05-08T18:58:53Z</time>
      </trkpt>
      <trkpt lat="44.75507" lon="6.57223">
        <ele>951</ele>
        <time>2022-05-08T18:58:55Z</time>
      </trkpt>
      <trkpt lat="44.75493" lon="6.57228">
        <ele>952</ele>
        <time>2022-05-08T18:58:59Z</time>
      </trkpt>
      <trkpt lat="44.75476" lon="6.57241">
        <ele>951</ele>
        <time>2022-05-08T18:59:03Z</time>
      </trkpt>
      <trkpt lat="44.75426" lon="6.57269">
        <ele>952</ele>
        <time>2022-05-08T18:59:16Z</time>
      </trkpt>
      <trkpt lat="44.75403" lon="6.57293">
        <ele>949</ele>
        <time>2022-05-08T18:59:23Z</time>
      </trkpt>
      <trkpt lat="44.754" lon="6.573">
        <ele>948</ele>
        <time>2022-05-08T18:59:24Z</time>
      </trkpt>
      <trkpt lat="44.75399" lon="6.57317">
        <ele>944</ele>
        <time>2022-05-08T18:59:27Z</time>
      </trkpt>
      <trkpt lat="44.75406" lon="6.57345">
        <ele>941</ele>
        <time>2022-05-08T18:59:32Z</time>
      </trkpt>
      <trkpt lat="44.75435" lon="6.57401">
        <ele>940</ele>
        <time>2022-05-08T18:59:43Z</time>
      </trkpt>
      <trkpt lat="44.75484" lon="6.57467">
        <ele>940</ele>
        <time>2022-05-08T18:59:59Z</time>
      </trkpt>
      <trkpt lat="44.75458" lon="6.57487">
        <ele>940</ele>
        <time>2022-05-08T19:00:06Z</time>
      </trkpt>
      <trkpt lat="44.75417" lon="6.57507">
        <ele>940</ele>
        <time>2022-05-08T19:00:16Z</time>
      </trkpt>
      <trkpt lat="44.75315" lon="6.57542">
        <ele>938</ele>
        <time>2022-05-08T19:00:41Z</time>
      </trkpt>
      <trkpt lat="44.75249" lon="6.57552">
        <ele>938</ele>
        <time>2022-05-08T19:00:56Z</time>
      </trkpt>
      <trkpt lat="44.75176" lon="6.57569">
        <ele>938</ele>
        <time>2022-05-08T19:01:13Z</time>
      </trkpt>
      <trkpt lat="44.75132" lon="6.57608">
        <ele>938</ele>
        <time>2022-05-08T19:01:25Z</time>
      </trkpt>
      <trkpt lat="44.75142" lon="6.57643">
        <ele>938</ele>
        <time>2022-05-08T19:01:32Z</time>
      </trkpt>
      <trkpt lat="44.75184" lon="6.57731">
        <ele>938</ele>
        <time>2022-05-08T19:01:49Z</time>
      </trkpt>
      <trkpt lat="44.75139" lon="6.57761">
        <ele>939</ele>
        <time>2022-05-08T19:02:01Z</time>
      </trkpt>
      <trkpt lat="44.75149" lon="6.57794">
        <ele>941</ele>
        <time>2022-05-08T19:02:07Z</time>
      </trkpt>
      <trkpt lat="44.7513" lon="6.57821">
        <ele>943</ele>
        <time>2022-05-08T19:02:13Z</time>
      </trkpt>
      <trkpt lat="44.75122" lon="6.57868">
        <ele>946</ele>
        <time>2022-05-08T19:02:21Z</time>
      </trkpt>
      <trkpt lat="44.75083" lon="6.57887">
        <ele>948</ele>
        <time>2022-05-08T19:02:31Z</time>
      </trkpt>
      <trkpt lat="44.75036" lon="6.57973">
        <ele>953</ele>
        <time>2022-05-08T19:02:49Z</time>
      </trkpt>
      <trkpt lat="44.75022" lon="6.57973">
        <ele>952</ele>
        <time>2022-05-08T19:02:52Z</time>
      </trkpt>
      <trkpt lat="44.7502" lon="6.57996">
        <ele>953</ele>
        <time>2022-05-08T19:02:56Z</time>
      </trkpt>
      <trkpt lat="44.75025" lon="6.58008">
        <ele>955</ele>
        <time>2022-05-08T19:02:58Z</time>
      </trkpt>
      <trkpt lat="44.75038" lon="6.58064">
        <ele>959</ele>
        <time>2022-05-08T19:03:08Z</time>
      </trkpt>
      <trkpt lat="44.75052" lon="6.58106">
        <ele>962</ele>
        <time>2022-05-08T19:03:16Z</time>
      </trkpt>
      <trkpt lat="44.75123" lon="6.58204">
        <ele>970</ele>
        <time>2022-05-08T19:03:39Z</time>
      </trkpt>
      <trkpt lat="44.7515" lon="6.58247">
        <ele>974</ele>
        <time>2022-05-08T19:03:48Z</time>
      </trkpt>
      <trkpt lat="44.75155" lon="6.58259">
        <ele>975</ele>
        <time>2022-05-08T19:03:51Z</time>
      </trkpt>
      <trkpt lat="44.75161" lon="6.58285">
        <ele>977</ele>
        <time>2022-05-08T19:03:55Z</time>
      </trkpt>
      <trkpt lat="44.75164" lon="6.58345">
        <ele>981</ele>
        <time>2022-05-08T19:04:05Z</time>
      </trkpt>
      <trkpt lat="44.75168" lon="6.58375">
        <ele>985</ele>
        <time>2022-05-08T19:04:10Z</time>
      </trkpt>
      <trkpt lat="44.75182" lon="6.5843">
        <ele>994</ele>
        <time>2022-05-08T19:04:20Z</time>
      </trkpt>
      <trkpt lat="44.75195" lon="6.58452">
        <ele>998</ele>
        <time>2022-05-08T19:04:25Z</time>
      </trkpt>
      <trkpt lat="44.75213" lon="6.58507">
        <ele>1005</ele>
        <time>2022-05-08T19:04:35Z</time>
      </trkpt>
      <trkpt lat="44.75228" lon="6.58526">
        <ele>1008</ele>
        <time>2022-05-08T19:04:40Z</time>
      </trkpt>
      <trkpt lat="44.75247" lon="6.58537">
        <ele>1009</ele>
        <time>2022-05-08T19:04:44Z</time>
      </trkpt>
      <trkpt lat="44.75277" lon="6.58542">
        <ele>1011</ele>
        <time>2022-05-08T19:04:51Z</time>
      </trkpt>
      <trkpt lat="44.75297" lon="6.58541">
        <ele>1012</ele>
        <time>2022-05-08T19:04:56Z</time>
      </trkpt>
      <trkpt lat="44.75306" lon="6.58547">
        <ele>1013</ele>
        <time>2022-05-08T19:04:58Z</time>
      </trkpt>
      <trkpt lat="44.75305" lon="6.58561">
        <ele>1014</ele>
        <time>2022-05-08T19:05:01Z</time>
      </trkpt>
      <trkpt lat="44.7528" lon="6.58582">
        <ele>1016</ele>
        <time>2022-05-08T19:05:08Z</time>
      </trkpt>
      <trkpt lat="44.75261" lon="6.58588">
        <ele>1018</ele>
        <time>2022-05-08T19:05:12Z</time>
      </trkpt>
      <trkpt lat="44.75252" lon="6.58586">
        <ele>1017</ele>
        <time>2022-05-08T19:05:14Z</time>
      </trkpt>
      <trkpt lat="44.75233" lon="6.58572">
        <ele>1016</ele>
        <time>2022-05-08T19:05:19Z</time>
      </trkpt>
      <trkpt lat="44.75224" lon="6.5857">
        <ele>1017</ele>
        <time>2022-05-08T19:05:21Z</time>
      </trkpt>
      <trkpt lat="44.75183" lon="6.5857">
        <ele>1022</ele>
        <time>2022-05-08T19:05:31Z</time>
      </trkpt>
      <trkpt lat="44.75121" lon="6.58549">
        <ele>1024</ele>
        <time>2022-05-08T19:05:46Z</time>
      </trkpt>
      <trkpt lat="44.75075" lon="6.5855">
        <ele>1029</ele>
        <time>2022-05-08T19:05:57Z</time>
      </trkpt>
      <trkpt lat="44.75055" lon="6.58542">
        <ele>1029</ele>
        <time>2022-05-08T19:06:01Z</time>
      </trkpt>
      <trkpt lat="44.75037" lon="6.5854">
        <ele>1030</ele>
        <time>2022-05-08T19:06:06Z</time>
      </trkpt>
      <trkpt lat="44.75008" lon="6.58525">
        <ele>1030</ele>
        <time>2022-05-08T19:06:13Z</time>
      </trkpt>
      <trkpt lat="44.74957" lon="6.58522">
        <ele>1028</ele>
        <time>2022-05-08T19:06:25Z</time>
      </trkpt>
      <trkpt lat="44.74944" lon="6.58525">
        <ele>1028</ele>
        <time>2022-05-08T19:06:28Z</time>
      </trkpt>
      <trkpt lat="44.74931" lon="6.58546">
        <ele>1032</ele>
        <time>2022-05-08T19:06:32Z</time>
      </trkpt>
      <trkpt lat="44.74921" lon="6.58553">
        <ele>1033</ele>
        <time>2022-05-08T19:06:35Z</time>
      </trkpt>
      <trkpt lat="44.74889" lon="6.58559">
        <ele>1030</ele>
        <time>2022-05-08T19:06:43Z</time>
      </trkpt>
      <trkpt lat="44.74862" lon="6.58576">
        <ele>1031</ele>
        <time>2022-05-08T19:06:50Z</time>
      </trkpt>
      <trkpt lat="44.74836" lon="6.58599">
        <ele>1035</ele>
        <time>2022-05-08T19:06:57Z</time>
      </trkpt>
      <trkpt lat="44.74816" lon="6.58606">
        <ele>1037</ele>
        <time>2022-05-08T19:07:02Z</time>
      </trkpt>
      <trkpt lat="44.74807" lon="6.58613">
        <ele>1039</ele>
        <time>2022-05-08T19:07:04Z</time>
      </trkpt>
      <trkpt lat="44.74792" lon="6.58635">
        <ele>1046</ele>
        <time>2022-05-08T19:07:09Z</time>
      </trkpt>
      <trkpt lat="44.74783" lon="6.58641">
        <ele>1048</ele>
        <time>2022-05-08T19:07:11Z</time>
      </trkpt>
      <trkpt lat="44.74772" lon="6.58644">
        <ele>1049</ele>
        <time>2022-05-08T19:07:14Z</time>
      </trkpt>
      <trkpt lat="44.74762" lon="6.58643">
        <ele>1049</ele>
        <time>2022-05-08T19:07:16Z</time>
      </trkpt>
      <trkpt lat="44.74751" lon="6.58638">
        <ele>1047</ele>
        <time>2022-05-08T19:07:19Z</time>
      </trkpt>
      <trkpt lat="44.74744" lon="6.58628">
        <ele>1046</ele>
        <time>2022-05-08T19:07:21Z</time>
      </trkpt>
      <trkpt lat="44.74735" lon="6.58624">
        <ele>1047</ele>
        <time>2022-05-08T19:07:23Z</time>
      </trkpt>
      <trkpt lat="44.74732" lon="6.58637">
        <ele>1051</ele>
        <time>2022-05-08T19:07:26Z</time>
      </trkpt>
      <trkpt lat="44.74744" lon="6.58657">
        <ele>1054</ele>
        <time>2022-05-08T19:07:30Z</time>
      </trkpt>
      <trkpt lat="44.74763" lon="6.58669">
        <ele>1056</ele>
        <time>2022-05-08T19:07:35Z</time>
      </trkpt>
      <trkpt lat="44.74793" lon="6.58668">
        <ele>1057</ele>
        <time>2022-05-08T19:07:42Z</time>
      </trkpt>
      <trkpt lat="44.74803" lon="6.58666">
        <ele>1056</ele>
        <time>2022-05-08T19:07:44Z</time>
      </trkpt>
      <trkpt lat="44.74823" lon="6.58656">
        <ele>1053</ele>
        <time>2022-05-08T19:07:49Z</time>
      </trkpt>
      <trkpt lat="44.74833" lon="6.58655">
        <ele>1053</ele>
        <time>2022-05-08T19:07:52Z</time>
      </trkpt>
      <trkpt lat="44.74853" lon="6.58657">
        <ele>1055</ele>
        <time>2022-05-08T19:07:56Z</time>
      </trkpt>
      <trkpt lat="44.74863" lon="6.58655">
        <ele>1055</ele>
        <time>2022-05-08T19:07:59Z</time>
      </trkpt>
      <trkpt lat="44.74881" lon="6.58664">
        <ele>1060</ele>
        <time>2022-05-08T19:08:03Z</time>
      </trkpt>
      <trkpt lat="44.74891" lon="6.58664">
        <ele>1060</ele>
        <time>2022-05-08T19:08:05Z</time>
      </trkpt>
      <trkpt lat="44.74911" lon="6.58657">
        <ele>1060</ele>
        <time>2022-05-08T19:08:10Z</time>
      </trkpt>
      <trkpt lat="44.7494" lon="6.58665">
        <ele>1063</ele>
        <time>2022-05-08T19:08:17Z</time>
      </trkpt>
      <trkpt lat="44.74991" lon="6.58663">
        <ele>1065</ele>
        <time>2022-05-08T19:08:29Z</time>
      </trkpt>
      <trkpt lat="44.75" lon="6.5867">
        <ele>1067</ele>
        <time>2022-05-08T19:08:31Z</time>
      </trkpt>
      <trkpt lat="44.74996" lon="6.58682">
        <ele>1069</ele>
        <time>2022-05-08T19:08:34Z</time>
      </trkpt>
      <trkpt lat="44.7492" lon="6.58721">
        <ele>1078</ele>
        <time>2022-05-08T19:08:53Z</time>
      </trkpt>
      <trkpt lat="44.7489" lon="6.58724">
        <ele>1077</ele>
        <time>2022-05-08T19:09:00Z</time>
      </trkpt>
      <trkpt lat="44.74863" lon="6.58738">
        <ele>1080</ele>
        <time>2022-05-08T19:09:06Z</time>
      </trkpt>
      <trkpt lat="44.74861" lon="6.58752">
        <ele>1084</ele>
        <time>2022-05-08T19:09:09Z</time>
      </trkpt>
      <trkpt lat="44.74871" lon="6.58754">
        <ele>1085</ele>
        <time>2022-05-08T19:09:11Z</time>
      </trkpt>
      <trkpt lat="44.74879" lon="6.58748">
        <ele>1084</ele>
        <time>2022-05-08T19:09:13Z</time>
      </trkpt>
      <trkpt lat="44.74899" lon="6.58745">
        <ele>1084</ele>
        <time>2022-05-08T19:09:18Z</time>
      </trkpt>
      <trkpt lat="44.74926" lon="6.58763">
        <ele>1090</ele>
        <time>2022-05-08T19:09:25Z</time>
      </trkpt>
      <trkpt lat="44.74933" lon="6.58772">
        <ele>1092</ele>
        <time>2022-05-08T19:09:27Z</time>
      </trkpt>
      <trkpt lat="44.74942" lon="6.58796">
        <ele>1098</ele>
        <time>2022-05-08T19:09:32Z</time>
      </trkpt>
      <trkpt lat="44.74951" lon="6.58803">
        <ele>1100</ele>
        <time>2022-05-08T19:09:34Z</time>
      </trkpt>
      <trkpt lat="44.75008" lon="6.5883">
        <ele>1102</ele>
        <time>2022-05-08T19:09:48Z</time>
      </trkpt>
      <trkpt lat="44.75039" lon="6.58833">
        <ele>1104</ele>
        <time>2022-05-08T19:09:55Z</time>
      </trkpt>
      <trkpt lat="44.75061" lon="6.58828">
        <ele>1105</ele>
        <time>2022-05-08T19:10:00Z</time>
      </trkpt>
      <trkpt lat="44.75071" lon="6.58823">
        <ele>1104</ele>
        <time>2022-05-08T19:10:03Z</time>
      </trkpt>
      <trkpt lat="44.75088" lon="6.58804">
        <ele>1102</ele>
        <time>2022-05-08T19:10:08Z</time>
      </trkpt>
      <trkpt lat="44.75098" lon="6.58799">
        <ele>1102</ele>
        <time>2022-05-08T19:10:10Z</time>
      </trkpt>
      <trkpt lat="44.75108" lon="6.58802">
        <ele>1103</ele>
        <time>2022-05-08T19:10:13Z</time>
      </trkpt>
      <trkpt lat="44.75132" lon="6.58829">
        <ele>1111</ele>
        <time>2022-05-08T19:10:20Z</time>
      </trkpt>
      <trkpt lat="44.75141" lon="6.58835">
        <ele>1114</ele>
        <time>2022-05-08T19:10:22Z</time>
      </trkpt>
      <trkpt lat="44.7515" lon="6.58839">
        <ele>1116</ele>
        <time>2022-05-08T19:10:25Z</time>
      </trkpt>
      <trkpt lat="44.7517" lon="6.5884">
        <ele>1118</ele>
        <time>2022-05-08T19:10:29Z</time>
      </trkpt>
      <trkpt lat="44.75174" lon="6.58853">
        <ele>1121</ele>
        <time>2022-05-08T19:10:32Z</time>
      </trkpt>
      <trkpt lat="44.75165" lon="6.58862">
        <ele>1124</ele>
        <time>2022-05-08T19:10:34Z</time>
      </trkpt>
      <trkpt lat="44.75126" lon="6.58866">
        <ele>1121</ele>
        <time>2022-05-08T19:10:43Z</time>
      </trkpt>
      <trkpt lat="44.75116" lon="6.58871">
        <ele>1121</ele>
        <time>2022-05-08T19:10:46Z</time>
      </trkpt>
      <trkpt lat="44.75103" lon="6.58893">
        <ele>1125</ele>
        <time>2022-05-08T19:10:51Z</time>
      </trkpt>
      <trkpt lat="44.75081" lon="6.5892">
        <ele>1129</ele>
        <time>2022-05-08T19:10:57Z</time>
      </trkpt>
      <trkpt lat="44.75071" lon="6.58927">
        <ele>1130</ele>
        <time>2022-05-08T19:11:00Z</time>
      </trkpt>
      <trkpt lat="44.75061" lon="6.5893">
        <ele>1130</ele>
        <time>2022-05-08T19:11:02Z</time>
      </trkpt>
      <trkpt lat="44.7504" lon="6.58928">
        <ele>1128</ele>
        <time>2022-05-08T19:11:07Z</time>
      </trkpt>
      <trkpt lat="44.75008" lon="6.58939">
        <ele>1128</ele>
        <time>2022-05-08T19:11:15Z</time>
      </trkpt>
      <trkpt lat="44.74998" lon="6.58946">
        <ele>1129</ele>
        <time>2022-05-08T19:11:18Z</time>
      </trkpt>
      <trkpt lat="44.74996" lon="6.58959">
        <ele>1133</ele>
        <time>2022-05-08T19:11:20Z</time>
      </trkpt>
      <trkpt lat="44.75004" lon="6.58968">
        <ele>1135</ele>
        <time>2022-05-08T19:11:22Z</time>
      </trkpt>
      <trkpt lat="44.75024" lon="6.58977">
        <ele>1138</ele>
        <time>2022-05-08T19:11:27Z</time>
      </trkpt>
      <trkpt lat="44.75032" lon="6.58983">
        <ele>1140</ele>
        <time>2022-05-08T19:11:29Z</time>
      </trkpt>
      <trkpt lat="44.75037" lon="6.58996">
        <ele>1143</ele>
        <time>2022-05-08T19:11:32Z</time>
      </trkpt>
      <trkpt lat="44.75036" lon="6.5901">
        <ele>1147</ele>
        <time>2022-05-08T19:11:34Z</time>
      </trkpt>
      <trkpt lat="44.75027" lon="6.59019">
        <ele>1149</ele>
        <time>2022-05-08T19:11:37Z</time>
      </trkpt>
      <trkpt lat="44.75016" lon="6.59019">
        <ele>1149</ele>
        <time>2022-05-08T19:11:39Z</time>
      </trkpt>
      <trkpt lat="44.74948" lon="6.59006">
        <ele>1153</ele>
        <time>2022-05-08T19:11:55Z</time>
      </trkpt>
      <trkpt lat="44.74916" lon="6.58995">
        <ele>1155</ele>
        <time>2022-05-08T19:12:03Z</time>
      </trkpt>
      <trkpt lat="44.74908" lon="6.58987">
        <ele>1155</ele>
        <time>2022-05-08T19:12:05Z</time>
      </trkpt>
      <trkpt lat="44.74903" lon="6.58976">
        <ele>1153</ele>
        <time>2022-05-08T19:12:07Z</time>
      </trkpt>
      <trkpt lat="44.74898" lon="6.58948">
        <ele>1147</ele>
        <time>2022-05-08T19:12:12Z</time>
      </trkpt>
      <trkpt lat="44.74892" lon="6.58938">
        <ele>1145</ele>
        <time>2022-05-08T19:12:14Z</time>
      </trkpt>
      <trkpt lat="44.74882" lon="6.58934">
        <ele>1146</ele>
        <time>2022-05-08T19:12:17Z</time>
      </trkpt>
      <trkpt lat="44.74852" lon="6.58936">
        <ele>1153</ele>
        <time>2022-05-08T19:12:24Z</time>
      </trkpt>
      <trkpt lat="44.74824" lon="6.5893">
        <ele>1156</ele>
        <time>2022-05-08T19:12:30Z</time>
      </trkpt>
      <trkpt lat="44.74796" lon="6.58928">
        <ele>1158</ele>
        <time>2022-05-08T19:12:37Z</time>
      </trkpt>
      <trkpt lat="44.74768" lon="6.58933">
        <ele>1163</ele>
        <time>2022-05-08T19:12:43Z</time>
      </trkpt>
      <trkpt lat="44.74759" lon="6.58937">
        <ele>1165</ele>
        <time>2022-05-08T19:12:46Z</time>
      </trkpt>
      <trkpt lat="44.74767" lon="6.58946">
        <ele>1168</ele>
        <time>2022-05-08T19:12:48Z</time>
      </trkpt>
      <trkpt lat="44.74777" lon="6.58941">
        <ele>1165</ele>
        <time>2022-05-08T19:12:51Z</time>
      </trkpt>
      <trkpt lat="44.74786" lon="6.5894">
        <ele>1164</ele>
        <time>2022-05-08T19:12:53Z</time>
      </trkpt>
      <trkpt lat="44.74824" lon="6.5896">
        <ele>1167</ele>
        <time>2022-05-08T19:13:02Z</time>
      </trkpt>
      <trkpt lat="44.74831" lon="6.58967">
        <ele>1168</ele>
        <time>2022-05-08T19:13:04Z</time>
      </trkpt>
      <trkpt lat="44.74851" lon="6.59">
        <ele>1174</ele>
        <time>2022-05-08T19:13:11Z</time>
      </trkpt>
      <trkpt lat="44.74872" lon="6.59026">
        <ele>1179</ele>
        <time>2022-05-08T19:13:18Z</time>
      </trkpt>
      <trkpt lat="44.74891" lon="6.5906">
        <ele>1187</ele>
        <time>2022-05-08T19:13:25Z</time>
      </trkpt>
      <trkpt lat="44.74921" lon="6.59097">
        <ele>1194</ele>
        <time>2022-05-08T19:13:34Z</time>
      </trkpt>
      <trkpt lat="44.7493" lon="6.59104">
        <ele>1195</ele>
        <time>2022-05-08T19:13:37Z</time>
      </trkpt>
      <trkpt lat="44.7495" lon="6.59102">
        <ele>1190</ele>
        <time>2022-05-08T19:13:41Z</time>
      </trkpt>
      <trkpt lat="44.74989" lon="6.59112">
        <ele>1186</ele>
        <time>2022-05-08T19:13:51Z</time>
      </trkpt>
      <trkpt lat="44.74999" lon="6.59119">
        <ele>1187</ele>
        <time>2022-05-08T19:13:53Z</time>
      </trkpt>
      <trkpt lat="44.75015" lon="6.59136">
        <ele>1193</ele>
        <time>2022-05-08T19:13:58Z</time>
      </trkpt>
      <trkpt lat="44.75027" lon="6.59158">
        <ele>1200</ele>
        <time>2022-05-08T19:14:03Z</time>
      </trkpt>
      <trkpt lat="44.75043" lon="6.59173">
        <ele>1205</ele>
        <time>2022-05-08T19:14:07Z</time>
      </trkpt>
      <trkpt lat="44.75061" lon="6.59185">
        <ele>1208</ele>
        <time>2022-05-08T19:14:12Z</time>
      </trkpt>
      <trkpt lat="44.75089" lon="6.59195">
        <ele>1210</ele>
        <time>2022-05-08T19:14:18Z</time>
      </trkpt>
      <trkpt lat="44.75129" lon="6.59199">
        <ele>1210</ele>
        <time>2022-05-08T19:14:28Z</time>
      </trkpt>
      <trkpt lat="44.7516" lon="6.5921">
        <ele>1213</ele>
        <time>2022-05-08T19:14:35Z</time>
      </trkpt>
      <trkpt lat="44.7518" lon="6.5921">
        <ele>1211</ele>
        <time>2022-05-08T19:14:40Z</time>
      </trkpt>
      <trkpt lat="44.75188" lon="6.59217">
        <ele>1212</ele>
        <time>2022-05-08T19:14:42Z</time>
      </trkpt>
      <trkpt lat="44.75195" lon="6.59245">
        <ele>1219</ele>
        <time>2022-05-08T19:14:47Z</time>
      </trkpt>
      <trkpt lat="44.75202" lon="6.59256">
        <ele>1221</ele>
        <time>2022-05-08T19:14:49Z</time>
      </trkpt>
      <trkpt lat="44.75221" lon="6.5926">
        <ele>1218</ele>
        <time>2022-05-08T19:14:54Z</time>
      </trkpt>
      <trkpt lat="44.75231" lon="6.59268">
        <ele>1218</ele>
        <time>2022-05-08T19:14:57Z</time>
      </trkpt>
      <trkpt lat="44.75238" lon="6.59279">
        <ele>1220</ele>
        <time>2022-05-08T19:14:59Z</time>
      </trkpt>
      <trkpt lat="44.75241" lon="6.59291">
        <ele>1222</ele>
        <time>2022-05-08T19:15:01Z</time>
      </trkpt>
      <trkpt lat="44.75232" lon="6.59297">
        <ele>1225</ele>
        <time>2022-05-08T19:15:04Z</time>
      </trkpt>
      <trkpt lat="44.75224" lon="6.59291">
        <ele>1225</ele>
        <time>2022-05-08T19:15:06Z</time>
      </trkpt>
      <trkpt lat="44.75218" lon="6.5928">
        <ele>1224</ele>
        <time>2022-05-08T19:15:08Z</time>
      </trkpt>
      <trkpt lat="44.7521" lon="6.59275">
        <ele>1224</ele>
        <time>2022-05-08T19:15:10Z</time>
      </trkpt>
      <trkpt lat="44.75182" lon="6.59295">
        <ele>1235</ele>
        <time>2022-05-08T19:15:17Z</time>
      </trkpt>
      <trkpt lat="44.75186" lon="6.59306">
        <ele>1237</ele>
        <time>2022-05-08T19:15:19Z</time>
      </trkpt>
      <trkpt lat="44.75195" lon="6.59305">
        <ele>1235</ele>
        <time>2022-05-08T19:15:22Z</time>
      </trkpt>
      <trkpt lat="44.75204" lon="6.59308">
        <ele>1234</ele>
        <time>2022-05-08T19:15:24Z</time>
      </trkpt>
      <trkpt lat="44.75211" lon="6.59347">
        <ele>1241</ele>
        <time>2022-05-08T19:15:30Z</time>
      </trkpt>
      <trkpt lat="44.75229" lon="6.59396">
        <ele>1245</ele>
        <time>2022-05-08T19:15:39Z</time>
      </trkpt>
      <trkpt lat="44.75229" lon="6.59409">
        <ele>1248</ele>
        <time>2022-05-08T19:15:42Z</time>
      </trkpt>
      <trkpt lat="44.75222" lon="6.59418">
        <ele>1250</ele>
        <time>2022-05-08T19:15:44Z</time>
      </trkpt>
      <trkpt lat="44.75204" lon="6.59407">
        <ele>1252</ele>
        <time>2022-05-08T19:15:48Z</time>
      </trkpt>
      <trkpt lat="44.75197" lon="6.59415">
        <ele>1254</ele>
        <time>2022-05-08T19:15:51Z</time>
      </trkpt>
      <trkpt lat="44.75201" lon="6.59441">
        <ele>1259</ele>
        <time>2022-05-08T19:15:55Z</time>
      </trkpt>
      <trkpt lat="44.75229" lon="6.59461">
        <ele>1260</ele>
        <time>2022-05-08T19:16:02Z</time>
      </trkpt>
      <trkpt lat="44.75259" lon="6.59468">
        <ele>1258</ele>
        <time>2022-05-08T19:16:09Z</time>
      </trkpt>
      <trkpt lat="44.75277" lon="6.59467">
        <ele>1256</ele>
        <time>2022-05-08T19:16:14Z</time>
      </trkpt>
      <trkpt lat="44.75298" lon="6.59457">
        <ele>1251</ele>
        <time>2022-05-08T19:16:19Z</time>
      </trkpt>
      <trkpt lat="44.7531" lon="6.59455">
        <ele>1249</ele>
        <time>2022-05-08T19:16:22Z</time>
      </trkpt>
      <trkpt lat="44.75318" lon="6.59459">
        <ele>1249</ele>
        <time>2022-05-08T19:16:24Z</time>
      </trkpt>
      <trkpt lat="44.75332" lon="6.59483">
        <ele>1253</ele>
        <time>2022-05-08T19:16:29Z</time>
      </trkpt>
      <trkpt lat="44.75346" lon="6.59501">
        <ele>1256</ele>
        <time>2022-05-08T19:16:33Z</time>
      </trkpt>
      <trkpt lat="44.75341" lon="6.59513">
        <ele>1260</ele>
        <time>2022-05-08T19:16:35Z</time>
      </trkpt>
      <trkpt lat="44.75331" lon="6.59515">
        <ele>1262</ele>
        <time>2022-05-08T19:16:38Z</time>
      </trkpt>
      <trkpt lat="44.75303" lon="6.59497">
        <ele>1260</ele>
        <time>2022-05-08T19:16:45Z</time>
      </trkpt>
      <trkpt lat="44.75283" lon="6.59492">
        <ele>1262</ele>
        <time>2022-05-08T19:16:50Z</time>
      </trkpt>
      <trkpt lat="44.75243" lon="6.59512">
        <ele>1272</ele>
        <time>2022-05-08T19:17:00Z</time>
      </trkpt>
      <trkpt lat="44.75223" lon="6.59519">
        <ele>1276</ele>
        <time>2022-05-08T19:17:04Z</time>
      </trkpt>
      <trkpt lat="44.75204" lon="6.59519">
        <ele>1277</ele>
        <time>2022-05-08T19:17:09Z</time>
      </trkpt>
      <trkpt lat="44.75175" lon="6.59524">
        <ele>1282</ele>
        <time>2022-05-08T19:17:16Z</time>
      </trkpt>
      <trkpt lat="44.75156" lon="6.59534">
        <ele>1289</ele>
        <time>2022-05-08T19:17:20Z</time>
      </trkpt>
      <trkpt lat="44.75135" lon="6.59535">
        <ele>1297</ele>
        <time>2022-05-08T19:17:25Z</time>
      </trkpt>
      <trkpt lat="44.75125" lon="6.59533">
        <ele>1300</ele>
        <time>2022-05-08T19:17:28Z</time>
      </trkpt>
      <trkpt lat="44.75116" lon="6.59538">
        <ele>1304</ele>
        <time>2022-05-08T19:17:30Z</time>
      </trkpt>
      <trkpt lat="44.75119" lon="6.59551">
        <ele>1305</ele>
        <time>2022-05-08T19:17:32Z</time>
      </trkpt>
      <trkpt lat="44.75128" lon="6.59552">
        <ele>1303</ele>
        <time>2022-05-08T19:17:34Z</time>
      </trkpt>
      <trkpt lat="44.75158" lon="6.59546">
        <ele>1292</ele>
        <time>2022-05-08T19:17:41Z</time>
      </trkpt>
      <trkpt lat="44.75187" lon="6.59558">
        <ele>1291</ele>
        <time>2022-05-08T19:17:49Z</time>
      </trkpt>
      <trkpt lat="44.75202" lon="6.59576">
        <ele>1295</ele>
        <time>2022-05-08T19:17:53Z</time>
      </trkpt>
      <trkpt lat="44.75211" lon="6.59583">
        <ele>1296</ele>
        <time>2022-05-08T19:17:56Z</time>
      </trkpt>
      <trkpt lat="44.75237" lon="6.59596">
        <ele>1297</ele>
        <time>2022-05-08T19:18:02Z</time>
      </trkpt>
      <trkpt lat="44.75261" lon="6.59622">
        <ele>1303</ele>
        <time>2022-05-08T19:18:09Z</time>
      </trkpt>
      <trkpt lat="44.75272" lon="6.59629">
        <ele>1303</ele>
        <time>2022-05-08T19:18:12Z</time>
      </trkpt>
      <trkpt lat="44.75282" lon="6.59632">
        <ele>1302</ele>
        <time>2022-05-08T19:18:14Z</time>
      </trkpt>
      <trkpt lat="44.75299" lon="6.59667">
        <ele>1308</ele>
        <time>2022-05-08T19:18:21Z</time>
      </trkpt>
      <trkpt lat="44.75314" lon="6.59683">
        <ele>1309</ele>
        <time>2022-05-08T19:18:26Z</time>
      </trkpt>
      <trkpt lat="44.75324" lon="6.59705">
        <ele>1312</ele>
        <time>2022-05-08T19:18:30Z</time>
      </trkpt>
      <trkpt lat="44.7534" lon="6.59719">
        <ele>1312</ele>
        <time>2022-05-08T19:18:34Z</time>
      </trkpt>
      <trkpt lat="44.7535" lon="6.59722">
        <ele>1310</ele>
        <time>2022-05-08T19:18:37Z</time>
      </trkpt>
      <trkpt lat="44.75359" lon="6.59729">
        <ele>1310</ele>
        <time>2022-05-08T19:18:39Z</time>
      </trkpt>
      <trkpt lat="44.7537" lon="6.59732">
        <ele>1308</ele>
        <time>2022-05-08T19:18:42Z</time>
      </trkpt>
      <trkpt lat="44.75377" lon="6.59742">
        <ele>1309</ele>
        <time>2022-05-08T19:18:44Z</time>
      </trkpt>
      <trkpt lat="44.75381" lon="6.59754">
        <ele>1311</ele>
        <time>2022-05-08T19:18:46Z</time>
      </trkpt>
      <trkpt lat="44.75378" lon="6.59769">
        <ele>1315</ele>
        <time>2022-05-08T19:18:49Z</time>
      </trkpt>
      <trkpt lat="44.75369" lon="6.59777">
        <ele>1319</ele>
        <time>2022-05-08T19:18:51Z</time>
      </trkpt>
      <trkpt lat="44.7536" lon="6.59772">
        <ele>1320</ele>
        <time>2022-05-08T19:18:54Z</time>
      </trkpt>
      <trkpt lat="44.75345" lon="6.59753">
        <ele>1319</ele>
        <time>2022-05-08T19:18:58Z</time>
      </trkpt>
      <trkpt lat="44.75337" lon="6.59748">
        <ele>1320</ele>
        <time>2022-05-08T19:19:00Z</time>
      </trkpt>
      <trkpt lat="44.75318" lon="6.59744">
        <ele>1322</ele>
        <time>2022-05-08T19:19:05Z</time>
      </trkpt>
      <trkpt lat="44.753" lon="6.59737">
        <ele>1324</ele>
        <time>2022-05-08T19:19:09Z</time>
      </trkpt>
      <trkpt lat="44.75275" lon="6.5972">
        <ele>1325</ele>
        <time>2022-05-08T19:19:16Z</time>
      </trkpt>
      <trkpt lat="44.75267" lon="6.59712">
        <ele>1325</ele>
        <time>2022-05-08T19:19:18Z</time>
      </trkpt>
      <trkpt lat="44.7523" lon="6.59705">
        <ele>1329</ele>
        <time>2022-05-08T19:19:27Z</time>
      </trkpt>
      <trkpt lat="44.75187" lon="6.59713">
        <ele>1335</ele>
        <time>2022-05-08T19:19:37Z</time>
      </trkpt>
      <trkpt lat="44.75159" lon="6.5973">
        <ele>1343</ele>
        <time>2022-05-08T19:19:44Z</time>
      </trkpt>
      <trkpt lat="44.75149" lon="6.59733">
        <ele>1345</ele>
        <time>2022-05-08T19:19:46Z</time>
      </trkpt>
      <trkpt lat="44.75129" lon="6.59728">
        <ele>1348</ele>
        <time>2022-05-08T19:19:51Z</time>
      </trkpt>
      <trkpt lat="44.75128" lon="6.59741">
        <ele>1351</ele>
        <time>2022-05-08T19:19:53Z</time>
      </trkpt>
      <trkpt lat="44.75136" lon="6.59749">
        <ele>1351</ele>
        <time>2022-05-08T19:19:56Z</time>
      </trkpt>
      <trkpt lat="44.75145" lon="6.59751">
        <ele>1350</ele>
        <time>2022-05-08T19:19:58Z</time>
      </trkpt>
      <trkpt lat="44.75177" lon="6.59743">
        <ele>1343</ele>
        <time>2022-05-08T19:20:05Z</time>
      </trkpt>
      <trkpt lat="44.75197" lon="6.59744">
        <ele>1341</ele>
        <time>2022-05-08T19:20:10Z</time>
      </trkpt>
      <trkpt lat="44.75211" lon="6.59762">
        <ele>1343</ele>
        <time>2022-05-08T19:20:14Z</time>
      </trkpt>
      <trkpt lat="44.75206" lon="6.59774">
        <ele>1346</ele>
        <time>2022-05-08T19:20:17Z</time>
      </trkpt>
      <trkpt lat="44.75198" lon="6.59781">
        <ele>1349</ele>
        <time>2022-05-08T19:20:19Z</time>
      </trkpt>
      <trkpt lat="44.75193" lon="6.59795">
        <ele>1353</ele>
        <time>2022-05-08T19:20:22Z</time>
      </trkpt>
      <trkpt lat="44.75197" lon="6.59835">
        <ele>1361</ele>
        <time>2022-05-08T19:20:28Z</time>
      </trkpt>
      <trkpt lat="44.75206" lon="6.59861">
        <ele>1365</ele>
        <time>2022-05-08T19:20:33Z</time>
      </trkpt>
      <trkpt lat="44.75226" lon="6.59875">
        <ele>1365</ele>
        <time>2022-05-08T19:20:38Z</time>
      </trkpt>
      <trkpt lat="44.75239" lon="6.59878">
        <ele>1363</ele>
        <time>2022-05-08T19:20:41Z</time>
      </trkpt>
      <trkpt lat="44.75258" lon="6.5989">
        <ele>1362</ele>
        <time>2022-05-08T19:20:46Z</time>
      </trkpt>
      <trkpt lat="44.75273" lon="6.59912">
        <ele>1366</ele>
        <time>2022-05-08T19:20:51Z</time>
      </trkpt>
      <trkpt lat="44.75308" lon="6.59942">
        <ele>1365</ele>
        <time>2022-05-08T19:21:01Z</time>
      </trkpt>
      <trkpt lat="44.75317" lon="6.59947">
        <ele>1365</ele>
        <time>2022-05-08T19:21:03Z</time>
      </trkpt>
      <trkpt lat="44.75319" lon="6.59963">
        <ele>1366</ele>
        <time>2022-05-08T19:21:06Z</time>
      </trkpt>
      <trkpt lat="44.75311" lon="6.59986">
        <ele>1370</ele>
        <time>2022-05-08T19:21:10Z</time>
      </trkpt>
      <trkpt lat="44.75295" lon="6.60005">
        <ele>1375</ele>
        <time>2022-05-08T19:21:15Z</time>
      </trkpt>
      <trkpt lat="44.75277" lon="6.60017">
        <ele>1380</ele>
        <time>2022-05-08T19:21:20Z</time>
      </trkpt>
      <trkpt lat="44.75257" lon="6.60019">
        <ele>1384</ele>
        <time>2022-05-08T19:21:24Z</time>
      </trkpt>
      <trkpt lat="44.75248" lon="6.60016">
        <ele>1386</ele>
        <time>2022-05-08T19:21:26Z</time>
      </trkpt>
      <trkpt lat="44.75228" lon="6.59981">
        <ele>1384</ele>
        <time>2022-05-08T19:21:34Z</time>
      </trkpt>
      <trkpt lat="44.75217" lon="6.59975">
        <ele>1385</ele>
        <time>2022-05-08T19:21:37Z</time>
      </trkpt>
      <trkpt lat="44.75202" lon="6.59958">
        <ele>1385</ele>
        <time>2022-05-08T19:21:41Z</time>
      </trkpt>
      <trkpt lat="44.75181" lon="6.59944">
        <ele>1387</ele>
        <time>2022-05-08T19:21:47Z</time>
      </trkpt>
      <trkpt lat="44.75148" lon="6.59912">
        <ele>1389</ele>
        <time>2022-05-08T19:21:56Z</time>
      </trkpt>
      <trkpt lat="44.75138" lon="6.59914">
        <ele>1392</ele>
        <time>2022-05-08T19:21:58Z</time>
      </trkpt>
      <trkpt lat="44.75135" lon="6.59927">
        <ele>1394</ele>
        <time>2022-05-08T19:22:00Z</time>
      </trkpt>
      <trkpt lat="44.75139" lon="6.5994">
        <ele>1395</ele>
        <time>2022-05-08T19:22:03Z</time>
      </trkpt>
      <trkpt lat="44.75149" lon="6.59949">
        <ele>1394</ele>
        <time>2022-05-08T19:22:06Z</time>
      </trkpt>
      <trkpt lat="44.75163" lon="6.59971">
        <ele>1394</ele>
        <time>2022-05-08T19:22:11Z</time>
      </trkpt>
      <trkpt lat="44.75169" lon="6.59998">
        <ele>1395</ele>
        <time>2022-05-08T19:22:15Z</time>
      </trkpt>
      <trkpt lat="44.75162" lon="6.60027">
        <ele>1400</ele>
        <time>2022-05-08T19:22:20Z</time>
      </trkpt>
      <trkpt lat="44.75157" lon="6.60038">
        <ele>1402</ele>
        <time>2022-05-08T19:22:22Z</time>
      </trkpt>
      <trkpt lat="44.75148" lon="6.60045">
        <ele>1405</ele>
        <time>2022-05-08T19:22:25Z</time>
      </trkpt>
      <trkpt lat="44.75139" lon="6.60042">
        <ele>1406</ele>
        <time>2022-05-08T19:22:27Z</time>
      </trkpt>
      <trkpt lat="44.7513" lon="6.60033">
        <ele>1406</ele>
        <time>2022-05-08T19:22:30Z</time>
      </trkpt>
      <trkpt lat="44.75113" lon="6.60001">
        <ele>1406</ele>
        <time>2022-05-08T19:22:36Z</time>
      </trkpt>
      <trkpt lat="44.75104" lon="6.59996">
        <ele>1407</ele>
        <time>2022-05-08T19:22:38Z</time>
      </trkpt>
      <trkpt lat="44.751" lon="6.59969">
        <ele>1405</ele>
        <time>2022-05-08T19:22:43Z</time>
      </trkpt>
      <trkpt lat="44.75085" lon="6.59949">
        <ele>1406</ele>
        <time>2022-05-08T19:22:48Z</time>
      </trkpt>
      <trkpt lat="44.75081" lon="6.59932">
        <ele>1405</ele>
        <time>2022-05-08T19:22:51Z</time>
      </trkpt>
      <trkpt lat="44.7508" lon="6.59906">
        <ele>1402</ele>
        <time>2022-05-08T19:22:55Z</time>
      </trkpt>
      <trkpt lat="44.75073" lon="6.59877">
        <ele>1398</ele>
        <time>2022-05-08T19:23:00Z</time>
      </trkpt>
      <trkpt lat="44.75049" lon="6.59838">
        <ele>1401</ele>
        <time>2022-05-08T19:23:09Z</time>
      </trkpt>
      <trkpt lat="44.75029" lon="6.59781">
        <ele>1398</ele>
        <time>2022-05-08T19:23:19Z</time>
      </trkpt>
      <trkpt lat="44.7502" lon="6.59767">
        <ele>1400</ele>
        <time>2022-05-08T19:23:22Z</time>
      </trkpt>
      <trkpt lat="44.74986" lon="6.59736">
        <ele>1409</ele>
        <time>2022-05-08T19:23:32Z</time>
      </trkpt>
      <trkpt lat="44.7498" lon="6.59726">
        <ele>1409</ele>
        <time>2022-05-08T19:23:34Z</time>
      </trkpt>
      <trkpt lat="44.7497" lon="6.59682">
        <ele>1403</ele>
        <time>2022-05-08T19:23:42Z</time>
      </trkpt>
      <trkpt lat="44.74941" lon="6.59636">
        <ele>1396</ele>
        <time>2022-05-08T19:23:52Z</time>
      </trkpt>
      <trkpt lat="44.74923" lon="6.59643">
        <ele>1402</ele>
        <time>2022-05-08T19:23:56Z</time>
      </trkpt>
      <trkpt lat="44.74911" lon="6.59645">
        <ele>1407</ele>
        <time>2022-05-08T19:23:59Z</time>
      </trkpt>
      <trkpt lat="44.74901" lon="6.59639">
        <ele>1412</ele>
        <time>2022-05-08T19:24:02Z</time>
      </trkpt>
      <trkpt lat="44.7486" lon="6.59572">
        <ele>1411</ele>
        <time>2022-05-08T19:24:16Z</time>
      </trkpt>
      <trkpt lat="44.74845" lon="6.59533">
        <ele>1403</ele>
        <time>2022-05-08T19:24:24Z</time>
      </trkpt>
      <trkpt lat="44.74838" lon="6.59506">
        <ele>1394</ele>
        <time>2022-05-08T19:24:28Z</time>
      </trkpt>
      <trkpt lat="44.7483" lon="6.59498">
        <ele>1394</ele>
        <time>2022-05-08T19:24:31Z</time>
      </trkpt>
      <trkpt lat="44.7481" lon="6.59502">
        <ele>1397</ele>
        <time>2022-05-08T19:24:35Z</time>
      </trkpt>
      <trkpt lat="44.74758" lon="6.59533">
        <ele>1416</ele>
        <time>2022-05-08T19:24:49Z</time>
      </trkpt>
      <trkpt lat="44.74713" lon="6.59547">
        <ele>1420</ele>
        <time>2022-05-08T19:24:59Z</time>
      </trkpt>
      <trkpt lat="44.74693" lon="6.59551">
        <ele>1421</ele>
        <time>2022-05-08T19:25:04Z</time>
      </trkpt>
      <trkpt lat="44.74673" lon="6.59551">
        <ele>1419</ele>
        <time>2022-05-08T19:25:09Z</time>
      </trkpt>
      <trkpt lat="44.74614" lon="6.59536">
        <ele>1425</ele>
        <time>2022-05-08T19:25:23Z</time>
      </trkpt>
      <trkpt lat="44.74594" lon="6.59528">
        <ele>1426</ele>
        <time>2022-05-08T19:25:28Z</time>
      </trkpt>
      <trkpt lat="44.74577" lon="6.59513">
        <ele>1422</ele>
        <time>2022-05-08T19:25:32Z</time>
      </trkpt>
      <trkpt lat="44.7456" lon="6.59493">
        <ele>1414</ele>
        <time>2022-05-08T19:25:38Z</time>
      </trkpt>
      <trkpt lat="44.7455" lon="6.59492">
        <ele>1414</ele>
        <time>2022-05-08T19:25:40Z</time>
      </trkpt>
      <trkpt lat="44.74521" lon="6.59505">
        <ele>1421</ele>
        <time>2022-05-08T19:25:47Z</time>
      </trkpt>
      <trkpt lat="44.74504" lon="6.59521">
        <ele>1429</ele>
        <time>2022-05-08T19:25:52Z</time>
      </trkpt>
      <trkpt lat="44.74483" lon="6.59547">
        <ele>1438</ele>
        <time>2022-05-08T19:25:58Z</time>
      </trkpt>
      <trkpt lat="44.74436" lon="6.59582">
        <ele>1446</ele>
        <time>2022-05-08T19:26:11Z</time>
      </trkpt>
      <trkpt lat="44.74406" lon="6.59591">
        <ele>1446</ele>
        <time>2022-05-08T19:26:18Z</time>
      </trkpt>
      <trkpt lat="44.74385" lon="6.59592">
        <ele>1445</ele>
        <time>2022-05-08T19:26:23Z</time>
      </trkpt>
      <trkpt lat="44.74333" lon="6.596">
        <ele>1443</ele>
        <time>2022-05-08T19:26:35Z</time>
      </trkpt>
      <trkpt lat="44.74323" lon="6.59606">
        <ele>1446</ele>
        <time>2022-05-08T19:26:38Z</time>
      </trkpt>
      <trkpt lat="44.74298" lon="6.59637">
        <ele>1459</ele>
        <time>2022-05-08T19:26:45Z</time>
      </trkpt>
      <trkpt lat="44.7429" lon="6.59642">
        <ele>1461</ele>
        <time>2022-05-08T19:26:47Z</time>
      </trkpt>
      <trkpt lat="44.74278" lon="6.5964">
        <ele>1458</ele>
        <time>2022-05-08T19:26:50Z</time>
      </trkpt>
      <trkpt lat="44.74267" lon="6.59634">
        <ele>1454</ele>
        <time>2022-05-08T19:26:53Z</time>
      </trkpt>
      <trkpt lat="44.74245" lon="6.59631">
        <ele>1451</ele>
        <time>2022-05-08T19:26:58Z</time>
      </trkpt>
      <trkpt lat="44.74233" lon="6.59635">
        <ele>1453</ele>
        <time>2022-05-08T19:27:01Z</time>
      </trkpt>
      <trkpt lat="44.74215" lon="6.59649">
        <ele>1458</ele>
        <time>2022-05-08T19:27:06Z</time>
      </trkpt>
      <trkpt lat="44.74199" lon="6.59668">
        <ele>1466</ele>
        <time>2022-05-08T19:27:11Z</time>
      </trkpt>
      <trkpt lat="44.74188" lon="6.59673">
        <ele>1468</ele>
        <time>2022-05-08T19:27:13Z</time>
      </trkpt>
      <trkpt lat="44.74148" lon="6.59674">
        <ele>1465</ele>
        <time>2022-05-08T19:27:23Z</time>
      </trkpt>
      <trkpt lat="44.74117" lon="6.59687">
        <ele>1469</ele>
        <time>2022-05-08T19:27:30Z</time>
      </trkpt>
      <trkpt lat="44.74099" lon="6.59703">
        <ele>1475</ele>
        <time>2022-05-08T19:27:35Z</time>
      </trkpt>
      <trkpt lat="44.74077" lon="6.59701">
        <ele>1473</ele>
        <time>2022-05-08T19:27:40Z</time>
      </trkpt>
      <trkpt lat="44.74056" lon="6.59691">
        <ele>1468</ele>
        <time>2022-05-08T19:27:46Z</time>
      </trkpt>
      <trkpt lat="44.74035" lon="6.59686">
        <ele>1465</ele>
        <time>2022-05-08T19:27:51Z</time>
      </trkpt>
      <trkpt lat="44.74024" lon="6.59688">
        <ele>1466</ele>
        <time>2022-05-08T19:27:53Z</time>
      </trkpt>
      <trkpt lat="44.74014" lon="6.59695">
        <ele>1468</ele>
        <time>2022-05-08T19:27:56Z</time>
      </trkpt>
      <trkpt lat="44.74007" lon="6.59704">
        <ele>1471</ele>
        <time>2022-05-08T19:27:58Z</time>
      </trkpt>
      <trkpt lat="44.73996" lon="6.59711">
        <ele>1472</ele>
        <time>2022-05-08T19:28:01Z</time>
      </trkpt>
      <trkpt lat="44.73958" lon="6.59729">
        <ele>1473</ele>
        <time>2022-05-08T19:28:10Z</time>
      </trkpt>
      <trkpt lat="44.73936" lon="6.59723">
        <ele>1468</ele>
        <time>2022-05-08T19:28:15Z</time>
      </trkpt>
      <trkpt lat="44.73926" lon="6.59724">
        <ele>1467</ele>
        <time>2022-05-08T19:28:18Z</time>
      </trkpt>
      <trkpt lat="44.73917" lon="6.59728">
        <ele>1467</ele>
        <time>2022-05-08T19:28:20Z</time>
      </trkpt>
      <trkpt lat="44.739" lon="6.59745">
        <ele>1471</ele>
        <time>2022-05-08T19:28:25Z</time>
      </trkpt>
      <trkpt lat="44.7387" lon="6.59795">
        <ele>1481</ele>
        <time>2022-05-08T19:28:36Z</time>
      </trkpt>
      <trkpt lat="44.7387" lon="6.59808">
        <ele>1485</ele>
        <time>2022-05-08T19:28:38Z</time>
      </trkpt>
      <trkpt lat="44.73901" lon="6.5981">
        <ele>1487</ele>
        <time>2022-05-08T19:28:45Z</time>
      </trkpt>
      <trkpt lat="44.73911" lon="6.59815">
        <ele>1489</ele>
        <time>2022-05-08T19:28:48Z</time>
      </trkpt>
      <trkpt lat="44.73925" lon="6.59834">
        <ele>1495</ele>
        <time>2022-05-08T19:28:52Z</time>
      </trkpt>
      <trkpt lat="44.73917" lon="6.59843">
        <ele>1496</ele>
        <time>2022-05-08T19:28:54Z</time>
      </trkpt>
      <trkpt lat="44.7391" lon="6.59835">
        <ele>1493</ele>
        <time>2022-05-08T19:28:57Z</time>
      </trkpt>
      <trkpt lat="44.73901" lon="6.59831">
        <ele>1492</ele>
        <time>2022-05-08T19:28:59Z</time>
      </trkpt>
      <trkpt lat="44.73892" lon="6.59833">
        <ele>1493</ele>
        <time>2022-05-08T19:29:01Z</time>
      </trkpt>
      <trkpt lat="44.73867" lon="6.59861">
        <ele>1501</ele>
        <time>2022-05-08T19:29:08Z</time>
      </trkpt>
      <trkpt lat="44.73872" lon="6.59872">
        <ele>1504</ele>
        <time>2022-05-08T19:29:11Z</time>
      </trkpt>
      <trkpt lat="44.73883" lon="6.59875">
        <ele>1505</ele>
        <time>2022-05-08T19:29:13Z</time>
      </trkpt>
      <trkpt lat="44.7389" lon="6.59885">
        <ele>1508</ele>
        <time>2022-05-08T19:29:15Z</time>
      </trkpt>
      <trkpt lat="44.7391" lon="6.59891">
        <ele>1509</ele>
        <time>2022-05-08T19:29:20Z</time>
      </trkpt>
      <trkpt lat="44.73919" lon="6.59899">
        <ele>1511</ele>
        <time>2022-05-08T19:29:23Z</time>
      </trkpt>
      <trkpt lat="44.73915" lon="6.59912">
        <ele>1514</ele>
        <time>2022-05-08T19:29:25Z</time>
      </trkpt>
      <trkpt lat="44.73907" lon="6.5992">
        <ele>1517</ele>
        <time>2022-05-08T19:29:27Z</time>
      </trkpt>
      <trkpt lat="44.73885" lon="6.59919">
        <ele>1518</ele>
        <time>2022-05-08T19:29:33Z</time>
      </trkpt>
      <trkpt lat="44.73857" lon="6.599">
        <ele>1514</ele>
        <time>2022-05-08T19:29:40Z</time>
      </trkpt>
      <trkpt lat="44.73849" lon="6.59889">
        <ele>1511</ele>
        <time>2022-05-08T19:29:42Z</time>
      </trkpt>
      <trkpt lat="44.7384" lon="6.59884">
        <ele>1509</ele>
        <time>2022-05-08T19:29:45Z</time>
      </trkpt>
      <trkpt lat="44.7384" lon="6.59898">
        <ele>1514</ele>
        <time>2022-05-08T19:29:47Z</time>
      </trkpt>
      <trkpt lat="44.73856" lon="6.59916">
        <ele>1519</ele>
        <time>2022-05-08T19:29:52Z</time>
      </trkpt>
      <trkpt lat="44.73867" lon="6.59943">
        <ele>1526</ele>
        <time>2022-05-08T19:29:57Z</time>
      </trkpt>
      <trkpt lat="44.73882" lon="6.59964">
        <ele>1531</ele>
        <time>2022-05-08T19:30:02Z</time>
      </trkpt>
      <trkpt lat="44.73914" lon="6.59978">
        <ele>1533</ele>
        <time>2022-05-08T19:30:10Z</time>
      </trkpt>
      <trkpt lat="44.73935" lon="6.5998">
        <ele>1538</ele>
        <time>2022-05-08T19:30:15Z</time>
      </trkpt>
      <trkpt lat="44.73934" lon="6.59994">
        <ele>1541</ele>
        <time>2022-05-08T19:30:17Z</time>
      </trkpt>
      <trkpt lat="44.73868" lon="6.5999">
        <ele>1540</ele>
        <time>2022-05-08T19:30:32Z</time>
      </trkpt>
      <trkpt lat="44.73856" lon="6.59992">
        <ele>1542</ele>
        <time>2022-05-08T19:30:35Z</time>
      </trkpt>
      <trkpt lat="44.73846" lon="6.5999">
        <ele>1542</ele>
        <time>2022-05-08T19:30:38Z</time>
      </trkpt>
      <trkpt lat="44.73833" lon="6.59969">
        <ele>1537</ele>
        <time>2022-05-08T19:30:42Z</time>
      </trkpt>
      <trkpt lat="44.7383" lon="6.59954">
        <ele>1533</ele>
        <time>2022-05-08T19:30:45Z</time>
      </trkpt>
      <trkpt lat="44.73824" lon="6.59942">
        <ele>1531</ele>
        <time>2022-05-08T19:30:47Z</time>
      </trkpt>
      <trkpt lat="44.73815" lon="6.59933">
        <ele>1530</ele>
        <time>2022-05-08T19:30:50Z</time>
      </trkpt>
      <trkpt lat="44.73805" lon="6.59929">
        <ele>1531</ele>
        <time>2022-05-08T19:30:52Z</time>
      </trkpt>
      <trkpt lat="44.73794" lon="6.59929">
        <ele>1533</ele>
        <time>2022-05-08T19:30:55Z</time>
      </trkpt>
      <trkpt lat="44.73791" lon="6.59943">
        <ele>1538</ele>
        <time>2022-05-08T19:30:57Z</time>
      </trkpt>
      <trkpt lat="44.73808" lon="6.59959">
        <ele>1539</ele>
        <time>2022-05-08T19:31:02Z</time>
      </trkpt>
      <trkpt lat="44.73812" lon="6.59973">
        <ele>1543</ele>
        <time>2022-05-08T19:31:04Z</time>
      </trkpt>
      <trkpt lat="44.7381" lon="6.60001">
        <ele>1552</ele>
        <time>2022-05-08T19:31:09Z</time>
      </trkpt>
      <trkpt lat="44.73823" lon="6.60038">
        <ele>1557</ele>
        <time>2022-05-08T19:31:16Z</time>
      </trkpt>
      <trkpt lat="44.73832" lon="6.60045">
        <ele>1557</ele>
        <time>2022-05-08T19:31:18Z</time>
      </trkpt>
      <trkpt lat="44.73853" lon="6.60053">
        <ele>1558</ele>
        <time>2022-05-08T19:31:23Z</time>
      </trkpt>
      <trkpt lat="44.73871" lon="6.60067">
        <ele>1561</ele>
        <time>2022-05-08T19:31:28Z</time>
      </trkpt>
      <trkpt lat="44.7389" lon="6.60072">
        <ele>1561</ele>
        <time>2022-05-08T19:31:33Z</time>
      </trkpt>
      <trkpt lat="44.73885" lon="6.60084">
        <ele>1565</ele>
        <time>2022-05-08T19:31:35Z</time>
      </trkpt>
      <trkpt lat="44.73874" lon="6.60087">
        <ele>1566</ele>
        <time>2022-05-08T19:31:38Z</time>
      </trkpt>
      <trkpt lat="44.73815" lon="6.60082">
        <ele>1568</ele>
        <time>2022-05-08T19:31:51Z</time>
      </trkpt>
      <trkpt lat="44.73796" lon="6.60075">
        <ele>1569</ele>
        <time>2022-05-08T19:31:56Z</time>
      </trkpt>
      <trkpt lat="44.73788" lon="6.60068">
        <ele>1569</ele>
        <time>2022-05-08T19:31:58Z</time>
      </trkpt>
      <trkpt lat="44.7378" lon="6.60038">
        <ele>1565</ele>
        <time>2022-05-08T19:32:04Z</time>
      </trkpt>
      <trkpt lat="44.73771" lon="6.60033">
        <ele>1566</ele>
        <time>2022-05-08T19:32:06Z</time>
      </trkpt>
      <trkpt lat="44.73769" lon="6.60063">
        <ele>1571</ele>
        <time>2022-05-08T19:32:11Z</time>
      </trkpt>
      <trkpt lat="44.73749" lon="6.60133">
        <ele>1576</ele>
        <time>2022-05-08T19:32:23Z</time>
      </trkpt>
      <trkpt lat="44.73735" lon="6.60153">
        <ele>1577</ele>
        <time>2022-05-08T19:32:28Z</time>
      </trkpt>
      <trkpt lat="44.73688" lon="6.60187">
        <ele>1580</ele>
        <time>2022-05-08T19:32:40Z</time>
      </trkpt>
      <trkpt lat="44.73667" lon="6.60216">
        <ele>1579</ele>
        <time>2022-05-08T19:32:47Z</time>
      </trkpt>
      <trkpt lat="44.73656" lon="6.60237">
        <ele>1583</ele>
        <time>2022-05-08T19:32:52Z</time>
      </trkpt>
      <trkpt lat="44.73651" lon="6.60253">
        <ele>1585</ele>
        <time>2022-05-08T19:32:54Z</time>
      </trkpt>
      <trkpt lat="44.73634" lon="6.60278">
        <ele>1593</ele>
        <time>2022-05-08T19:33:00Z</time>
      </trkpt>
      <trkpt lat="44.73622" lon="6.60318">
        <ele>1597</ele>
        <time>2022-05-08T19:33:07Z</time>
      </trkpt>
      <trkpt lat="44.7362" lon="6.60361">
        <ele>1597</ele>
        <time>2022-05-08T19:33:15Z</time>
      </trkpt>
      <trkpt lat="44.73614" lon="6.60387">
        <ele>1597</ele>
        <time>2022-05-08T19:33:19Z</time>
      </trkpt>
      <trkpt lat="44.73603" lon="6.60411">
        <ele>1598</ele>
        <time>2022-05-08T19:33:24Z</time>
      </trkpt>
      <trkpt lat="44.73586" lon="6.60429">
        <ele>1600</ele>
        <time>2022-05-08T19:33:29Z</time>
      </trkpt>
      <trkpt lat="44.73574" lon="6.6045">
        <ele>1602</ele>
        <time>2022-05-08T19:33:33Z</time>
      </trkpt>
      <trkpt lat="44.73572" lon="6.60462">
        <ele>1602</ele>
        <time>2022-05-08T19:33:35Z</time>
      </trkpt>
      <trkpt lat="44.73574" lon="6.60493">
        <ele>1599</ele>
        <time>2022-05-08T19:33:40Z</time>
      </trkpt>
      <trkpt lat="44.7357" lon="6.60535">
        <ele>1602</ele>
        <time>2022-05-08T19:33:48Z</time>
      </trkpt>
      <trkpt lat="44.7356" lon="6.60558">
        <ele>1603</ele>
        <time>2022-05-08T19:33:52Z</time>
      </trkpt>
      <trkpt lat="44.73545" lon="6.60573">
        <ele>1603</ele>
        <time>2022-05-08T19:33:56Z</time>
      </trkpt>
      <trkpt lat="44.73545" lon="6.60588">
        <ele>1603</ele>
        <time>2022-05-08T19:33:59Z</time>
      </trkpt>
      <trkpt lat="44.73553" lon="6.60596">
        <ele>1604</ele>
        <time>2022-05-08T19:34:01Z</time>
      </trkpt>
      <trkpt lat="44.73562" lon="6.606">
        <ele>1606</ele>
        <time>2022-05-08T19:34:03Z</time>
      </trkpt>
      <trkpt lat="44.73573" lon="6.606">
        <ele>1607</ele>
        <time>2022-05-08T19:34:06Z</time>
      </trkpt>
      <trkpt lat="44.73613" lon="6.6059">
        <ele>1611</ele>
        <time>2022-05-08T19:34:15Z</time>
      </trkpt>
      <trkpt lat="44.73622" lon="6.6059">
        <ele>1612</ele>
        <time>2022-05-08T19:34:17Z</time>
      </trkpt>
      <trkpt lat="44.73644" lon="6.60598">
        <ele>1616</ele>
        <time>2022-05-08T19:34:23Z</time>
      </trkpt>
      <trkpt lat="44.73686" lon="6.60591">
        <ele>1619</ele>
        <time>2022-05-08T19:34:33Z</time>
      </trkpt>
      <trkpt lat="44.73738" lon="6.60598">
        <ele>1626</ele>
        <time>2022-05-08T19:34:45Z</time>
      </trkpt>
      <trkpt lat="44.73759" lon="6.60595">
        <ele>1628</ele>
        <time>2022-05-08T19:34:50Z</time>
      </trkpt>
      <trkpt lat="44.73768" lon="6.60591">
        <ele>1628</ele>
        <time>2022-05-08T19:34:52Z</time>
      </trkpt>
      <trkpt lat="44.73798" lon="6.6059">
        <ele>1634</ele>
        <time>2022-05-08T19:34:59Z</time>
      </trkpt>
      <trkpt lat="44.73819" lon="6.60586">
        <ele>1636</ele>
        <time>2022-05-08T19:35:04Z</time>
      </trkpt>
      <trkpt lat="44.73872" lon="6.60566">
        <ele>1642</ele>
        <time>2022-05-08T19:35:17Z</time>
      </trkpt>
      <trkpt lat="44.73889" lon="6.60551">
        <ele>1642</ele>
        <time>2022-05-08T19:35:21Z</time>
      </trkpt>
      <trkpt lat="44.73909" lon="6.60521">
        <ele>1639</ele>
        <time>2022-05-08T19:35:28Z</time>
      </trkpt>
      <trkpt lat="44.73922" lon="6.60483">
        <ele>1635</ele>
        <time>2022-05-08T19:35:35Z</time>
      </trkpt>
      <trkpt lat="44.73939" lon="6.60466">
        <ele>1636</ele>
        <time>2022-05-08T19:35:40Z</time>
      </trkpt>
      <trkpt lat="44.73949" lon="6.60461">
        <ele>1637</ele>
        <time>2022-05-08T19:35:43Z</time>
      </trkpt>
      <trkpt lat="44.73969" lon="6.60468">
        <ele>1642</ele>
        <time>2022-05-08T19:35:47Z</time>
      </trkpt>
      <trkpt lat="44.73989" lon="6.6047">
        <ele>1646</ele>
        <time>2022-05-08T19:35:52Z</time>
      </trkpt>
      <trkpt lat="44.73999" lon="6.60468">
        <ele>1648</ele>
        <time>2022-05-08T19:35:54Z</time>
      </trkpt>
      <trkpt lat="44.74009" lon="6.60462">
        <ele>1649</ele>
        <time>2022-05-08T19:35:57Z</time>
      </trkpt>
      <trkpt lat="44.74015" lon="6.60451">
        <ele>1649</ele>
        <time>2022-05-08T19:35:59Z</time>
      </trkpt>
      <trkpt lat="44.74017" lon="6.60437">
        <ele>1647</ele>
        <time>2022-05-08T19:36:02Z</time>
      </trkpt>
      <trkpt lat="44.74011" lon="6.60411">
        <ele>1642</ele>
        <time>2022-05-08T19:36:06Z</time>
      </trkpt>
      <trkpt lat="44.74017" lon="6.60399">
        <ele>1641</ele>
        <time>2022-05-08T19:36:09Z</time>
      </trkpt>
      <trkpt lat="44.74026" lon="6.60404">
        <ele>1644</ele>
        <time>2022-05-08T19:36:11Z</time>
      </trkpt>
      <trkpt lat="44.7403" lon="6.60415">
        <ele>1647</ele>
        <time>2022-05-08T19:36:13Z</time>
      </trkpt>
      <trkpt lat="44.74027" lon="6.60431">
        <ele>1649</ele>
        <time>2022-05-08T19:36:16Z</time>
      </trkpt>
      <trkpt lat="44.74034" lon="6.60498">
        <ele>1659</ele>
        <time>2022-05-08T19:36:27Z</time>
      </trkpt>
      <trkpt lat="44.74029" lon="6.60513">
        <ele>1662</ele>
        <time>2022-05-08T19:36:30Z</time>
      </trkpt>
      <trkpt lat="44.74019" lon="6.60521">
        <ele>1663</ele>
        <time>2022-05-08T19:36:32Z</time>
      </trkpt>
      <trkpt lat="44.73988" lon="6.60532">
        <ele>1660</ele>
        <time>2022-05-08T19:36:40Z</time>
      </trkpt>
      <trkpt lat="44.73979" lon="6.60538">
        <ele>1660</ele>
        <time>2022-05-08T19:36:42Z</time>
      </trkpt>
      <trkpt lat="44.73977" lon="6.60551">
        <ele>1663</ele>
        <time>2022-05-08T19:36:44Z</time>
      </trkpt>
      <trkpt lat="44.73988" lon="6.60554">
        <ele>1666</ele>
        <time>2022-05-08T19:36:47Z</time>
      </trkpt>
      <trkpt lat="44.74028" lon="6.60549">
        <ele>1673</ele>
        <time>2022-05-08T19:36:56Z</time>
      </trkpt>
      <trkpt lat="44.74047" lon="6.60542">
        <ele>1674</ele>
        <time>2022-05-08T19:37:01Z</time>
      </trkpt>
      <trkpt lat="44.74069" lon="6.6054">
        <ele>1677</ele>
        <time>2022-05-08T19:37:06Z</time>
      </trkpt>
      <trkpt lat="44.74099" lon="6.60531">
        <ele>1680</ele>
        <time>2022-05-08T19:37:13Z</time>
      </trkpt>
      <trkpt lat="44.74119" lon="6.60529">
        <ele>1684</ele>
        <time>2022-05-08T19:37:18Z</time>
      </trkpt>
      <trkpt lat="44.74157" lon="6.6052">
        <ele>1688</ele>
        <time>2022-05-08T19:37:27Z</time>
      </trkpt>
      <trkpt lat="44.74211" lon="6.60488">
        <ele>1687</ele>
        <time>2022-05-08T19:37:41Z</time>
      </trkpt>
      <trkpt lat="44.74247" lon="6.60474">
        <ele>1690</ele>
        <time>2022-05-08T19:37:49Z</time>
      </trkpt>
      <trkpt lat="44.74257" lon="6.60473">
        <ele>1690</ele>
        <time>2022-05-08T19:37:52Z</time>
      </trkpt>
      <trkpt lat="44.74303" lon="6.60485">
        <ele>1696</ele>
        <time>2022-05-08T19:38:03Z</time>
      </trkpt>
      <trkpt lat="44.74312" lon="6.6049">
        <ele>1698</ele>
        <time>2022-05-08T19:38:05Z</time>
      </trkpt>
      <trkpt lat="44.74334" lon="6.60492">
        <ele>1699</ele>
        <time>2022-05-08T19:38:10Z</time>
      </trkpt>
      <trkpt lat="44.74354" lon="6.60489">
        <ele>1699</ele>
        <time>2022-05-08T19:38:15Z</time>
      </trkpt>
      <trkpt lat="44.74365" lon="6.60491">
        <ele>1700</ele>
        <time>2022-05-08T19:38:17Z</time>
      </trkpt>
      <trkpt lat="44.74415" lon="6.60521">
        <ele>1705</ele>
        <time>2022-05-08T19:38:30Z</time>
      </trkpt>
      <trkpt lat="44.74437" lon="6.60531">
        <ele>1708</ele>
        <time>2022-05-08T19:38:35Z</time>
      </trkpt>
      <trkpt lat="44.74455" lon="6.60547">
        <ele>1710</ele>
        <time>2022-05-08T19:38:40Z</time>
      </trkpt>
      <trkpt lat="44.74499" lon="6.60605">
        <ele>1705</ele>
        <time>2022-05-08T19:38:54Z</time>
      </trkpt>
      <trkpt lat="44.74502" lon="6.60619">
        <ele>1705</ele>
        <time>2022-05-08T19:38:57Z</time>
      </trkpt>
      <trkpt lat="44.745" lon="6.60631">
        <ele>1704</ele>
        <time>2022-05-08T19:38:59Z</time>
      </trkpt>
      <trkpt lat="44.74492" lon="6.60642">
        <ele>1705</ele>
        <time>2022-05-08T19:39:01Z</time>
      </trkpt>
      <trkpt lat="44.74473" lon="6.60659">
        <ele>1708</ele>
        <time>2022-05-08T19:39:07Z</time>
      </trkpt>
      <trkpt lat="44.74464" lon="6.60671">
        <ele>1709</ele>
        <time>2022-05-08T19:39:10Z</time>
      </trkpt>
      <trkpt lat="44.74458" lon="6.60704">
        <ele>1709</ele>
        <time>2022-05-08T19:39:15Z</time>
      </trkpt>
      <trkpt lat="44.74455" lon="6.60782">
        <ele>1709</ele>
        <time>2022-05-08T19:39:28Z</time>
      </trkpt>
      <trkpt lat="44.74451" lon="6.60798">
        <ele>1710</ele>
        <time>2022-05-08T19:39:31Z</time>
      </trkpt>
      <trkpt lat="44.74407" lon="6.60839">
        <ele>1717</ele>
        <time>2022-05-08T19:39:43Z</time>
      </trkpt>
      <trkpt lat="44.74375" lon="6.60857">
        <ele>1720</ele>
        <time>2022-05-08T19:39:51Z</time>
      </trkpt>
      <trkpt lat="44.74362" lon="6.60863">
        <ele>1721</ele>
        <time>2022-05-08T19:39:55Z</time>
      </trkpt>
      <trkpt lat="44.74307" lon="6.60872">
        <ele>1721</ele>
        <time>2022-05-08T19:40:08Z</time>
      </trkpt>
      <trkpt lat="44.74297" lon="6.60876">
        <ele>1720</ele>
        <time>2022-05-08T19:40:10Z</time>
      </trkpt>
      <trkpt lat="44.74277" lon="6.6089">
        <ele>1718</ele>
        <time>2022-05-08T19:40:15Z</time>
      </trkpt>
      <trkpt lat="44.7426" lon="6.60906">
        <ele>1716</ele>
        <time>2022-05-08T19:40:20Z</time>
      </trkpt>
      <trkpt lat="44.74243" lon="6.60914">
        <ele>1715</ele>
        <time>2022-05-08T19:40:24Z</time>
      </trkpt>
      <trkpt lat="44.74201" lon="6.60888">
        <ele>1716</ele>
        <time>2022-05-08T19:40:35Z</time>
      </trkpt>
      <trkpt lat="44.74186" lon="6.60871">
        <ele>1715</ele>
        <time>2022-05-08T19:40:39Z</time>
      </trkpt>
      <trkpt lat="44.74165" lon="6.60856">
        <ele>1713</ele>
        <time>2022-05-08T19:40:45Z</time>
      </trkpt>
      <trkpt lat="44.74094" lon="6.6082">
        <ele>1714</ele>
        <time>2022-05-08T19:41:02Z</time>
      </trkpt>
      <trkpt lat="44.74074" lon="6.60797">
        <ele>1713</ele>
        <time>2022-05-08T19:41:09Z</time>
      </trkpt>
      <trkpt lat="44.74046" lon="6.60771">
        <ele>1712</ele>
        <time>2022-05-08T19:41:16Z</time>
      </trkpt>
      <trkpt lat="44.74036" lon="6.60767">
        <ele>1712</ele>
        <time>2022-05-08T19:41:19Z</time>
      </trkpt>
      <trkpt lat="44.73988" lon="6.60763">
        <ele>1711</ele>
        <time>2022-05-08T19:41:30Z</time>
      </trkpt>
      <trkpt lat="44.73976" lon="6.60764">
        <ele>1710</ele>
        <time>2022-05-08T19:41:33Z</time>
      </trkpt>
      <trkpt lat="44.73962" lon="6.6077">
        <ele>1709</ele>
        <time>2022-05-08T19:41:36Z</time>
      </trkpt>
      <trkpt lat="44.7395" lon="6.60772">
        <ele>1707</ele>
        <time>2022-05-08T19:41:39Z</time>
      </trkpt>
      <trkpt lat="44.73918" lon="6.60789">
        <ele>1704</ele>
        <time>2022-05-08T19:41:47Z</time>
      </trkpt>
      <trkpt lat="44.73883" lon="6.60796">
        <ele>1696</ele>
        <time>2022-05-08T19:41:55Z</time>
      </trkpt>
      <trkpt lat="44.73856" lon="6.60821">
        <ele>1692</ele>
        <time>2022-05-08T19:42:03Z</time>
      </trkpt>
      <trkpt lat="44.73851" lon="6.60833">
        <ele>1691</ele>
        <time>2022-05-08T19:42:05Z</time>
      </trkpt>
      <trkpt lat="44.7384" lon="6.60844">
        <ele>1689</ele>
        <time>2022-05-08T19:42:08Z</time>
      </trkpt>
      <trkpt lat="44.73828" lon="6.60844">
        <ele>1686</ele>
        <time>2022-05-08T19:42:11Z</time>
      </trkpt>
      <trkpt lat="44.73807" lon="6.60855">
        <ele>1682</ele>
        <time>2022-05-08T19:42:16Z</time>
      </trkpt>
      <trkpt lat="44.73799" lon="6.60866">
        <ele>1679</ele>
        <time>2022-05-08T19:42:19Z</time>
      </trkpt>
      <trkpt lat="44.73794" lon="6.60881">
        <ele>1677</ele>
        <time>2022-05-08T19:42:22Z</time>
      </trkpt>
      <trkpt lat="44.73792" lon="6.60898">
        <ele>1674</ele>
        <time>2022-05-08T19:42:25Z</time>
      </trkpt>
      <trkpt lat="44.73814" lon="6.60963">
        <ele>1674</ele>
        <time>2022-05-08T19:42:36Z</time>
      </trkpt>
      <trkpt lat="44.73827" lon="6.61055">
        <ele>1665</ele>
        <time>2022-05-08T19:42:52Z</time>
      </trkpt>
      <trkpt lat="44.73822" lon="6.61153">
        <ele>1648</ele>
        <time>2022-05-08T19:43:08Z</time>
      </trkpt>
      <trkpt lat="44.73825" lon="6.61178">
        <ele>1646</ele>
        <time>2022-05-08T19:43:13Z</time>
      </trkpt>
      <trkpt lat="44.73837" lon="6.6123">
        <ele>1641</ele>
        <time>2022-05-08T19:43:22Z</time>
      </trkpt>
      <trkpt lat="44.7386" lon="6.61297">
        <ele>1639</ele>
        <time>2022-05-08T19:43:34Z</time>
      </trkpt>
      <trkpt lat="44.73862" lon="6.61315">
        <ele>1636</ele>
        <time>2022-05-08T19:43:37Z</time>
      </trkpt>
      <trkpt lat="44.7387" lon="6.61326">
        <ele>1637</ele>
        <time>2022-05-08T19:43:40Z</time>
      </trkpt>
      <trkpt lat="44.73874" lon="6.61339">
        <ele>1637</ele>
        <time>2022-05-08T19:43:42Z</time>
      </trkpt>
      <trkpt lat="44.73871" lon="6.61353">
        <ele>1633</ele>
        <time>2022-05-08T19:43:44Z</time>
      </trkpt>
      <trkpt lat="44.73875" lon="6.61365">
        <ele>1634</ele>
        <time>2022-05-08T19:43:47Z</time>
      </trkpt>
      <trkpt lat="44.73887" lon="6.61385">
        <ele>1638</ele>
        <time>2022-05-08T19:43:51Z</time>
      </trkpt>
      <trkpt lat="44.7389" lon="6.61398">
        <ele>1638</ele>
        <time>2022-05-08T19:43:53Z</time>
      </trkpt>
      <trkpt lat="44.73885" lon="6.61414">
        <ele>1633</ele>
        <time>2022-05-08T19:43:56Z</time>
      </trkpt>
      <trkpt lat="44.73892" lon="6.61443">
        <ele>1632</ele>
        <time>2022-05-08T19:44:01Z</time>
      </trkpt>
      <trkpt lat="44.73924" lon="6.61531">
        <ele>1635</ele>
        <time>2022-05-08T19:44:18Z</time>
      </trkpt>
      <trkpt lat="44.73948" lon="6.61565">
        <ele>1638</ele>
        <time>2022-05-08T19:44:26Z</time>
      </trkpt>
      <trkpt lat="44.73969" lon="6.61604">
        <ele>1639</ele>
        <time>2022-05-08T19:44:34Z</time>
      </trkpt>
      <trkpt lat="44.7398" lon="6.61614">
        <ele>1643</ele>
        <time>2022-05-08T19:44:37Z</time>
      </trkpt>
      <trkpt lat="44.73991" lon="6.61619">
        <ele>1648</ele>
        <time>2022-05-08T19:44:39Z</time>
      </trkpt>
      <trkpt lat="44.74" lon="6.61631">
        <ele>1650</ele>
        <time>2022-05-08T19:44:42Z</time>
      </trkpt>
      <trkpt lat="44.74005" lon="6.61643">
        <ele>1651</ele>
        <time>2022-05-08T19:44:45Z</time>
      </trkpt>
      <trkpt lat="44.74002" lon="6.6166">
        <ele>1645</ele>
        <time>2022-05-08T19:44:47Z</time>
      </trkpt>
      <trkpt lat="44.73996" lon="6.61675">
        <ele>1640</ele>
        <time>2022-05-08T19:44:50Z</time>
      </trkpt>
      <trkpt lat="44.73987" lon="6.61724">
        <ele>1637</ele>
        <time>2022-05-08T19:44:59Z</time>
      </trkpt>
      <trkpt lat="44.73974" lon="6.61753">
        <ele>1631</ele>
        <time>2022-05-08T19:45:04Z</time>
      </trkpt>
      <trkpt lat="44.73955" lon="6.61786">
        <ele>1628</ele>
        <time>2022-05-08T19:45:11Z</time>
      </trkpt>
      <trkpt lat="44.73939" lon="6.61824">
        <ele>1628</ele>
        <time>2022-05-08T19:45:19Z</time>
      </trkpt>
      <trkpt lat="44.73934" lon="6.61842">
        <ele>1628</ele>
        <time>2022-05-08T19:45:22Z</time>
      </trkpt>
      <trkpt lat="44.73928" lon="6.61885">
        <ele>1627</ele>
        <time>2022-05-08T19:45:29Z</time>
      </trkpt>
      <trkpt lat="44.73926" lon="6.6195">
        <ele>1629</ele>
        <time>2022-05-08T19:45:40Z</time>
      </trkpt>
      <trkpt lat="44.73913" lon="6.62022">
        <ele>1624</ele>
        <time>2022-05-08T19:45:52Z</time>
      </trkpt>
      <trkpt lat="44.73912" lon="6.62039">
        <ele>1624</ele>
        <time>2022-05-08T19:45:55Z</time>
      </trkpt>
      <trkpt lat="44.73903" lon="6.62064">
        <ele>1621</ele>
        <time>2022-05-08T19:46:00Z</time>
      </trkpt>
      <trkpt lat="44.73898" lon="6.62126">
        <ele>1622</ele>
        <time>2022-05-08T19:46:10Z</time>
      </trkpt>
      <trkpt lat="44.73883" lon="6.62184">
        <ele>1618</ele>
        <time>2022-05-08T19:46:20Z</time>
      </trkpt>
      <trkpt lat="44.7388" lon="6.62231">
        <ele>1619</ele>
        <time>2022-05-08T19:46:28Z</time>
      </trkpt>
      <trkpt lat="44.73885" lon="6.62274">
        <ele>1621</ele>
        <time>2022-05-08T19:46:36Z</time>
      </trkpt>
      <trkpt lat="44.73903" lon="6.62343">
        <ele>1623</ele>
        <time>2022-05-08T19:46:48Z</time>
      </trkpt>
      <trkpt lat="44.73903" lon="6.62362">
        <ele>1620</ele>
        <time>2022-05-08T19:46:51Z</time>
      </trkpt>
      <trkpt lat="44.73907" lon="6.62379">
        <ele>1619</ele>
        <time>2022-05-08T19:46:54Z</time>
      </trkpt>
      <trkpt lat="44.73914" lon="6.62391">
        <ele>1620</ele>
        <time>2022-05-08T19:46:56Z</time>
      </trkpt>
      <trkpt lat="44.73924" lon="6.62399">
        <ele>1622</ele>
        <time>2022-05-08T19:46:59Z</time>
      </trkpt>
      <trkpt lat="44.73942" lon="6.62424">
        <ele>1626</ele>
        <time>2022-05-08T19:47:05Z</time>
      </trkpt>
      <trkpt lat="44.73952" lon="6.62432">
        <ele>1630</ele>
        <time>2022-05-08T19:47:08Z</time>
      </trkpt>
      <trkpt lat="44.73974" lon="6.62439">
        <ele>1639</ele>
        <time>2022-05-08T19:47:13Z</time>
      </trkpt>
      <trkpt lat="44.73981" lon="6.62448">
        <ele>1642</ele>
        <time>2022-05-08T19:47:15Z</time>
      </trkpt>
      <trkpt lat="44.73977" lon="6.62461">
        <ele>1640</ele>
        <time>2022-05-08T19:47:18Z</time>
      </trkpt>
      <trkpt lat="44.73959" lon="6.62484">
        <ele>1632</ele>
        <time>2022-05-08T19:47:23Z</time>
      </trkpt>
      <trkpt lat="44.73956" lon="6.62501">
        <ele>1630</ele>
        <time>2022-05-08T19:47:26Z</time>
      </trkpt>
      <trkpt lat="44.73955" lon="6.62537">
        <ele>1630</ele>
        <time>2022-05-08T19:47:32Z</time>
      </trkpt>
      <trkpt lat="44.73946" lon="6.62591">
        <ele>1626</ele>
        <time>2022-05-08T19:47:41Z</time>
      </trkpt>
      <trkpt lat="44.73945" lon="6.62636">
        <ele>1626</ele>
        <time>2022-05-08T19:47:49Z</time>
      </trkpt>
      <trkpt lat="44.73921" lon="6.62629">
        <ele>1613</ele>
        <time>2022-05-08T19:47:54Z</time>
      </trkpt>
      <trkpt lat="44.73891" lon="6.62533">
        <ele>1602</ele>
        <time>2022-05-08T19:48:12Z</time>
      </trkpt>
      <trkpt lat="44.73906" lon="6.62475">
        <ele>1610</ele>
        <time>2022-05-08T19:48:22Z</time>
      </trkpt>
      <trkpt lat="44.73883" lon="6.6242">
        <ele>1603</ele>
        <time>2022-05-08T19:48:33Z</time>
      </trkpt>
      <trkpt lat="44.7385" lon="6.62374">
        <ele>1594</ele>
        <time>2022-05-08T19:48:44Z</time>
      </trkpt>
      <trkpt lat="44.73832" lon="6.62311">
        <ele>1591</ele>
        <time>2022-05-08T19:48:55Z</time>
      </trkpt>
      <trkpt lat="44.73797" lon="6.62205">
        <ele>1576</ele>
        <time>2022-05-08T19:49:14Z</time>
      </trkpt>
      <trkpt lat="44.73819" lon="6.62126">
        <ele>1583</ele>
        <time>2022-05-08T19:49:28Z</time>
      </trkpt>
      <trkpt lat="44.73807" lon="6.62107">
        <ele>1576</ele>
        <time>2022-05-08T19:49:32Z</time>
      </trkpt>
      <trkpt lat="44.73791" lon="6.62128">
        <ele>1569</ele>
        <time>2022-05-08T19:49:38Z</time>
      </trkpt>
      <trkpt lat="44.73784" lon="6.62182">
        <ele>1569</ele>
        <time>2022-05-08T19:49:47Z</time>
      </trkpt>
      <trkpt lat="44.7377" lon="6.62225">
        <ele>1564</ele>
        <time>2022-05-08T19:49:55Z</time>
      </trkpt>
      <trkpt lat="44.73767" lon="6.6226">
        <ele>1563</ele>
        <time>2022-05-08T19:50:00Z</time>
      </trkpt>
      <trkpt lat="44.73769" lon="6.62324">
        <ele>1565</ele>
        <time>2022-05-08T19:50:11Z</time>
      </trkpt>
      <trkpt lat="44.73754" lon="6.62362">
        <ele>1560</ele>
        <time>2022-05-08T19:50:18Z</time>
      </trkpt>
      <trkpt lat="44.73733" lon="6.62382">
        <ele>1562</ele>
        <time>2022-05-08T19:50:24Z</time>
      </trkpt>
      <trkpt lat="44.7372" lon="6.62342">
        <ele>1561</ele>
        <time>2022-05-08T19:50:31Z</time>
      </trkpt>
      <trkpt lat="44.73732" lon="6.62277">
        <ele>1555</ele>
        <time>2022-05-08T19:50:43Z</time>
      </trkpt>
      <trkpt lat="44.73698" lon="6.62257">
        <ele>1552</ele>
        <time>2022-05-08T19:50:51Z</time>
      </trkpt>
      <trkpt lat="44.7367" lon="6.62226">
        <ele>1546</ele>
        <time>2022-05-08T19:51:00Z</time>
      </trkpt>
      <trkpt lat="44.73655" lon="6.6217">
        <ele>1545</ele>
        <time>2022-05-08T19:51:09Z</time>
      </trkpt>
      <trkpt lat="44.73636" lon="6.62118">
        <ele>1547</ele>
        <time>2022-05-08T19:51:19Z</time>
      </trkpt>
      <trkpt lat="44.73619" lon="6.6208">
        <ele>1548</ele>
        <time>2022-05-08T19:51:27Z</time>
      </trkpt>
      <trkpt lat="44.73618" lon="6.62031">
        <ele>1543</ele>
        <time>2022-05-08T19:51:35Z</time>
      </trkpt>
      <trkpt lat="44.7363" lon="6.61966">
        <ele>1531</ele>
        <time>2022-05-08T19:51:46Z</time>
      </trkpt>
      <trkpt lat="44.73577" lon="6.61883">
        <ele>1541</ele>
        <time>2022-05-08T19:52:04Z</time>
      </trkpt>
      <trkpt lat="44.73549" lon="6.61817">
        <ele>1547</ele>
        <time>2022-05-08T19:52:17Z</time>
      </trkpt>
      <trkpt lat="44.73516" lon="6.61775">
        <ele>1556</ele>
        <time>2022-05-08T19:52:28Z</time>
      </trkpt>
      <trkpt lat="44.73489" lon="6.61703">
        <ele>1547</ele>
        <time>2022-05-08T19:52:41Z</time>
      </trkpt>
      <trkpt lat="44.73464" lon="6.61663">
        <ele>1543</ele>
        <time>2022-05-08T19:52:50Z</time>
      </trkpt>
      <trkpt lat="44.73436" lon="6.61633">
        <ele>1546</ele>
        <time>2022-05-08T19:52:58Z</time>
      </trkpt>
      <trkpt lat="44.73379" lon="6.61644">
        <ele>1554</ele>
        <time>2022-05-08T19:53:12Z</time>
      </trkpt>
      <trkpt lat="44.73312" lon="6.61669">
        <ele>1557</ele>
        <time>2022-05-08T19:53:28Z</time>
      </trkpt>
      <trkpt lat="44.7323" lon="6.61694">
        <ele>1562</ele>
        <time>2022-05-08T19:53:47Z</time>
      </trkpt>
      <trkpt lat="44.73176" lon="6.61721">
        <ele>1565</ele>
        <time>2022-05-08T19:54:01Z</time>
      </trkpt>
      <trkpt lat="44.73127" lon="6.6175">
        <ele>1569</ele>
        <time>2022-05-08T19:54:13Z</time>
      </trkpt>
      <trkpt lat="44.73081" lon="6.6179">
        <ele>1574</ele>
        <time>2022-05-08T19:54:26Z</time>
      </trkpt>
      <trkpt lat="44.73056" lon="6.61834">
        <ele>1585</ele>
        <time>2022-05-08T19:54:35Z</time>
      </trkpt>
      <trkpt lat="44.73016" lon="6.61853">
        <ele>1588</ele>
        <time>2022-05-08T19:54:45Z</time>
      </trkpt>
      <trkpt lat="44.72962" lon="6.61849">
        <ele>1585</ele>
        <time>2022-05-08T19:54:58Z</time>
      </trkpt>
      <trkpt lat="44.72871" lon="6.61864">
        <ele>1595</ele>
        <time>2022-05-08T19:55:19Z</time>
      </trkpt>
      <trkpt lat="44.72828" lon="6.61882">
        <ele>1608</ele>
        <time>2022-05-08T19:55:29Z</time>
      </trkpt>
      <trkpt lat="44.72799" lon="6.61898">
        <ele>1618</ele>
        <time>2022-05-08T19:55:37Z</time>
      </trkpt>
      <trkpt lat="44.72748" lon="6.6189">
        <ele>1617</ele>
        <time>2022-05-08T19:55:49Z</time>
      </trkpt>
      <trkpt lat="44.72704" lon="6.61895">
        <ele>1625</ele>
        <time>2022-05-08T19:55:59Z</time>
      </trkpt>
      <trkpt lat="44.72618" lon="6.61881">
        <ele>1634</ele>
        <time>2022-05-08T19:56:19Z</time>
      </trkpt>
      <trkpt lat="44.72577" lon="6.61838">
        <ele>1622</ele>
        <time>2022-05-08T19:56:31Z</time>
      </trkpt>
      <trkpt lat="44.72542" lon="6.6182">
        <ele>1617</ele>
        <time>2022-05-08T19:56:40Z</time>
      </trkpt>
      <trkpt lat="44.72442" lon="6.61804">
        <ele>1612</ele>
        <time>2022-05-08T19:57:03Z</time>
      </trkpt>
      <trkpt lat="44.72438" lon="6.61811">
        <ele>1613</ele>
        <time>2022-05-08T19:57:05Z</time>
      </trkpt>
      <trkpt lat="44.72424" lon="6.61815">
        <ele>1613</ele>
        <time>2022-05-08T19:57:08Z</time>
      </trkpt>
      <trkpt lat="44.72413" lon="6.61822">
        <ele>1614</ele>
        <time>2022-05-08T19:57:11Z</time>
      </trkpt>
      <trkpt lat="44.72406" lon="6.61834">
        <ele>1616</ele>
        <time>2022-05-08T19:57:14Z</time>
      </trkpt>
      <trkpt lat="44.72373" lon="6.61857">
        <ele>1620</ele>
        <time>2022-05-08T19:57:22Z</time>
      </trkpt>
      <trkpt lat="44.72352" lon="6.6188">
        <ele>1624</ele>
        <time>2022-05-08T19:57:28Z</time>
      </trkpt>
      <trkpt lat="44.72329" lon="6.61892">
        <ele>1625</ele>
        <time>2022-05-08T19:57:34Z</time>
      </trkpt>
      <trkpt lat="44.72314" lon="6.61909">
        <ele>1628</ele>
        <time>2022-05-08T19:57:39Z</time>
      </trkpt>
      <trkpt lat="44.72297" lon="6.61917">
        <ele>1627</ele>
        <time>2022-05-08T19:57:43Z</time>
      </trkpt>
      <trkpt lat="44.72275" lon="6.61932">
        <ele>1629</ele>
        <time>2022-05-08T19:57:49Z</time>
      </trkpt>
      <trkpt lat="44.72263" lon="6.61947">
        <ele>1632</ele>
        <time>2022-05-08T19:57:52Z</time>
      </trkpt>
      <trkpt lat="44.72242" lon="6.61963">
        <ele>1635</ele>
        <time>2022-05-08T19:57:58Z</time>
      </trkpt>
      <trkpt lat="44.72235" lon="6.61974">
        <ele>1638</ele>
        <time>2022-05-08T19:58:00Z</time>
      </trkpt>
      <trkpt lat="44.72237" lon="6.6198">
        <ele>1640</ele>
        <time>2022-05-08T19:58:01Z</time>
      </trkpt>
      <trkpt lat="44.72242" lon="6.61984">
        <ele>1641</ele>
        <time>2022-05-08T19:58:03Z</time>
      </trkpt>
      <trkpt lat="44.72249" lon="6.61983">
        <ele>1641</ele>
        <time>2022-05-08T19:58:04Z</time>
      </trkpt>
      <trkpt lat="44.72252" lon="6.61986">
        <ele>1642</ele>
        <time>2022-05-08T19:58:05Z</time>
      </trkpt>
      <trkpt lat="44.7227" lon="6.61992">
        <ele>1646</ele>
        <time>2022-05-08T19:58:10Z</time>
      </trkpt>
      <trkpt lat="44.72286" lon="6.61994">
        <ele>1648</ele>
        <time>2022-05-08T19:58:13Z</time>
      </trkpt>
      <trkpt lat="44.72295" lon="6.61998">
        <ele>1650</ele>
        <time>2022-05-08T19:58:16Z</time>
      </trkpt>
      <trkpt lat="44.72303" lon="6.61999">
        <ele>1651</ele>
        <time>2022-05-08T19:58:17Z</time>
      </trkpt>
      <trkpt lat="44.72306" lon="6.61997">
        <ele>1651</ele>
        <time>2022-05-08T19:58:18Z</time>
      </trkpt>
      <trkpt lat="44.72317" lon="6.62">
        <ele>1653</ele>
        <time>2022-05-08T19:58:21Z</time>
      </trkpt>
      <trkpt lat="44.72371" lon="6.61981">
        <ele>1654</ele>
        <time>2022-05-08T19:58:34Z</time>
      </trkpt>
      <trkpt lat="44.72383" lon="6.61979">
        <ele>1655</ele>
        <time>2022-05-08T19:58:37Z</time>
      </trkpt>
      <trkpt lat="44.72408" lon="6.61968">
        <ele>1655</ele>
        <time>2022-05-08T19:58:43Z</time>
      </trkpt>
      <trkpt lat="44.72413" lon="6.61976">
        <ele>1658</ele>
        <time>2022-05-08T19:58:45Z</time>
      </trkpt>
      <trkpt lat="44.7241" lon="6.61982">
        <ele>1659</ele>
        <time>2022-05-08T19:58:46Z</time>
      </trkpt>
      <trkpt lat="44.72399" lon="6.61991">
        <ele>1660</ele>
        <time>2022-05-08T19:58:49Z</time>
      </trkpt>
      <trkpt lat="44.72377" lon="6.62024">
        <ele>1668</ele>
        <time>2022-05-08T19:58:56Z</time>
      </trkpt>
      <trkpt lat="44.72364" lon="6.62035">
        <ele>1670</ele>
        <time>2022-05-08T19:59:00Z</time>
      </trkpt>
      <trkpt lat="44.72363" lon="6.62047">
        <ele>1673</ele>
        <time>2022-05-08T19:59:02Z</time>
      </trkpt>
      <trkpt lat="44.72368" lon="6.6205">
        <ele>1675</ele>
        <time>2022-05-08T19:59:03Z</time>
      </trkpt>
      <trkpt lat="44.7238" lon="6.62044">
        <ele>1674</ele>
        <time>2022-05-08T19:59:06Z</time>
      </trkpt>
      <trkpt lat="44.72395" lon="6.62042">
        <ele>1675</ele>
        <time>2022-05-08T19:59:10Z</time>
      </trkpt>
      <trkpt lat="44.72409" lon="6.62035">
        <ele>1675</ele>
        <time>2022-05-08T19:59:13Z</time>
      </trkpt>
      <trkpt lat="44.72426" lon="6.62019">
        <ele>1672</ele>
        <time>2022-05-08T19:59:18Z</time>
      </trkpt>
      <trkpt lat="44.72435" lon="6.62019">
        <ele>1674</ele>
        <time>2022-05-08T19:59:20Z</time>
      </trkpt>
      <trkpt lat="44.72438" lon="6.62022">
        <ele>1675</ele>
        <time>2022-05-08T19:59:21Z</time>
      </trkpt>
      <trkpt lat="44.72436" lon="6.62029">
        <ele>1677</ele>
        <time>2022-05-08T19:59:22Z</time>
      </trkpt>
      <trkpt lat="44.72421" lon="6.62045">
        <ele>1679</ele>
        <time>2022-05-08T19:59:26Z</time>
      </trkpt>
      <trkpt lat="44.72407" lon="6.62067">
        <ele>1684</ele>
        <time>2022-05-08T19:59:31Z</time>
      </trkpt>
      <trkpt lat="44.72393" lon="6.62081">
        <ele>1687</ele>
        <time>2022-05-08T19:59:35Z</time>
      </trkpt>
      <trkpt lat="44.72359" lon="6.62103">
        <ele>1689</ele>
        <time>2022-05-08T19:59:44Z</time>
      </trkpt>
      <trkpt lat="44.72341" lon="6.62126">
        <ele>1692</ele>
        <time>2022-05-08T19:59:50Z</time>
      </trkpt>
      <trkpt lat="44.72324" lon="6.62134">
        <ele>1692</ele>
        <time>2022-05-08T19:59:54Z</time>
      </trkpt>
      <trkpt lat="44.72313" lon="6.62135">
        <ele>1693</ele>
        <time>2022-05-08T19:59:56Z</time>
      </trkpt>
      <trkpt lat="44.72286" lon="6.62146">
        <ele>1695</ele>
        <time>2022-05-08T20:00:03Z</time>
      </trkpt>
      <trkpt lat="44.72245" lon="6.62193">
        <ele>1704</ele>
        <time>2022-05-08T20:00:15Z</time>
      </trkpt>
      <trkpt lat="44.72217" lon="6.62216">
        <ele>1706</ele>
        <time>2022-05-08T20:00:23Z</time>
      </trkpt>
      <trkpt lat="44.72206" lon="6.62235">
        <ele>1709</ele>
        <time>2022-05-08T20:00:27Z</time>
      </trkpt>
      <trkpt lat="44.72193" lon="6.6224">
        <ele>1710</ele>
        <time>2022-05-08T20:00:30Z</time>
      </trkpt>
      <trkpt lat="44.72176" lon="6.6226">
        <ele>1715</ele>
        <time>2022-05-08T20:00:35Z</time>
      </trkpt>
      <trkpt lat="44.72154" lon="6.62274">
        <ele>1716</ele>
        <time>2022-05-08T20:00:41Z</time>
      </trkpt>
      <trkpt lat="44.72137" lon="6.62294">
        <ele>1717</ele>
        <time>2022-05-08T20:00:46Z</time>
      </trkpt>
      <trkpt lat="44.72127" lon="6.62319">
        <ele>1720</ele>
        <time>2022-05-08T20:00:51Z</time>
      </trkpt>
      <trkpt lat="44.72118" lon="6.6233">
        <ele>1721</ele>
        <time>2022-05-08T20:00:54Z</time>
      </trkpt>
      <trkpt lat="44.72101" lon="6.62343">
        <ele>1720</ele>
        <time>2022-05-08T20:00:58Z</time>
      </trkpt>
      <trkpt lat="44.72088" lon="6.62364">
        <ele>1722</ele>
        <time>2022-05-08T20:01:03Z</time>
      </trkpt>
      <trkpt lat="44.72065" lon="6.62412">
        <ele>1724</ele>
        <time>2022-05-08T20:01:12Z</time>
      </trkpt>
      <trkpt lat="44.72052" lon="6.62453">
        <ele>1727</ele>
        <time>2022-05-08T20:01:20Z</time>
      </trkpt>
      <trkpt lat="44.72046" lon="6.62519">
        <ele>1736</ele>
        <time>2022-05-08T20:01:31Z</time>
      </trkpt>
      <trkpt lat="44.72048" lon="6.62522">
        <ele>1737</ele>
        <time>2022-05-08T20:01:32Z</time>
      </trkpt>
      <trkpt lat="44.72051" lon="6.62521">
        <ele>1738</ele>
        <time>2022-05-08T20:01:32Z</time>
      </trkpt>
      <trkpt lat="44.7206" lon="6.62488">
        <ele>1737</ele>
        <time>2022-05-08T20:01:38Z</time>
      </trkpt>
      <trkpt lat="44.72068" lon="6.6247">
        <ele>1737</ele>
        <time>2022-05-08T20:01:42Z</time>
      </trkpt>
      <trkpt lat="44.72085" lon="6.62448">
        <ele>1739</ele>
        <time>2022-05-08T20:01:47Z</time>
      </trkpt>
      <trkpt lat="44.72103" lon="6.62414">
        <ele>1739</ele>
        <time>2022-05-08T20:01:54Z</time>
      </trkpt>
      <trkpt lat="44.72112" lon="6.62405">
        <ele>1739</ele>
        <time>2022-05-08T20:01:57Z</time>
      </trkpt>
      <trkpt lat="44.72164" lon="6.62381">
        <ele>1748</ele>
        <time>2022-05-08T20:02:09Z</time>
      </trkpt>
      <trkpt lat="44.72185" lon="6.62379">
        <ele>1750</ele>
        <time>2022-05-08T20:02:14Z</time>
      </trkpt>
      <trkpt lat="44.72195" lon="6.62382">
        <ele>1752</ele>
        <time>2022-05-08T20:02:17Z</time>
      </trkpt>
      <trkpt lat="44.72233" lon="6.62379">
        <ele>1754</ele>
        <time>2022-05-08T20:02:26Z</time>
      </trkpt>
      <trkpt lat="44.72253" lon="6.62387">
        <ele>1758</ele>
        <time>2022-05-08T20:02:31Z</time>
      </trkpt>
      <trkpt lat="44.72321" lon="6.624">
        <ele>1766</ele>
        <time>2022-05-08T20:02:47Z</time>
      </trkpt>
      <trkpt lat="44.72357" lon="6.62414">
        <ele>1773</ele>
        <time>2022-05-08T20:02:55Z</time>
      </trkpt>
      <trkpt lat="44.72385" lon="6.62419">
        <ele>1776</ele>
        <time>2022-05-08T20:03:02Z</time>
      </trkpt>
      <trkpt lat="44.7243" lon="6.62413">
        <ele>1778</ele>
        <time>2022-05-08T20:03:12Z</time>
      </trkpt>
      <trkpt lat="44.7246" lon="6.62395">
        <ele>1778</ele>
        <time>2022-05-08T20:03:20Z</time>
      </trkpt>
      <trkpt lat="44.7247" lon="6.62392">
        <ele>1779</ele>
        <time>2022-05-08T20:03:22Z</time>
      </trkpt>
      <trkpt lat="44.72491" lon="6.62372">
        <ele>1778</ele>
        <time>2022-05-08T20:03:28Z</time>
      </trkpt>
      <trkpt lat="44.72507" lon="6.62369">
        <ele>1779</ele>
        <time>2022-05-08T20:03:32Z</time>
      </trkpt>
      <trkpt lat="44.72517" lon="6.62371">
        <ele>1780</ele>
        <time>2022-05-08T20:03:34Z</time>
      </trkpt>
      <trkpt lat="44.72537" lon="6.62388">
        <ele>1783</ele>
        <time>2022-05-08T20:03:40Z</time>
      </trkpt>
      <trkpt lat="44.72559" lon="6.62395">
        <ele>1785</ele>
        <time>2022-05-08T20:03:45Z</time>
      </trkpt>
      <trkpt lat="44.72562" lon="6.62398">
        <ele>1786</ele>
        <time>2022-05-08T20:03:46Z</time>
      </trkpt>
      <trkpt lat="44.72561" lon="6.62406">
        <ele>1787</ele>
        <time>2022-05-08T20:03:47Z</time>
      </trkpt>
      <trkpt lat="44.72552" lon="6.62412">
        <ele>1788</ele>
        <time>2022-05-08T20:03:50Z</time>
      </trkpt>
      <trkpt lat="44.7252" lon="6.62411">
        <ele>1788</ele>
        <time>2022-05-08T20:03:57Z</time>
      </trkpt>
      <trkpt lat="44.7251" lon="6.62413">
        <ele>1788</ele>
        <time>2022-05-08T20:04:00Z</time>
      </trkpt>
      <trkpt lat="44.72469" lon="6.62447">
        <ele>1795</ele>
        <time>2022-05-08T20:04:11Z</time>
      </trkpt>
      <trkpt lat="44.72449" lon="6.62459">
        <ele>1797</ele>
        <time>2022-05-08T20:04:16Z</time>
      </trkpt>
      <trkpt lat="44.72439" lon="6.62468">
        <ele>1800</ele>
        <time>2022-05-08T20:04:19Z</time>
      </trkpt>
      <trkpt lat="44.724" lon="6.62489">
        <ele>1806</ele>
        <time>2022-05-08T20:04:28Z</time>
      </trkpt>
      <trkpt lat="44.72391" lon="6.62497">
        <ele>1809</ele>
        <time>2022-05-08T20:04:31Z</time>
      </trkpt>
      <trkpt lat="44.72379" lon="6.62502">
        <ele>1810</ele>
        <time>2022-05-08T20:04:34Z</time>
      </trkpt>
      <trkpt lat="44.72343" lon="6.625">
        <ele>1807</ele>
        <time>2022-05-08T20:04:42Z</time>
      </trkpt>
      <trkpt lat="44.72327" lon="6.62507">
        <ele>1807</ele>
        <time>2022-05-08T20:04:46Z</time>
      </trkpt>
      <trkpt lat="44.72314" lon="6.62517">
        <ele>1807</ele>
        <time>2022-05-08T20:04:49Z</time>
      </trkpt>
      <trkpt lat="44.7229" lon="6.62527">
        <ele>1806</ele>
        <time>2022-05-08T20:04:55Z</time>
      </trkpt>
      <trkpt lat="44.72278" lon="6.6254">
        <ele>1808</ele>
        <time>2022-05-08T20:04:59Z</time>
      </trkpt>
      <trkpt lat="44.72264" lon="6.62568">
        <ele>1813</ele>
        <time>2022-05-08T20:05:05Z</time>
      </trkpt>
      <trkpt lat="44.72242" lon="6.62596">
        <ele>1815</ele>
        <time>2022-05-08T20:05:11Z</time>
      </trkpt>
      <trkpt lat="44.72232" lon="6.62614">
        <ele>1815</ele>
        <time>2022-05-08T20:05:15Z</time>
      </trkpt>
      <trkpt lat="44.72227" lon="6.62629">
        <ele>1816</ele>
        <time>2022-05-08T20:05:18Z</time>
      </trkpt>
      <trkpt lat="44.72227" lon="6.62655">
        <ele>1820</ele>
        <time>2022-05-08T20:05:22Z</time>
      </trkpt>
      <trkpt lat="44.72236" lon="6.62679">
        <ele>1826</ele>
        <time>2022-05-08T20:05:27Z</time>
      </trkpt>
      <trkpt lat="44.72248" lon="6.62696">
        <ele>1832</ele>
        <time>2022-05-08T20:05:31Z</time>
      </trkpt>
      <trkpt lat="44.72253" lon="6.62727">
        <ele>1837</ele>
        <time>2022-05-08T20:05:36Z</time>
      </trkpt>
      <trkpt lat="44.72258" lon="6.6273">
        <ele>1838</ele>
        <time>2022-05-08T20:05:37Z</time>
      </trkpt>
      <trkpt lat="44.72261" lon="6.62729">
        <ele>1838</ele>
        <time>2022-05-08T20:05:38Z</time>
      </trkpt>
      <trkpt lat="44.72278" lon="6.62716">
        <ele>1838</ele>
        <time>2022-05-08T20:05:43Z</time>
      </trkpt>
      <trkpt lat="44.72301" lon="6.62704">
        <ele>1839</ele>
        <time>2022-05-08T20:05:48Z</time>
      </trkpt>
      <trkpt lat="44.72319" lon="6.62701">
        <ele>1840</ele>
        <time>2022-05-08T20:05:53Z</time>
      </trkpt>
      <trkpt lat="44.72336" lon="6.62704">
        <ele>1843</ele>
        <time>2022-05-08T20:05:57Z</time>
      </trkpt>
      <trkpt lat="44.72359" lon="6.62713">
        <ele>1845</ele>
        <time>2022-05-08T20:06:02Z</time>
      </trkpt>
      <trkpt lat="44.72393" lon="6.62733">
        <ele>1851</ele>
        <time>2022-05-08T20:06:11Z</time>
      </trkpt>
      <trkpt lat="44.72399" lon="6.62742">
        <ele>1853</ele>
        <time>2022-05-08T20:06:13Z</time>
      </trkpt>
      <trkpt lat="44.72394" lon="6.62752">
        <ele>1854</ele>
        <time>2022-05-08T20:06:15Z</time>
      </trkpt>
      <trkpt lat="44.7237" lon="6.62749">
        <ele>1851</ele>
        <time>2022-05-08T20:06:20Z</time>
      </trkpt>
      <trkpt lat="44.72349" lon="6.62749">
        <ele>1850</ele>
        <time>2022-05-08T20:06:25Z</time>
      </trkpt>
      <trkpt lat="44.72338" lon="6.62752">
        <ele>1850</ele>
        <time>2022-05-08T20:06:28Z</time>
      </trkpt>
      <trkpt lat="44.72324" lon="6.62763">
        <ele>1851</ele>
        <time>2022-05-08T20:06:32Z</time>
      </trkpt>
      <trkpt lat="44.72305" lon="6.62785">
        <ele>1854</ele>
        <time>2022-05-08T20:06:37Z</time>
      </trkpt>
      <trkpt lat="44.72283" lon="6.62798">
        <ele>1853</ele>
        <time>2022-05-08T20:06:43Z</time>
      </trkpt>
      <trkpt lat="44.72284" lon="6.62809">
        <ele>1855</ele>
        <time>2022-05-08T20:06:45Z</time>
      </trkpt>
      <trkpt lat="44.72288" lon="6.62811">
        <ele>1856</ele>
        <time>2022-05-08T20:06:46Z</time>
      </trkpt>
      <trkpt lat="44.72312" lon="6.62811">
        <ele>1861</ele>
        <time>2022-05-08T20:06:51Z</time>
      </trkpt>
      <trkpt lat="44.72335" lon="6.6282">
        <ele>1868</ele>
        <time>2022-05-08T20:06:57Z</time>
      </trkpt>
      <trkpt lat="44.7234" lon="6.62829">
        <ele>1871</ele>
        <time>2022-05-08T20:06:59Z</time>
      </trkpt>
      <trkpt lat="44.72337" lon="6.62836">
        <ele>1873</ele>
        <time>2022-05-08T20:07:00Z</time>
      </trkpt>
      <trkpt lat="44.72316" lon="6.62861">
        <ele>1872</ele>
        <time>2022-05-08T20:07:07Z</time>
      </trkpt>
      <trkpt lat="44.72304" lon="6.6289">
        <ele>1873</ele>
        <time>2022-05-08T20:07:12Z</time>
      </trkpt>
      <trkpt lat="44.72296" lon="6.62937">
        <ele>1879</ele>
        <time>2022-05-08T20:07:20Z</time>
      </trkpt>
      <trkpt lat="44.7229" lon="6.62947">
        <ele>1879</ele>
        <time>2022-05-08T20:07:22Z</time>
      </trkpt>
      <trkpt lat="44.72282" lon="6.62971">
        <ele>1881</ele>
        <time>2022-05-08T20:07:27Z</time>
      </trkpt>
      <trkpt lat="44.72281" lon="6.62987">
        <ele>1884</ele>
        <time>2022-05-08T20:07:30Z</time>
      </trkpt>
      <trkpt lat="44.72273" lon="6.63021">
        <ele>1888</ele>
        <time>2022-05-08T20:07:35Z</time>
      </trkpt>
      <trkpt lat="44.72263" lon="6.63039">
        <ele>1889</ele>
        <time>2022-05-08T20:07:39Z</time>
      </trkpt>
      <trkpt lat="44.72262" lon="6.63055">
        <ele>1892</ele>
        <time>2022-05-08T20:07:42Z</time>
      </trkpt>
      <trkpt lat="44.72252" lon="6.63072">
        <ele>1893</ele>
        <time>2022-05-08T20:07:46Z</time>
      </trkpt>
      <trkpt lat="44.72248" lon="6.63086">
        <ele>1895</ele>
        <time>2022-05-08T20:07:48Z</time>
      </trkpt>
      <trkpt lat="44.72248" lon="6.6312">
        <ele>1901</ele>
        <time>2022-05-08T20:07:54Z</time>
      </trkpt>
      <trkpt lat="44.72246" lon="6.63123">
        <ele>1901</ele>
        <time>2022-05-08T20:07:54Z</time>
      </trkpt>
      <trkpt lat="44.72213" lon="6.63157">
        <ele>1906</ele>
        <time>2022-05-08T20:08:04Z</time>
      </trkpt>
      <trkpt lat="44.72185" lon="6.63176">
        <ele>1908</ele>
        <time>2022-05-08T20:08:11Z</time>
      </trkpt>
      <trkpt lat="44.72173" lon="6.63179">
        <ele>1909</ele>
        <time>2022-05-08T20:08:14Z</time>
      </trkpt>
      <trkpt lat="44.72156" lon="6.63179">
        <ele>1909</ele>
        <time>2022-05-08T20:08:18Z</time>
      </trkpt>
      <trkpt lat="44.72141" lon="6.63188">
        <ele>1912</ele>
        <time>2022-05-08T20:08:22Z</time>
      </trkpt>
      <trkpt lat="44.72089" lon="6.63203">
        <ele>1920</ele>
        <time>2022-05-08T20:08:34Z</time>
      </trkpt>
      <trkpt lat="44.7208" lon="6.63209">
        <ele>1922</ele>
        <time>2022-05-08T20:08:37Z</time>
      </trkpt>
      <trkpt lat="44.72072" lon="6.63211">
        <ele>1924</ele>
        <time>2022-05-08T20:08:38Z</time>
      </trkpt>
      <trkpt lat="44.72019" lon="6.63206">
        <ele>1928</ele>
        <time>2022-05-08T20:08:51Z</time>
      </trkpt>
      <trkpt lat="44.71976" lon="6.6321">
        <ele>1934</ele>
        <time>2022-05-08T20:09:01Z</time>
      </trkpt>
      <trkpt lat="44.71906" lon="6.63222">
        <ele>1944</ele>
        <time>2022-05-08T20:09:17Z</time>
      </trkpt>
      <trkpt lat="44.71887" lon="6.63231">
        <ele>1945</ele>
        <time>2022-05-08T20:09:22Z</time>
      </trkpt>
      <trkpt lat="44.71863" lon="6.63248">
        <ele>1947</ele>
        <time>2022-05-08T20:09:28Z</time>
      </trkpt>
      <trkpt lat="44.71858" lon="6.63256">
        <ele>1948</ele>
        <time>2022-05-08T20:09:30Z</time>
      </trkpt>
      <trkpt lat="44.71852" lon="6.63259">
        <ele>1948</ele>
        <time>2022-05-08T20:09:32Z</time>
      </trkpt>
      <trkpt lat="44.71846" lon="6.63266">
        <ele>1949</ele>
        <time>2022-05-08T20:09:33Z</time>
      </trkpt>
      <trkpt lat="44.7183" lon="6.63275">
        <ele>1949</ele>
        <time>2022-05-08T20:09:37Z</time>
      </trkpt>
      <trkpt lat="44.71825" lon="6.63282">
        <ele>1951</ele>
        <time>2022-05-08T20:09:39Z</time>
      </trkpt>
      <trkpt lat="44.71813" lon="6.63316">
        <ele>1957</ele>
        <time>2022-05-08T20:09:45Z</time>
      </trkpt>
      <trkpt lat="44.71812" lon="6.63331">
        <ele>1960</ele>
        <time>2022-05-08T20:09:48Z</time>
      </trkpt>
      <trkpt lat="44.71817" lon="6.63332">
        <ele>1961</ele>
        <time>2022-05-08T20:09:49Z</time>
      </trkpt>
      <trkpt lat="44.71827" lon="6.63326">
        <ele>1961</ele>
        <time>2022-05-08T20:09:52Z</time>
      </trkpt>
      <trkpt lat="44.71842" lon="6.63328">
        <ele>1963</ele>
        <time>2022-05-08T20:09:55Z</time>
      </trkpt>
      <trkpt lat="44.71868" lon="6.63348">
        <ele>1969</ele>
        <time>2022-05-08T20:10:02Z</time>
      </trkpt>
      <trkpt lat="44.71889" lon="6.63372">
        <ele>1974</ele>
        <time>2022-05-08T20:10:08Z</time>
      </trkpt>
      <trkpt lat="44.71912" lon="6.63382">
        <ele>1976</ele>
        <time>2022-05-08T20:10:14Z</time>
      </trkpt>
      <trkpt lat="44.71939" lon="6.63399">
        <ele>1977</ele>
        <time>2022-05-08T20:10:21Z</time>
      </trkpt>
      <trkpt lat="44.71962" lon="6.63418">
        <ele>1978</ele>
        <time>2022-05-08T20:10:27Z</time>
      </trkpt>
      <trkpt lat="44.71981" lon="6.63446">
        <ele>1980</ele>
        <time>2022-05-08T20:10:34Z</time>
      </trkpt>
      <trkpt lat="44.71986" lon="6.63475">
        <ele>1982</ele>
        <time>2022-05-08T20:10:39Z</time>
      </trkpt>
      <trkpt lat="44.71994" lon="6.63494">
        <ele>1983</ele>
        <time>2022-05-08T20:10:42Z</time>
      </trkpt>
      <trkpt lat="44.71995" lon="6.63505">
        <ele>1984</ele>
        <time>2022-05-08T20:10:44Z</time>
      </trkpt>
      <trkpt lat="44.71962" lon="6.63498">
        <ele>1985</ele>
        <time>2022-05-08T20:10:52Z</time>
      </trkpt>
      <trkpt lat="44.71939" lon="6.6351">
        <ele>1989</ele>
        <time>2022-05-08T20:10:58Z</time>
      </trkpt>
      <trkpt lat="44.71928" lon="6.63512">
        <ele>1990</ele>
        <time>2022-05-08T20:11:00Z</time>
      </trkpt>
      <trkpt lat="44.71908" lon="6.63527">
        <ele>1995</ele>
        <time>2022-05-08T20:11:05Z</time>
      </trkpt>
      <trkpt lat="44.71892" lon="6.63535">
        <ele>1999</ele>
        <time>2022-05-08T20:11:09Z</time>
      </trkpt>
      <trkpt lat="44.71882" lon="6.6355">
        <ele>2004</ele>
        <time>2022-05-08T20:11:13Z</time>
      </trkpt>
      <trkpt lat="44.71873" lon="6.63556">
        <ele>2007</ele>
        <time>2022-05-08T20:11:15Z</time>
      </trkpt>
      <trkpt lat="44.71862" lon="6.63558">
        <ele>2009</ele>
        <time>2022-05-08T20:11:18Z</time>
      </trkpt>
      <trkpt lat="44.71849" lon="6.63567">
        <ele>2014</ele>
        <time>2022-05-08T20:11:21Z</time>
      </trkpt>
      <trkpt lat="44.71847" lon="6.63585">
        <ele>2018</ele>
        <time>2022-05-08T20:11:24Z</time>
      </trkpt>
      <trkpt lat="44.71829" lon="6.63604">
        <ele>2025</ele>
        <time>2022-05-08T20:11:29Z</time>
      </trkpt>
      <trkpt lat="44.71821" lon="6.63621">
        <ele>2028</ele>
        <time>2022-05-08T20:11:33Z</time>
      </trkpt>
      <trkpt lat="44.71808" lon="6.63631">
        <ele>2029</ele>
        <time>2022-05-08T20:11:36Z</time>
      </trkpt>
      <trkpt lat="44.71803" lon="6.63644">
        <ele>2032</ele>
        <time>2022-05-08T20:11:39Z</time>
      </trkpt>
      <trkpt lat="44.71804" lon="6.63658">
        <ele>2035</ele>
        <time>2022-05-08T20:11:41Z</time>
      </trkpt>
      <trkpt lat="44.71793" lon="6.63702">
        <ele>2044</ele>
        <time>2022-05-08T20:11:49Z</time>
      </trkpt>
      <trkpt lat="44.71789" lon="6.63706">
        <ele>2045</ele>
        <time>2022-05-08T20:11:50Z</time>
      </trkpt>
      <trkpt lat="44.71779" lon="6.63706">
        <ele>2044</ele>
        <time>2022-05-08T20:11:52Z</time>
      </trkpt>
      <trkpt lat="44.71777" lon="6.63709">
        <ele>2044</ele>
        <time>2022-05-08T20:11:53Z</time>
      </trkpt>
      <trkpt lat="44.71768" lon="6.63773">
        <ele>2058</ele>
        <time>2022-05-08T20:12:04Z</time>
      </trkpt>
      <trkpt lat="44.71764" lon="6.63785">
        <ele>2060</ele>
        <time>2022-05-08T20:12:06Z</time>
      </trkpt>
      <trkpt lat="44.71763" lon="6.63817">
        <ele>2066</ele>
        <time>2022-05-08T20:12:11Z</time>
      </trkpt>
      <trkpt lat="44.71756" lon="6.63839">
        <ele>2068</ele>
        <time>2022-05-08T20:12:15Z</time>
      </trkpt>
      <trkpt lat="44.71755" lon="6.63852">
        <ele>2068</ele>
        <time>2022-05-08T20:12:17Z</time>
      </trkpt>
      <trkpt lat="44.71757" lon="6.63873">
        <ele>2068</ele>
        <time>2022-05-08T20:12:21Z</time>
      </trkpt>
      <trkpt lat="44.71764" lon="6.63898">
        <ele>2070</ele>
        <time>2022-05-08T20:12:25Z</time>
      </trkpt>
      <trkpt lat="44.71762" lon="6.63926">
        <ele>2069</ele>
        <time>2022-05-08T20:12:30Z</time>
      </trkpt>
      <trkpt lat="44.71767" lon="6.63989">
        <ele>2071</ele>
        <time>2022-05-08T20:12:41Z</time>
      </trkpt>
      <trkpt lat="44.71765" lon="6.64016">
        <ele>2071</ele>
        <time>2022-05-08T20:12:45Z</time>
      </trkpt>
      <trkpt lat="44.71762" lon="6.64031">
        <ele>2070</ele>
        <time>2022-05-08T20:12:48Z</time>
      </trkpt>
      <trkpt lat="44.7174" lon="6.64089">
        <ele>2065</ele>
        <time>2022-05-08T20:12:59Z</time>
      </trkpt>
      <trkpt lat="44.71719" lon="6.64124">
        <ele>2063</ele>
        <time>2022-05-08T20:13:06Z</time>
      </trkpt>
      <trkpt lat="44.71685" lon="6.64165">
        <ele>2058</ele>
        <time>2022-05-08T20:13:17Z</time>
      </trkpt>
      <trkpt lat="44.7167" lon="6.64176">
        <ele>2054</ele>
        <time>2022-05-08T20:13:21Z</time>
      </trkpt>
      <trkpt lat="44.71649" lon="6.64185">
        <ele>2046</ele>
        <time>2022-05-08T20:13:26Z</time>
      </trkpt>
      <trkpt lat="44.71625" lon="6.64207">
        <ele>2040</ele>
        <time>2022-05-08T20:13:32Z</time>
      </trkpt>
      <trkpt lat="44.71609" lon="6.64217">
        <ele>2035</ele>
        <time>2022-05-08T20:13:37Z</time>
      </trkpt>
      <trkpt lat="44.71599" lon="6.64219">
        <ele>2032</ele>
        <time>2022-05-08T20:13:39Z</time>
      </trkpt>
      <trkpt lat="44.71565" lon="6.64217">
        <ele>2014</ele>
        <time>2022-05-08T20:13:47Z</time>
      </trkpt>
      <trkpt lat="44.71554" lon="6.64222">
        <ele>2008</ele>
        <time>2022-05-08T20:13:50Z</time>
      </trkpt>
      <trkpt lat="44.71551" lon="6.64227">
        <ele>2007</ele>
        <time>2022-05-08T20:13:51Z</time>
      </trkpt>
      <trkpt lat="44.71547" lon="6.64238">
        <ele>2008</ele>
        <time>2022-05-08T20:13:53Z</time>
      </trkpt>
      <trkpt lat="44.7155" lon="6.64262">
        <ele>2011</ele>
        <time>2022-05-08T20:13:57Z</time>
      </trkpt>
      <trkpt lat="44.71561" lon="6.64302">
        <ele>2014</ele>
        <time>2022-05-08T20:14:04Z</time>
      </trkpt>
      <trkpt lat="44.71583" lon="6.64354">
        <ele>2018</ele>
        <time>2022-05-08T20:14:14Z</time>
      </trkpt>
      <trkpt lat="44.71586" lon="6.64371">
        <ele>2017</ele>
        <time>2022-05-08T20:14:17Z</time>
      </trkpt>
      <trkpt lat="44.71579" lon="6.6441">
        <ele>2007</ele>
        <time>2022-05-08T20:14:23Z</time>
      </trkpt>
      <trkpt lat="44.71577" lon="6.64401">
        <ele>2008</ele>
        <time>2022-05-08T20:14:25Z</time>
      </trkpt>
      <trkpt lat="44.71569" lon="6.64397">
        <ele>2005</ele>
        <time>2022-05-08T20:14:27Z</time>
      </trkpt>
      <trkpt lat="44.71559" lon="6.64385">
        <ele>2003</ele>
        <time>2022-05-08T20:14:30Z</time>
      </trkpt>
      <trkpt lat="44.71544" lon="6.64374">
        <ele>1998</ele>
        <time>2022-05-08T20:14:34Z</time>
      </trkpt>
      <trkpt lat="44.71511" lon="6.64333">
        <ele>1988</ele>
        <time>2022-05-08T20:14:44Z</time>
      </trkpt>
      <trkpt lat="44.71478" lon="6.64298">
        <ele>1969</ele>
        <time>2022-05-08T20:14:54Z</time>
      </trkpt>
      <trkpt lat="44.71487" lon="6.64333">
        <ele>1975</ele>
        <time>2022-05-08T20:15:00Z</time>
      </trkpt>
      <trkpt lat="44.71489" lon="6.64374">
        <ele>1973</ele>
        <time>2022-05-08T20:15:07Z</time>
      </trkpt>
      <trkpt lat="44.71488" lon="6.64384">
        <ele>1971</ele>
        <time>2022-05-08T20:15:09Z</time>
      </trkpt>
      <trkpt lat="44.7148" lon="6.64396">
        <ele>1966</ele>
        <time>2022-05-08T20:15:11Z</time>
      </trkpt>
      <trkpt lat="44.7147" lon="6.6443">
        <ele>1960</ele>
        <time>2022-05-08T20:15:17Z</time>
      </trkpt>
      <trkpt lat="44.71461" lon="6.64482">
        <ele>1956</ele>
        <time>2022-05-08T20:15:26Z</time>
      </trkpt>
      <trkpt lat="44.71442" lon="6.64508">
        <ele>1949</ele>
        <time>2022-05-08T20:15:33Z</time>
      </trkpt>
      <trkpt lat="44.71428" lon="6.64545">
        <ele>1947</ele>
        <time>2022-05-08T20:15:39Z</time>
      </trkpt>
      <trkpt lat="44.71401" lon="6.64598">
        <ele>1941</ele>
        <time>2022-05-08T20:15:50Z</time>
      </trkpt>
      <trkpt lat="44.71346" lon="6.64676">
        <ele>1930</ele>
        <time>2022-05-08T20:16:09Z</time>
      </trkpt>
      <trkpt lat="44.71325" lon="6.64715">
        <ele>1929</ele>
        <time>2022-05-08T20:16:17Z</time>
      </trkpt>
      <trkpt lat="44.71307" lon="6.64737">
        <ele>1927</ele>
        <time>2022-05-08T20:16:22Z</time>
      </trkpt>
      <trkpt lat="44.713" lon="6.64732">
        <ele>1923</ele>
        <time>2022-05-08T20:16:24Z</time>
      </trkpt>
      <trkpt lat="44.71286" lon="6.64729">
        <ele>1917</ele>
        <time>2022-05-08T20:16:27Z</time>
      </trkpt>
      <trkpt lat="44.71273" lon="6.64733">
        <ele>1913</ele>
        <time>2022-05-08T20:16:30Z</time>
      </trkpt>
      <trkpt lat="44.71274" lon="6.64722">
        <ele>1910</ele>
        <time>2022-05-08T20:16:32Z</time>
      </trkpt>
      <trkpt lat="44.71283" lon="6.64701">
        <ele>1907</ele>
        <time>2022-05-08T20:16:36Z</time>
      </trkpt>
      <trkpt lat="44.71281" lon="6.64695">
        <ele>1905</ele>
        <time>2022-05-08T20:16:37Z</time>
      </trkpt>
      <trkpt lat="44.71284" lon="6.64689">
        <ele>1904</ele>
        <time>2022-05-08T20:16:39Z</time>
      </trkpt>
      <trkpt lat="44.7128" lon="6.64682">
        <ele>1900</ele>
        <time>2022-05-08T20:16:40Z</time>
      </trkpt>
      <trkpt lat="44.71288" lon="6.64673">
        <ele>1901</ele>
        <time>2022-05-08T20:16:43Z</time>
      </trkpt>
      <trkpt lat="44.71282" lon="6.64667">
        <ele>1896</ele>
        <time>2022-05-08T20:16:44Z</time>
      </trkpt>
      <trkpt lat="44.71273" lon="6.64663">
        <ele>1891</ele>
        <time>2022-05-08T20:16:47Z</time>
      </trkpt>
      <trkpt lat="44.71267" lon="6.64644">
        <ele>1883</ele>
        <time>2022-05-08T20:16:50Z</time>
      </trkpt>
      <trkpt lat="44.71268" lon="6.64639">
        <ele>1883</ele>
        <time>2022-05-08T20:16:51Z</time>
      </trkpt>
      <trkpt lat="44.71263" lon="6.6462">
        <ele>1876</ele>
        <time>2022-05-08T20:16:54Z</time>
      </trkpt>
      <trkpt lat="44.71258" lon="6.6461">
        <ele>1871</ele>
        <time>2022-05-08T20:16:56Z</time>
      </trkpt>
      <trkpt lat="44.71247" lon="6.64598">
        <ele>1863</ele>
        <time>2022-05-08T20:16:59Z</time>
      </trkpt>
      <trkpt lat="44.71246" lon="6.6459">
        <ele>1861</ele>
        <time>2022-05-08T20:17:01Z</time>
      </trkpt>
      <trkpt lat="44.7123" lon="6.64582">
        <ele>1851</ele>
        <time>2022-05-08T20:17:05Z</time>
      </trkpt>
      <trkpt lat="44.71231" lon="6.64575">
        <ele>1851</ele>
        <time>2022-05-08T20:17:06Z</time>
      </trkpt>
      <trkpt lat="44.71237" lon="6.64564">
        <ele>1852</ele>
        <time>2022-05-08T20:17:08Z</time>
      </trkpt>
      <trkpt lat="44.71233" lon="6.64551">
        <ele>1849</ele>
        <time>2022-05-08T20:17:11Z</time>
      </trkpt>
      <trkpt lat="44.71224" lon="6.64549">
        <ele>1843</ele>
        <time>2022-05-08T20:17:13Z</time>
      </trkpt>
      <trkpt lat="44.71217" lon="6.64539">
        <ele>1838</ele>
        <time>2022-05-08T20:17:15Z</time>
      </trkpt>
      <trkpt lat="44.71208" lon="6.64515">
        <ele>1830</ele>
        <time>2022-05-08T20:17:20Z</time>
      </trkpt>
      <trkpt lat="44.71202" lon="6.64516">
        <ele>1826</ele>
        <time>2022-05-08T20:17:21Z</time>
      </trkpt>
      <trkpt lat="44.712" lon="6.64556">
        <ele>1832</ele>
        <time>2022-05-08T20:17:28Z</time>
      </trkpt>
      <trkpt lat="44.71195" lon="6.64569">
        <ele>1831</ele>
        <time>2022-05-08T20:17:30Z</time>
      </trkpt>
      <trkpt lat="44.71189" lon="6.64602">
        <ele>1837</ele>
        <time>2022-05-08T20:17:36Z</time>
      </trkpt>
      <trkpt lat="44.71192" lon="6.64595">
        <ele>1836</ele>
        <time>2022-05-08T20:17:37Z</time>
      </trkpt>
      <trkpt lat="44.7119" lon="6.64564">
        <ele>1828</ele>
        <time>2022-05-08T20:17:42Z</time>
      </trkpt>
      <trkpt lat="44.7118" lon="6.64508">
        <ele>1812</ele>
        <time>2022-05-08T20:17:52Z</time>
      </trkpt>
      <trkpt lat="44.71181" lon="6.64493">
        <ele>1810</ele>
        <time>2022-05-08T20:17:54Z</time>
      </trkpt>
      <trkpt lat="44.71176" lon="6.64466">
        <ele>1799</ele>
        <time>2022-05-08T20:17:59Z</time>
      </trkpt>
      <trkpt lat="44.71156" lon="6.64494">
        <ele>1795</ele>
        <time>2022-05-08T20:18:06Z</time>
      </trkpt>
      <trkpt lat="44.71152" lon="6.64504">
        <ele>1796</ele>
        <time>2022-05-08T20:18:07Z</time>
      </trkpt>
      <trkpt lat="44.71151" lon="6.64516">
        <ele>1798</ele>
        <time>2022-05-08T20:18:09Z</time>
      </trkpt>
      <trkpt lat="44.71138" lon="6.64547">
        <ele>1800</ele>
        <time>2022-05-08T20:18:15Z</time>
      </trkpt>
      <trkpt lat="44.71137" lon="6.64543">
        <ele>1799</ele>
        <time>2022-05-08T20:18:16Z</time>
      </trkpt>
      <trkpt lat="44.71126" lon="6.6454">
        <ele>1793</ele>
        <time>2022-05-08T20:18:19Z</time>
      </trkpt>
      <trkpt lat="44.71102" lon="6.64552">
        <ele>1787</ele>
        <time>2022-05-08T20:18:25Z</time>
      </trkpt>
      <trkpt lat="44.71098" lon="6.64557">
        <ele>1787</ele>
        <time>2022-05-08T20:18:26Z</time>
      </trkpt>
      <trkpt lat="44.71095" lon="6.64557">
        <ele>1786</ele>
        <time>2022-05-08T20:18:27Z</time>
      </trkpt>
      <trkpt lat="44.71095" lon="6.64552">
        <ele>1784</ele>
        <time>2022-05-08T20:18:27Z</time>
      </trkpt>
      <trkpt lat="44.71086" lon="6.64549">
        <ele>1779</ele>
        <time>2022-05-08T20:18:30Z</time>
      </trkpt>
      <trkpt lat="44.71082" lon="6.6455">
        <ele>1778</ele>
        <time>2022-05-08T20:18:31Z</time>
      </trkpt>
      <trkpt lat="44.71078" lon="6.64558">
        <ele>1780</ele>
        <time>2022-05-08T20:18:32Z</time>
      </trkpt>
      <trkpt lat="44.71073" lon="6.64555">
        <ele>1777</ele>
        <time>2022-05-08T20:18:33Z</time>
      </trkpt>
      <trkpt lat="44.71067" lon="6.64555">
        <ele>1775</ele>
        <time>2022-05-08T20:18:35Z</time>
      </trkpt>
      <trkpt lat="44.71039" lon="6.64565">
        <ele>1769</ele>
        <time>2022-05-08T20:18:42Z</time>
      </trkpt>
      <trkpt lat="44.71041" lon="6.64551">
        <ele>1763</ele>
        <time>2022-05-08T20:18:44Z</time>
      </trkpt>
      <trkpt lat="44.71034" lon="6.64549">
        <ele>1760</ele>
        <time>2022-05-08T20:18:46Z</time>
      </trkpt>
      <trkpt lat="44.71002" lon="6.64569">
        <ele>1758</ele>
        <time>2022-05-08T20:18:54Z</time>
      </trkpt>
      <trkpt lat="44.71002" lon="6.64556">
        <ele>1752</ele>
        <time>2022-05-08T20:18:56Z</time>
      </trkpt>
      <trkpt lat="44.71015" lon="6.64532">
        <ele>1745</ele>
        <time>2022-05-08T20:19:01Z</time>
      </trkpt>
      <trkpt lat="44.71015" lon="6.64518">
        <ele>1738</ele>
        <time>2022-05-08T20:19:03Z</time>
      </trkpt>
      <trkpt lat="44.71007" lon="6.64523">
        <ele>1737</ele>
        <time>2022-05-08T20:19:05Z</time>
      </trkpt>
      <trkpt lat="44.70999" lon="6.64522">
        <ele>1734</ele>
        <time>2022-05-08T20:19:07Z</time>
      </trkpt>
      <trkpt lat="44.70998" lon="6.6452">
        <ele>1733</ele>
        <time>2022-05-08T20:19:08Z</time>
      </trkpt>
      <trkpt lat="44.71013" lon="6.64496">
        <ele>1727</ele>
        <time>2022-05-08T20:19:13Z</time>
      </trkpt>
      <trkpt lat="44.71002" lon="6.64483">
        <ele>1718</ele>
        <time>2022-05-08T20:19:16Z</time>
      </trkpt>
      <trkpt lat="44.71014" lon="6.64471">
        <ele>1719</ele>
        <time>2022-05-08T20:19:20Z</time>
      </trkpt>
      <trkpt lat="44.71037" lon="6.64464">
        <ele>1726</ele>
        <time>2022-05-08T20:19:25Z</time>
      </trkpt>
      <trkpt lat="44.71042" lon="6.64456">
        <ele>1725</ele>
        <time>2022-05-08T20:19:27Z</time>
      </trkpt>
      <trkpt lat="44.71039" lon="6.64462">
        <ele>1726</ele>
        <time>2022-05-08T20:19:28Z</time>
      </trkpt>
      <trkpt lat="44.7104" lon="6.64459">
        <ele>1725</ele>
        <time>2022-05-08T20:19:29Z</time>
      </trkpt>
      <trkpt lat="44.71036" lon="6.64462">
        <ele>1724</ele>
        <time>2022-05-08T20:19:30Z</time>
      </trkpt>
      <trkpt lat="44.71031" lon="6.6446">
        <ele>1722</ele>
        <time>2022-05-08T20:19:31Z</time>
      </trkpt>
      <trkpt lat="44.71027" lon="6.64464">
        <ele>1721</ele>
        <time>2022-05-08T20:19:32Z</time>
      </trkpt>
      <trkpt lat="44.71032" lon="6.64451">
        <ele>1719</ele>
        <time>2022-05-08T20:19:35Z</time>
      </trkpt>
      <trkpt lat="44.71025" lon="6.64455">
        <ele>1718</ele>
        <time>2022-05-08T20:19:36Z</time>
      </trkpt>
      <trkpt lat="44.7102" lon="6.64455">
        <ele>1716</ele>
        <time>2022-05-08T20:19:38Z</time>
      </trkpt>
      <trkpt lat="44.7102" lon="6.64448">
        <ele>1713</ele>
        <time>2022-05-08T20:19:39Z</time>
      </trkpt>
      <trkpt lat="44.71023" lon="6.64443">
        <ele>1713</ele>
        <time>2022-05-08T20:19:40Z</time>
      </trkpt>
      <trkpt lat="44.71017" lon="6.64442">
        <ele>1710</ele>
        <time>2022-05-08T20:19:41Z</time>
      </trkpt>
      <trkpt lat="44.71011" lon="6.64432">
        <ele>1704</ele>
        <time>2022-05-08T20:19:43Z</time>
      </trkpt>
      <trkpt lat="44.70998" lon="6.64425">
        <ele>1697</ele>
        <time>2022-05-08T20:19:47Z</time>
      </trkpt>
      <trkpt lat="44.70977" lon="6.64424">
        <ele>1694</ele>
        <time>2022-05-08T20:19:52Z</time>
      </trkpt>
      <trkpt lat="44.70981" lon="6.64412">
        <ele>1690</ele>
        <time>2022-05-08T20:19:54Z</time>
      </trkpt>
      <trkpt lat="44.7098" lon="6.64406">
        <ele>1688</ele>
        <time>2022-05-08T20:19:55Z</time>
      </trkpt>
      <trkpt lat="44.70972" lon="6.64405">
        <ele>1687</ele>
        <time>2022-05-08T20:19:57Z</time>
      </trkpt>
      <trkpt lat="44.70964" lon="6.64409">
        <ele>1687</ele>
        <time>2022-05-08T20:19:59Z</time>
      </trkpt>
      <trkpt lat="44.70962" lon="6.64402">
        <ele>1684</ele>
        <time>2022-05-08T20:20:00Z</time>
      </trkpt>
      <trkpt lat="44.70969" lon="6.64378">
        <ele>1677</ele>
        <time>2022-05-08T20:20:04Z</time>
      </trkpt>
      <trkpt lat="44.70955" lon="6.64378">
        <ele>1674</ele>
        <time>2022-05-08T20:20:08Z</time>
      </trkpt>
      <trkpt lat="44.70946" lon="6.64385">
        <ele>1675</ele>
        <time>2022-05-08T20:20:10Z</time>
      </trkpt>
      <trkpt lat="44.70938" lon="6.64404">
        <ele>1681</ele>
        <time>2022-05-08T20:20:14Z</time>
      </trkpt>
      <trkpt lat="44.70937" lon="6.64417">
        <ele>1686</ele>
        <time>2022-05-08T20:20:16Z</time>
      </trkpt>
      <trkpt lat="44.70933" lon="6.64416">
        <ele>1685</ele>
        <time>2022-05-08T20:20:17Z</time>
      </trkpt>
      <trkpt lat="44.70931" lon="6.64407">
        <ele>1681</ele>
        <time>2022-05-08T20:20:18Z</time>
      </trkpt>
      <trkpt lat="44.70907" lon="6.64382">
        <ele>1671</ele>
        <time>2022-05-08T20:20:25Z</time>
      </trkpt>
      <trkpt lat="44.70901" lon="6.64361">
        <ele>1664</ele>
        <time>2022-05-08T20:20:29Z</time>
      </trkpt>
      <trkpt lat="44.70888" lon="6.64338">
        <ele>1658</ele>
        <time>2022-05-08T20:20:34Z</time>
      </trkpt>
      <trkpt lat="44.70855" lon="6.6432">
        <ele>1661</ele>
        <time>2022-05-08T20:20:42Z</time>
      </trkpt>
      <trkpt lat="44.70848" lon="6.64314">
        <ele>1660</ele>
        <time>2022-05-08T20:20:44Z</time>
      </trkpt>
      <trkpt lat="44.7084" lon="6.64305">
        <ele>1658</ele>
        <time>2022-05-08T20:20:46Z</time>
      </trkpt>
      <trkpt lat="44.70819" lon="6.64267">
        <ele>1645</ele>
        <time>2022-05-08T20:20:54Z</time>
      </trkpt>
      <trkpt lat="44.70798" lon="6.6425">
        <ele>1641</ele>
        <time>2022-05-08T20:21:00Z</time>
      </trkpt>
      <trkpt lat="44.70771" lon="6.64233">
        <ele>1640</ele>
        <time>2022-05-08T20:21:07Z</time>
      </trkpt>
      <trkpt lat="44.70741" lon="6.64198">
        <ele>1629</ele>
        <time>2022-05-08T20:21:16Z</time>
      </trkpt>
      <trkpt lat="44.70752" lon="6.64194">
        <ele>1627</ele>
        <time>2022-05-08T20:21:19Z</time>
      </trkpt>
      <trkpt lat="44.70762" lon="6.64195">
        <ele>1625</ele>
        <time>2022-05-08T20:21:21Z</time>
      </trkpt>
      <trkpt lat="44.70759" lon="6.64188">
        <ele>1622</ele>
        <time>2022-05-08T20:21:22Z</time>
      </trkpt>
      <trkpt lat="44.7074" lon="6.64174">
        <ele>1618</ele>
        <time>2022-05-08T20:21:27Z</time>
      </trkpt>
      <trkpt lat="44.70735" lon="6.64166">
        <ele>1615</ele>
        <time>2022-05-08T20:21:29Z</time>
      </trkpt>
      <trkpt lat="44.70736" lon="6.64163">
        <ele>1613</ele>
        <time>2022-05-08T20:21:30Z</time>
      </trkpt>
      <trkpt lat="44.70747" lon="6.64155">
        <ele>1611</ele>
        <time>2022-05-08T20:21:33Z</time>
      </trkpt>
      <trkpt lat="44.70766" lon="6.6415">
        <ele>1605</ele>
        <time>2022-05-08T20:21:37Z</time>
      </trkpt>
      <trkpt lat="44.70757" lon="6.64134">
        <ele>1601</ele>
        <time>2022-05-08T20:21:41Z</time>
      </trkpt>
      <trkpt lat="44.70732" lon="6.64102">
        <ele>1591</ele>
        <time>2022-05-08T20:21:48Z</time>
      </trkpt>
      <trkpt lat="44.70717" lon="6.64087">
        <ele>1586</ele>
        <time>2022-05-08T20:21:53Z</time>
      </trkpt>
      <trkpt lat="44.70714" lon="6.64072">
        <ele>1581</ele>
        <time>2022-05-08T20:21:55Z</time>
      </trkpt>
      <trkpt lat="44.70716" lon="6.6406">
        <ele>1577</ele>
        <time>2022-05-08T20:21:57Z</time>
      </trkpt>
      <trkpt lat="44.70727" lon="6.64065">
        <ele>1578</ele>
        <time>2022-05-08T20:22:00Z</time>
      </trkpt>
      <trkpt lat="44.70743" lon="6.64065">
        <ele>1577</ele>
        <time>2022-05-08T20:22:04Z</time>
      </trkpt>
      <trkpt lat="44.70751" lon="6.64072">
        <ele>1579</ele>
        <time>2022-05-08T20:22:06Z</time>
      </trkpt>
      <trkpt lat="44.7076" lon="6.64071">
        <ele>1577</ele>
        <time>2022-05-08T20:22:08Z</time>
      </trkpt>
      <trkpt lat="44.7078" lon="6.64061">
        <ele>1569</ele>
        <time>2022-05-08T20:22:13Z</time>
      </trkpt>
      <trkpt lat="44.70771" lon="6.64042">
        <ele>1564</ele>
        <time>2022-05-08T20:22:17Z</time>
      </trkpt>
      <trkpt lat="44.70766" lon="6.64013">
        <ele>1555</ele>
        <time>2022-05-08T20:22:22Z</time>
      </trkpt>
      <trkpt lat="44.70743" lon="6.63972">
        <ele>1539</ele>
        <time>2022-05-08T20:22:30Z</time>
      </trkpt>
      <trkpt lat="44.70735" lon="6.63962">
        <ele>1536</ele>
        <time>2022-05-08T20:22:33Z</time>
      </trkpt>
      <trkpt lat="44.70715" lon="6.63953">
        <ele>1536</ele>
        <time>2022-05-08T20:22:38Z</time>
      </trkpt>
      <trkpt lat="44.70705" lon="6.63945">
        <ele>1534</ele>
        <time>2022-05-08T20:22:41Z</time>
      </trkpt>
      <trkpt lat="44.70677" lon="6.63905">
        <ele>1523</ele>
        <time>2022-05-08T20:22:50Z</time>
      </trkpt>
      <trkpt lat="44.70653" lon="6.63884">
        <ele>1518</ele>
        <time>2022-05-08T20:22:57Z</time>
      </trkpt>
      <trkpt lat="44.70626" lon="6.63832">
        <ele>1501</ele>
        <time>2022-05-08T20:23:07Z</time>
      </trkpt>
      <trkpt lat="44.70584" lon="6.63779">
        <ele>1485</ele>
        <time>2022-05-08T20:23:20Z</time>
      </trkpt>
      <trkpt lat="44.70564" lon="6.63783">
        <ele>1489</ele>
        <time>2022-05-08T20:23:25Z</time>
      </trkpt>
      <trkpt lat="44.70533" lon="6.63761">
        <ele>1481</ele>
        <time>2022-05-08T20:23:33Z</time>
      </trkpt>
      <trkpt lat="44.70544" lon="6.63754">
        <ele>1477</ele>
        <time>2022-05-08T20:23:36Z</time>
      </trkpt>
      <trkpt lat="44.70551" lon="6.63753">
        <ele>1475</ele>
        <time>2022-05-08T20:23:38Z</time>
      </trkpt>
      <trkpt lat="44.70535" lon="6.63737">
        <ele>1470</ele>
        <time>2022-05-08T20:23:42Z</time>
      </trkpt>
      <trkpt lat="44.7053" lon="6.63726">
        <ele>1466</ele>
        <time>2022-05-08T20:23:44Z</time>
      </trkpt>
      <trkpt lat="44.70523" lon="6.63693">
        <ele>1453</ele>
        <time>2022-05-08T20:23:50Z</time>
      </trkpt>
      <trkpt lat="44.7051" lon="6.6367">
        <ele>1445</ele>
        <time>2022-05-08T20:23:55Z</time>
      </trkpt>
      <trkpt lat="44.70501" lon="6.63669">
        <ele>1446</ele>
        <time>2022-05-08T20:23:57Z</time>
      </trkpt>
      <trkpt lat="44.70479" lon="6.63678">
        <ele>1448</ele>
        <time>2022-05-08T20:24:02Z</time>
      </trkpt>
      <trkpt lat="44.70457" lon="6.63677">
        <ele>1445</ele>
        <time>2022-05-08T20:24:08Z</time>
      </trkpt>
      <trkpt lat="44.70448" lon="6.63672">
        <ele>1442</ele>
        <time>2022-05-08T20:24:10Z</time>
      </trkpt>
      <trkpt lat="44.70451" lon="6.63664">
        <ele>1439</ele>
        <time>2022-05-08T20:24:11Z</time>
      </trkpt>
      <trkpt lat="44.70472" lon="6.63648">
        <ele>1434</ele>
        <time>2022-05-08T20:24:17Z</time>
      </trkpt>
      <trkpt lat="44.70505" lon="6.6361">
        <ele>1418</ele>
        <time>2022-05-08T20:24:27Z</time>
      </trkpt>
      <trkpt lat="44.70491" lon="6.63612">
        <ele>1419</ele>
        <time>2022-05-08T20:24:30Z</time>
      </trkpt>
      <trkpt lat="44.70482" lon="6.63616">
        <ele>1420</ele>
        <time>2022-05-08T20:24:32Z</time>
      </trkpt>
      <trkpt lat="44.70461" lon="6.63612">
        <ele>1416</ele>
        <time>2022-05-08T20:24:37Z</time>
      </trkpt>
      <trkpt lat="44.7045" lon="6.63618">
        <ele>1418</ele>
        <time>2022-05-08T20:24:40Z</time>
      </trkpt>
      <trkpt lat="44.7044" lon="6.63618">
        <ele>1417</ele>
        <time>2022-05-08T20:24:42Z</time>
      </trkpt>
      <trkpt lat="44.70412" lon="6.63601">
        <ele>1407</ele>
        <time>2022-05-08T20:24:50Z</time>
      </trkpt>
      <trkpt lat="44.70398" lon="6.63606">
        <ele>1406</ele>
        <time>2022-05-08T20:24:53Z</time>
      </trkpt>
      <trkpt lat="44.70376" lon="6.63607">
        <ele>1401</ele>
        <time>2022-05-08T20:24:58Z</time>
      </trkpt>
      <trkpt lat="44.70352" lon="6.63594">
        <ele>1389</ele>
        <time>2022-05-08T20:25:04Z</time>
      </trkpt>
      <trkpt lat="44.70318" lon="6.63568">
        <ele>1373</ele>
        <time>2022-05-08T20:25:13Z</time>
      </trkpt>
      <trkpt lat="44.70291" lon="6.63536">
        <ele>1358</ele>
        <time>2022-05-08T20:25:21Z</time>
      </trkpt>
      <trkpt lat="44.70261" lon="6.63536">
        <ele>1356</ele>
        <time>2022-05-08T20:25:28Z</time>
      </trkpt>
      <trkpt lat="44.70238" lon="6.63545">
        <ele>1358</ele>
        <time>2022-05-08T20:25:34Z</time>
      </trkpt>
      <trkpt lat="44.7021" lon="6.63541">
        <ele>1352</ele>
        <time>2022-05-08T20:25:41Z</time>
      </trkpt>
      <trkpt lat="44.70196" lon="6.63543">
        <ele>1351</ele>
        <time>2022-05-08T20:25:44Z</time>
      </trkpt>
      <trkpt lat="44.70162" lon="6.63568">
        <ele>1354</ele>
        <time>2022-05-08T20:25:53Z</time>
      </trkpt>
      <trkpt lat="44.70152" lon="6.63569">
        <ele>1352</ele>
        <time>2022-05-08T20:25:55Z</time>
      </trkpt>
      <trkpt lat="44.70144" lon="6.63563">
        <ele>1348</ele>
        <time>2022-05-08T20:25:57Z</time>
      </trkpt>
      <trkpt lat="44.70166" lon="6.63535">
        <ele>1343</ele>
        <time>2022-05-08T20:26:04Z</time>
      </trkpt>
      <trkpt lat="44.70175" lon="6.63514">
        <ele>1337</ele>
        <time>2022-05-08T20:26:08Z</time>
      </trkpt>
      <trkpt lat="44.7018" lon="6.63493">
        <ele>1330</ele>
        <time>2022-05-08T20:26:12Z</time>
      </trkpt>
      <trkpt lat="44.70185" lon="6.63453">
        <ele>1318</ele>
        <time>2022-05-08T20:26:19Z</time>
      </trkpt>
      <trkpt lat="44.70175" lon="6.63457">
        <ele>1319</ele>
        <time>2022-05-08T20:26:21Z</time>
      </trkpt>
      <trkpt lat="44.70172" lon="6.63471">
        <ele>1323</ele>
        <time>2022-05-08T20:26:23Z</time>
      </trkpt>
      <trkpt lat="44.70163" lon="6.63474">
        <ele>1323</ele>
        <time>2022-05-08T20:26:26Z</time>
      </trkpt>
      <trkpt lat="44.70144" lon="6.63489">
        <ele>1322</ele>
        <time>2022-05-08T20:26:31Z</time>
      </trkpt>
      <trkpt lat="44.70134" lon="6.6349">
        <ele>1320</ele>
        <time>2022-05-08T20:26:33Z</time>
      </trkpt>
      <trkpt lat="44.70125" lon="6.63495">
        <ele>1319</ele>
        <time>2022-05-08T20:26:35Z</time>
      </trkpt>
      <trkpt lat="44.7012" lon="6.63477">
        <ele>1313</ele>
        <time>2022-05-08T20:26:39Z</time>
      </trkpt>
      <trkpt lat="44.70124" lon="6.63446">
        <ele>1307</ele>
        <time>2022-05-08T20:26:44Z</time>
      </trkpt>
      <trkpt lat="44.70129" lon="6.63435">
        <ele>1305</ele>
        <time>2022-05-08T20:26:46Z</time>
      </trkpt>
      <trkpt lat="44.70126" lon="6.63418">
        <ele>1300</ele>
        <time>2022-05-08T20:26:49Z</time>
      </trkpt>
      <trkpt lat="44.70123" lon="6.63409">
        <ele>1297</ele>
        <time>2022-05-08T20:26:50Z</time>
      </trkpt>
      <trkpt lat="44.70109" lon="6.63386">
        <ele>1288</ele>
        <time>2022-05-08T20:26:56Z</time>
      </trkpt>
      <trkpt lat="44.70094" lon="6.63351">
        <ele>1275</ele>
        <time>2022-05-08T20:27:02Z</time>
      </trkpt>
      <trkpt lat="44.70091" lon="6.63365">
        <ele>1279</ele>
        <time>2022-05-08T20:27:05Z</time>
      </trkpt>
      <trkpt lat="44.7008" lon="6.63366">
        <ele>1277</ele>
        <time>2022-05-08T20:27:07Z</time>
      </trkpt>
      <trkpt lat="44.70074" lon="6.63356">
        <ele>1272</ele>
        <time>2022-05-08T20:27:09Z</time>
      </trkpt>
      <trkpt lat="44.70044" lon="6.63376">
        <ele>1268</ele>
        <time>2022-05-08T20:27:17Z</time>
      </trkpt>
      <trkpt lat="44.70037" lon="6.63389">
        <ele>1269</ele>
        <time>2022-05-08T20:27:20Z</time>
      </trkpt>
      <trkpt lat="44.70029" lon="6.63396">
        <ele>1269</ele>
        <time>2022-05-08T20:27:22Z</time>
      </trkpt>
      <trkpt lat="44.70023" lon="6.63406">
        <ele>1270</ele>
        <time>2022-05-08T20:27:24Z</time>
      </trkpt>
      <trkpt lat="44.70013" lon="6.63404">
        <ele>1266</ele>
        <time>2022-05-08T20:27:27Z</time>
      </trkpt>
      <trkpt lat="44.70003" lon="6.63389">
        <ele>1258</ele>
        <time>2022-05-08T20:27:30Z</time>
      </trkpt>
      <trkpt lat="44.69991" lon="6.63378">
        <ele>1251</ele>
        <time>2022-05-08T20:27:33Z</time>
      </trkpt>
      <trkpt lat="44.69984" lon="6.63368">
        <ele>1246</ele>
        <time>2022-05-08T20:27:36Z</time>
      </trkpt>
      <trkpt lat="44.69975" lon="6.63392">
        <ele>1252</ele>
        <time>2022-05-08T20:27:40Z</time>
      </trkpt>
      <trkpt lat="44.69963" lon="6.63364">
        <ele>1240</ele>
        <time>2022-05-08T20:27:46Z</time>
      </trkpt>
      <trkpt lat="44.69962" lon="6.63378">
        <ele>1244</ele>
        <time>2022-05-08T20:27:48Z</time>
      </trkpt>
      <trkpt lat="44.69953" lon="6.6337">
        <ele>1239</ele>
        <time>2022-05-08T20:27:51Z</time>
      </trkpt>
      <trkpt lat="44.69944" lon="6.63366">
        <ele>1236</ele>
        <time>2022-05-08T20:27:53Z</time>
      </trkpt>
      <trkpt lat="44.69933" lon="6.63366">
        <ele>1233</ele>
        <time>2022-05-08T20:27:55Z</time>
      </trkpt>
      <trkpt lat="44.69913" lon="6.63352">
        <ele>1223</ele>
        <time>2022-05-08T20:28:00Z</time>
      </trkpt>
      <trkpt lat="44.6989" lon="6.63353">
        <ele>1222</ele>
        <time>2022-05-08T20:28:06Z</time>
      </trkpt>
      <trkpt lat="44.69883" lon="6.63351">
        <ele>1221</ele>
        <time>2022-05-08T20:28:08Z</time>
      </trkpt>
      <trkpt lat="44.6988" lon="6.63343">
        <ele>1218</ele>
        <time>2022-05-08T20:28:09Z</time>
      </trkpt>
      <trkpt lat="44.69918" lon="6.63291">
        <ele>1203</ele>
        <time>2022-05-08T20:28:21Z</time>
      </trkpt>
      <trkpt lat="44.69889" lon="6.63294">
        <ele>1201</ele>
        <time>2022-05-08T20:28:28Z</time>
      </trkpt>
      <trkpt lat="44.69875" lon="6.63291">
        <ele>1200</ele>
        <time>2022-05-08T20:28:32Z</time>
      </trkpt>
      <trkpt lat="44.69871" lon="6.63288">
        <ele>1198</ele>
        <time>2022-05-08T20:28:33Z</time>
      </trkpt>
      <trkpt lat="44.69896" lon="6.63263">
        <ele>1191</ele>
        <time>2022-05-08T20:28:40Z</time>
      </trkpt>
      <trkpt lat="44.6988" lon="6.63257">
        <ele>1188</ele>
        <time>2022-05-08T20:28:44Z</time>
      </trkpt>
      <trkpt lat="44.69842" lon="6.63228">
        <ele>1176</ele>
        <time>2022-05-08T20:28:54Z</time>
      </trkpt>
      <trkpt lat="44.69838" lon="6.63215">
        <ele>1171</ele>
        <time>2022-05-08T20:28:56Z</time>
      </trkpt>
      <trkpt lat="44.69829" lon="6.6321">
        <ele>1168</ele>
        <time>2022-05-08T20:28:58Z</time>
      </trkpt>
      <trkpt lat="44.69828" lon="6.63195">
        <ele>1163</ele>
        <time>2022-05-08T20:29:01Z</time>
      </trkpt>
      <trkpt lat="44.69812" lon="6.63178">
        <ele>1158</ele>
        <time>2022-05-08T20:29:05Z</time>
      </trkpt>
      <trkpt lat="44.69793" lon="6.63174">
        <ele>1157</ele>
        <time>2022-05-08T20:29:10Z</time>
      </trkpt>
      <trkpt lat="44.6975" lon="6.63135">
        <ele>1151</ele>
        <time>2022-05-08T20:29:22Z</time>
      </trkpt>
      <trkpt lat="44.69731" lon="6.6313">
        <ele>1149</ele>
        <time>2022-05-08T20:29:26Z</time>
      </trkpt>
      <trkpt lat="44.69737" lon="6.63114">
        <ele>1146</ele>
        <time>2022-05-08T20:29:29Z</time>
      </trkpt>
      <trkpt lat="44.69744" lon="6.63105">
        <ele>1144</ele>
        <time>2022-05-08T20:29:32Z</time>
      </trkpt>
      <trkpt lat="44.69715" lon="6.63086">
        <ele>1138</ele>
        <time>2022-05-08T20:29:39Z</time>
      </trkpt>
      <trkpt lat="44.69723" lon="6.63062">
        <ele>1138</ele>
        <time>2022-05-08T20:29:44Z</time>
      </trkpt>
      <trkpt lat="44.69713" lon="6.63054">
        <ele>1136</ele>
        <time>2022-05-08T20:29:46Z</time>
      </trkpt>
      <trkpt lat="44.69689" lon="6.63004">
        <ele>1127</ele>
        <time>2022-05-08T20:29:56Z</time>
      </trkpt>
      <trkpt lat="44.6968" lon="6.62996">
        <ele>1123</ele>
        <time>2022-05-08T20:29:59Z</time>
      </trkpt>
      <trkpt lat="44.69654" lon="6.62986">
        <ele>1119</ele>
        <time>2022-05-08T20:30:05Z</time>
      </trkpt>
      <trkpt lat="44.69614" lon="6.62966">
        <ele>1116</ele>
        <time>2022-05-08T20:30:15Z</time>
      </trkpt>
      <trkpt lat="44.69548" lon="6.62959">
        <ele>1116</ele>
        <time>2022-05-08T20:30:30Z</time>
      </trkpt>
      <trkpt lat="44.69528" lon="6.62953">
        <ele>1116</ele>
        <time>2022-05-08T20:30:35Z</time>
      </trkpt>
      <trkpt lat="44.6951" lon="6.62943">
        <ele>1115</ele>
        <time>2022-05-08T20:30:40Z</time>
      </trkpt>
      <trkpt lat="44.69495" lon="6.62943">
        <ele>1116</ele>
        <time>2022-05-08T20:30:43Z</time>
      </trkpt>
      <trkpt lat="44.69468" lon="6.62937">
        <ele>1120</ele>
        <time>2022-05-08T20:30:50Z</time>
      </trkpt>
      <trkpt lat="44.69458" lon="6.62929">
        <ele>1120</ele>
        <time>2022-05-08T20:30:52Z</time>
      </trkpt>
      <trkpt lat="44.69453" lon="6.62921">
        <ele>1118</ele>
        <time>2022-05-08T20:30:54Z</time>
      </trkpt>
      <trkpt lat="44.69435" lon="6.62907">
        <ele>1118</ele>
        <time>2022-05-08T20:30:59Z</time>
      </trkpt>
      <trkpt lat="44.69425" lon="6.62904">
        <ele>1119</ele>
        <time>2022-05-08T20:31:01Z</time>
      </trkpt>
      <trkpt lat="44.69415" lon="6.62909">
        <ele>1122</ele>
        <time>2022-05-08T20:31:04Z</time>
      </trkpt>
      <trkpt lat="44.69405" lon="6.6291">
        <ele>1123</ele>
        <time>2022-05-08T20:31:06Z</time>
      </trkpt>
      <trkpt lat="44.69389" lon="6.62897">
        <ele>1121</ele>
        <time>2022-05-08T20:31:10Z</time>
      </trkpt>
      <trkpt lat="44.69374" lon="6.6288">
        <ele>1117</ele>
        <time>2022-05-08T20:31:15Z</time>
      </trkpt>
      <trkpt lat="44.69367" lon="6.62877">
        <ele>1117</ele>
        <time>2022-05-08T20:31:17Z</time>
      </trkpt>
      <trkpt lat="44.69348" lon="6.62887">
        <ele>1122</ele>
        <time>2022-05-08T20:31:21Z</time>
      </trkpt>
      <trkpt lat="44.69342" lon="6.62888">
        <ele>1123</ele>
        <time>2022-05-08T20:31:23Z</time>
      </trkpt>
      <trkpt lat="44.69318" lon="6.62907">
        <ele>1129</ele>
        <time>2022-05-08T20:31:29Z</time>
      </trkpt>
      <trkpt lat="44.693" lon="6.62914">
        <ele>1130</ele>
        <time>2022-05-08T20:31:33Z</time>
      </trkpt>
      <trkpt lat="44.69284" lon="6.62925">
        <ele>1133</ele>
        <time>2022-05-08T20:31:38Z</time>
      </trkpt>
      <trkpt lat="44.6927" lon="6.62938">
        <ele>1135</ele>
        <time>2022-05-08T20:31:42Z</time>
      </trkpt>
      <trkpt lat="44.69249" lon="6.62969">
        <ele>1140</ele>
        <time>2022-05-08T20:31:49Z</time>
      </trkpt>
      <trkpt lat="44.69223" lon="6.62994">
        <ele>1143</ele>
        <time>2022-05-08T20:31:56Z</time>
      </trkpt>
      <trkpt lat="44.69203" lon="6.6302">
        <ele>1144</ele>
        <time>2022-05-08T20:32:02Z</time>
      </trkpt>
      <trkpt lat="44.69192" lon="6.63028">
        <ele>1144</ele>
        <time>2022-05-08T20:32:05Z</time>
      </trkpt>
      <trkpt lat="44.69177" lon="6.6303">
        <ele>1143</ele>
        <time>2022-05-08T20:32:09Z</time>
      </trkpt>
      <trkpt lat="44.69155" lon="6.63044">
        <ele>1140</ele>
        <time>2022-05-08T20:32:14Z</time>
      </trkpt>
      <trkpt lat="44.69144" lon="6.63069">
        <ele>1140</ele>
        <time>2022-05-08T20:32:19Z</time>
      </trkpt>
      <trkpt lat="44.69135" lon="6.63113">
        <ele>1137</ele>
        <time>2022-05-08T20:32:27Z</time>
      </trkpt>
      <trkpt lat="44.69137" lon="6.63124">
        <ele>1137</ele>
        <time>2022-05-08T20:32:29Z</time>
      </trkpt>
      <trkpt lat="44.6917" lon="6.63196">
        <ele>1143</ele>
        <time>2022-05-08T20:32:43Z</time>
      </trkpt>
      <trkpt lat="44.69179" lon="6.63254">
        <ele>1140</ele>
        <time>2022-05-08T20:32:53Z</time>
      </trkpt>
      <trkpt lat="44.69212" lon="6.63383">
        <ele>1150</ele>
        <time>2022-05-08T20:33:16Z</time>
      </trkpt>
      <trkpt lat="44.69207" lon="6.63401">
        <ele>1149</ele>
        <time>2022-05-08T20:33:19Z</time>
      </trkpt>
      <trkpt lat="44.69184" lon="6.63439">
        <ele>1147</ele>
        <time>2022-05-08T20:33:27Z</time>
      </trkpt>
      <trkpt lat="44.69174" lon="6.63448">
        <ele>1146</ele>
        <time>2022-05-08T20:33:30Z</time>
      </trkpt>
      <trkpt lat="44.69171" lon="6.63448">
        <ele>1145</ele>
        <time>2022-05-08T20:33:31Z</time>
      </trkpt>
      <trkpt lat="44.69164" lon="6.63422">
        <ele>1141</ele>
        <time>2022-05-08T20:33:35Z</time>
      </trkpt>
      <trkpt lat="44.69126" lon="6.63387">
        <ele>1136</ele>
        <time>2022-05-08T20:33:46Z</time>
      </trkpt>
      <trkpt lat="44.69113" lon="6.63378">
        <ele>1134</ele>
        <time>2022-05-08T20:33:49Z</time>
      </trkpt>
      <trkpt lat="44.69101" lon="6.63373">
        <ele>1133</ele>
        <time>2022-05-08T20:33:52Z</time>
      </trkpt>
      <trkpt lat="44.69073" lon="6.63367">
        <ele>1131</ele>
        <time>2022-05-08T20:33:59Z</time>
      </trkpt>
      <trkpt lat="44.69062" lon="6.63367">
        <ele>1132</ele>
        <time>2022-05-08T20:34:01Z</time>
      </trkpt>
      <trkpt lat="44.69044" lon="6.63372">
        <ele>1135</ele>
        <time>2022-05-08T20:34:06Z</time>
      </trkpt>
      <trkpt lat="44.69022" lon="6.63365">
        <ele>1135</ele>
        <time>2022-05-08T20:34:11Z</time>
      </trkpt>
      <trkpt lat="44.6899" lon="6.63367">
        <ele>1138</ele>
        <time>2022-05-08T20:34:18Z</time>
      </trkpt>
      <trkpt lat="44.68962" lon="6.63359">
        <ele>1141</ele>
        <time>2022-05-08T20:34:25Z</time>
      </trkpt>
      <trkpt lat="44.6895" lon="6.63353">
        <ele>1141</ele>
        <time>2022-05-08T20:34:28Z</time>
      </trkpt>
      <trkpt lat="44.68931" lon="6.63331">
        <ele>1139</ele>
        <time>2022-05-08T20:34:34Z</time>
      </trkpt>
      <trkpt lat="44.68918" lon="6.6331">
        <ele>1136</ele>
        <time>2022-05-08T20:34:38Z</time>
      </trkpt>
      <trkpt lat="44.68911" lon="6.63306">
        <ele>1135</ele>
        <time>2022-05-08T20:34:40Z</time>
      </trkpt>
      <trkpt lat="44.6892" lon="6.63344">
        <ele>1144</ele>
        <time>2022-05-08T20:34:47Z</time>
      </trkpt>
      <trkpt lat="44.68928" lon="6.63363">
        <ele>1146</ele>
        <time>2022-05-08T20:34:50Z</time>
      </trkpt>
      <trkpt lat="44.68945" lon="6.63383">
        <ele>1148</ele>
        <time>2022-05-08T20:34:56Z</time>
      </trkpt>
      <trkpt lat="44.68958" lon="6.63392">
        <ele>1148</ele>
        <time>2022-05-08T20:34:59Z</time>
      </trkpt>
      <trkpt lat="44.68991" lon="6.63445">
        <ele>1157</ele>
        <time>2022-05-08T20:35:11Z</time>
      </trkpt>
      <trkpt lat="44.69003" lon="6.63483">
        <ele>1166</ele>
        <time>2022-05-08T20:35:18Z</time>
      </trkpt>
      <trkpt lat="44.69001" lon="6.63495">
        <ele>1170</ele>
        <time>2022-05-08T20:35:20Z</time>
      </trkpt>
      <trkpt lat="44.68996" lon="6.63496">
        <ele>1170</ele>
        <time>2022-05-08T20:35:21Z</time>
      </trkpt>
      <trkpt lat="44.68988" lon="6.63477">
        <ele>1165</ele>
        <time>2022-05-08T20:35:25Z</time>
      </trkpt>
      <trkpt lat="44.68979" lon="6.63463">
        <ele>1162</ele>
        <time>2022-05-08T20:35:28Z</time>
      </trkpt>
      <trkpt lat="44.68969" lon="6.63453">
        <ele>1161</ele>
        <time>2022-05-08T20:35:31Z</time>
      </trkpt>
      <trkpt lat="44.68956" lon="6.6345">
        <ele>1161</ele>
        <time>2022-05-08T20:35:34Z</time>
      </trkpt>
      <trkpt lat="44.68913" lon="6.63478">
        <ele>1168</ele>
        <time>2022-05-08T20:35:45Z</time>
      </trkpt>
      <trkpt lat="44.68902" lon="6.63488">
        <ele>1168</ele>
        <time>2022-05-08T20:35:48Z</time>
      </trkpt>
      <trkpt lat="44.68867" lon="6.63512">
        <ele>1168</ele>
        <time>2022-05-08T20:35:57Z</time>
      </trkpt>
      <trkpt lat="44.68834" lon="6.63532">
        <ele>1166</ele>
        <time>2022-05-08T20:36:05Z</time>
      </trkpt>
      <trkpt lat="44.68801" lon="6.63557">
        <ele>1163</ele>
        <time>2022-05-08T20:36:14Z</time>
      </trkpt>
      <trkpt lat="44.68785" lon="6.63566">
        <ele>1162</ele>
        <time>2022-05-08T20:36:18Z</time>
      </trkpt>
      <trkpt lat="44.68766" lon="6.63587">
        <ele>1160</ele>
        <time>2022-05-08T20:36:24Z</time>
      </trkpt>
      <trkpt lat="44.68767" lon="6.63604">
        <ele>1161</ele>
        <time>2022-05-08T20:36:26Z</time>
      </trkpt>
      <trkpt lat="44.68776" lon="6.63635">
        <ele>1164</ele>
        <time>2022-05-08T20:36:32Z</time>
      </trkpt>
      <trkpt lat="44.68798" lon="6.6368">
        <ele>1172</ele>
        <time>2022-05-08T20:36:41Z</time>
      </trkpt>
      <trkpt lat="44.68806" lon="6.63705">
        <ele>1175</ele>
        <time>2022-05-08T20:36:46Z</time>
      </trkpt>
      <trkpt lat="44.68808" lon="6.63726">
        <ele>1177</ele>
        <time>2022-05-08T20:36:49Z</time>
      </trkpt>
      <trkpt lat="44.68806" lon="6.63744">
        <ele>1178</ele>
        <time>2022-05-08T20:36:52Z</time>
      </trkpt>
      <trkpt lat="44.68799" lon="6.63763">
        <ele>1177</ele>
        <time>2022-05-08T20:36:56Z</time>
      </trkpt>
      <trkpt lat="44.68779" lon="6.6379">
        <ele>1172</ele>
        <time>2022-05-08T20:37:02Z</time>
      </trkpt>
      <trkpt lat="44.68775" lon="6.638">
        <ele>1171</ele>
        <time>2022-05-08T20:37:04Z</time>
      </trkpt>
      <trkpt lat="44.68777" lon="6.63838">
        <ele>1176</ele>
        <time>2022-05-08T20:37:10Z</time>
      </trkpt>
      <trkpt lat="44.68769" lon="6.63894">
        <ele>1181</ele>
        <time>2022-05-08T20:37:20Z</time>
      </trkpt>
      <trkpt lat="44.68772" lon="6.63927">
        <ele>1187</ele>
        <time>2022-05-08T20:37:25Z</time>
      </trkpt>
      <trkpt lat="44.68764" lon="6.6395">
        <ele>1189</ele>
        <time>2022-05-08T20:37:30Z</time>
      </trkpt>
      <trkpt lat="44.68761" lon="6.63971">
        <ele>1193</ele>
        <time>2022-05-08T20:37:33Z</time>
      </trkpt>
      <trkpt lat="44.68763" lon="6.6399">
        <ele>1198</ele>
        <time>2022-05-08T20:37:36Z</time>
      </trkpt>
      <trkpt lat="44.6876" lon="6.64002">
        <ele>1199</ele>
        <time>2022-05-08T20:37:39Z</time>
      </trkpt>
      <trkpt lat="44.68754" lon="6.64">
        <ele>1197</ele>
        <time>2022-05-08T20:37:40Z</time>
      </trkpt>
      <trkpt lat="44.68745" lon="6.6399">
        <ele>1194</ele>
        <time>2022-05-08T20:37:43Z</time>
      </trkpt>
      <trkpt lat="44.68741" lon="6.63995">
        <ele>1194</ele>
        <time>2022-05-08T20:37:44Z</time>
      </trkpt>
      <trkpt lat="44.68726" lon="6.63966">
        <ele>1188</ele>
        <time>2022-05-08T20:37:50Z</time>
      </trkpt>
      <trkpt lat="44.68713" lon="6.63957">
        <ele>1185</ele>
        <time>2022-05-08T20:37:53Z</time>
      </trkpt>
      <trkpt lat="44.6869" lon="6.6396">
        <ele>1184</ele>
        <time>2022-05-08T20:37:59Z</time>
      </trkpt>
      <trkpt lat="44.68675" lon="6.63993">
        <ele>1191</ele>
        <time>2022-05-08T20:38:05Z</time>
      </trkpt>
      <trkpt lat="44.6866" lon="6.63998">
        <ele>1192</ele>
        <time>2022-05-08T20:38:09Z</time>
      </trkpt>
      <trkpt lat="44.6864" lon="6.63998">
        <ele>1195</ele>
        <time>2022-05-08T20:38:13Z</time>
      </trkpt>
      <trkpt lat="44.68617" lon="6.6399">
        <ele>1196</ele>
        <time>2022-05-08T20:38:19Z</time>
      </trkpt>
      <trkpt lat="44.68582" lon="6.63959">
        <ele>1192</ele>
        <time>2022-05-08T20:38:29Z</time>
      </trkpt>
      <trkpt lat="44.68563" lon="6.63968">
        <ele>1198</ele>
        <time>2022-05-08T20:38:33Z</time>
      </trkpt>
      <trkpt lat="44.68557" lon="6.63933">
        <ele>1191</ele>
        <time>2022-05-08T20:38:39Z</time>
      </trkpt>
      <trkpt lat="44.68522" lon="6.63863">
        <ele>1185</ele>
        <time>2022-05-08T20:38:53Z</time>
      </trkpt>
      <trkpt lat="44.68499" lon="6.63862">
        <ele>1188</ele>
        <time>2022-05-08T20:38:59Z</time>
      </trkpt>
      <trkpt lat="44.68462" lon="6.63884">
        <ele>1187</ele>
        <time>2022-05-08T20:39:08Z</time>
      </trkpt>
      <trkpt lat="44.68439" lon="6.63904">
        <ele>1188</ele>
        <time>2022-05-08T20:39:15Z</time>
      </trkpt>
      <trkpt lat="44.68379" lon="6.6394">
        <ele>1188</ele>
        <time>2022-05-08T20:39:30Z</time>
      </trkpt>
      <trkpt lat="44.6834" lon="6.63938">
        <ele>1184</ele>
        <time>2022-05-08T20:39:39Z</time>
      </trkpt>
      <trkpt lat="44.68324" lon="6.63934">
        <ele>1182</ele>
        <time>2022-05-08T20:39:43Z</time>
      </trkpt>
      <trkpt lat="44.683" lon="6.63942">
        <ele>1179</ele>
        <time>2022-05-08T20:39:48Z</time>
      </trkpt>
      <trkpt lat="44.68273" lon="6.63957">
        <ele>1175</ele>
        <time>2022-05-08T20:39:55Z</time>
      </trkpt>
      <trkpt lat="44.68252" lon="6.63991">
        <ele>1175</ele>
        <time>2022-05-08T20:40:03Z</time>
      </trkpt>
      <trkpt lat="44.68259" lon="6.6406">
        <ele>1182</ele>
        <time>2022-05-08T20:40:14Z</time>
      </trkpt>
      <trkpt lat="44.68256" lon="6.64108">
        <ele>1184</ele>
        <time>2022-05-08T20:40:22Z</time>
      </trkpt>
      <trkpt lat="44.68258" lon="6.64183">
        <ele>1191</ele>
        <time>2022-05-08T20:40:35Z</time>
      </trkpt>
      <trkpt lat="44.68237" lon="6.64195">
        <ele>1188</ele>
        <time>2022-05-08T20:40:40Z</time>
      </trkpt>
      <trkpt lat="44.6819" lon="6.64175">
        <ele>1181</ele>
        <time>2022-05-08T20:40:52Z</time>
      </trkpt>
      <trkpt lat="44.68158" lon="6.64179">
        <ele>1178</ele>
        <time>2022-05-08T20:40:59Z</time>
      </trkpt>
      <trkpt lat="44.68162" lon="6.64222">
        <ele>1181</ele>
        <time>2022-05-08T20:41:06Z</time>
      </trkpt>
      <trkpt lat="44.68158" lon="6.64274">
        <ele>1183</ele>
        <time>2022-05-08T20:41:15Z</time>
      </trkpt>
      <trkpt lat="44.68138" lon="6.64288">
        <ele>1178</ele>
        <time>2022-05-08T20:41:20Z</time>
      </trkpt>
      <trkpt lat="44.68138" lon="6.64319">
        <ele>1178</ele>
        <time>2022-05-08T20:41:25Z</time>
      </trkpt>
      <trkpt lat="44.68153" lon="6.64363">
        <ele>1181</ele>
        <time>2022-05-08T20:41:33Z</time>
      </trkpt>
      <trkpt lat="44.68154" lon="6.64391">
        <ele>1178</ele>
        <time>2022-05-08T20:41:38Z</time>
      </trkpt>
      <trkpt lat="44.68166" lon="6.64406">
        <ele>1182</ele>
        <time>2022-05-08T20:41:42Z</time>
      </trkpt>
      <trkpt lat="44.68196" lon="6.64421">
        <ele>1191</ele>
        <time>2022-05-08T20:41:49Z</time>
      </trkpt>
      <trkpt lat="44.68202" lon="6.64439">
        <ele>1189</ele>
        <time>2022-05-08T20:41:52Z</time>
      </trkpt>
      <trkpt lat="44.68213" lon="6.64457">
        <ele>1189</ele>
        <time>2022-05-08T20:41:56Z</time>
      </trkpt>
      <trkpt lat="44.68226" lon="6.64462">
        <ele>1193</ele>
        <time>2022-05-08T20:42:00Z</time>
      </trkpt>
      <trkpt lat="44.68238" lon="6.64475">
        <ele>1195</ele>
        <time>2022-05-08T20:42:03Z</time>
      </trkpt>
      <trkpt lat="44.6825" lon="6.64468">
        <ele>1201</ele>
        <time>2022-05-08T20:42:06Z</time>
      </trkpt>
      <trkpt lat="44.68259" lon="6.64485">
        <ele>1202</ele>
        <time>2022-05-08T20:42:10Z</time>
      </trkpt>
      <trkpt lat="44.68271" lon="6.64501">
        <ele>1206</ele>
        <time>2022-05-08T20:42:14Z</time>
      </trkpt>
      <trkpt lat="44.68293" lon="6.64559">
        <ele>1211</ele>
        <time>2022-05-08T20:42:24Z</time>
      </trkpt>
      <trkpt lat="44.68315" lon="6.64637">
        <ele>1213</ele>
        <time>2022-05-08T20:42:38Z</time>
      </trkpt>
      <trkpt lat="44.68344" lon="6.64695">
        <ele>1224</ele>
        <time>2022-05-08T20:42:50Z</time>
      </trkpt>
      <trkpt lat="44.68349" lon="6.64739">
        <ele>1226</ele>
        <time>2022-05-08T20:42:58Z</time>
      </trkpt>
      <trkpt lat="44.68347" lon="6.6478">
        <ele>1227</ele>
        <time>2022-05-08T20:43:04Z</time>
      </trkpt>
      <trkpt lat="44.68326" lon="6.64822">
        <ele>1221</ele>
        <time>2022-05-08T20:43:13Z</time>
      </trkpt>
      <trkpt lat="44.68325" lon="6.64833">
        <ele>1222</ele>
        <time>2022-05-08T20:43:15Z</time>
      </trkpt>
      <trkpt lat="44.6834" lon="6.64849">
        <ele>1232</ele>
        <time>2022-05-08T20:43:19Z</time>
      </trkpt>
      <trkpt lat="44.68345" lon="6.6486">
        <ele>1236</ele>
        <time>2022-05-08T20:43:21Z</time>
      </trkpt>
      <trkpt lat="44.68336" lon="6.64876">
        <ele>1235</ele>
        <time>2022-05-08T20:43:25Z</time>
      </trkpt>
      <trkpt lat="44.68318" lon="6.64895">
        <ele>1231</ele>
        <time>2022-05-08T20:43:30Z</time>
      </trkpt>
      <trkpt lat="44.68312" lon="6.64906">
        <ele>1231</ele>
        <time>2022-05-08T20:43:32Z</time>
      </trkpt>
      <trkpt lat="44.68305" lon="6.64932">
        <ele>1238</ele>
        <time>2022-05-08T20:43:37Z</time>
      </trkpt>
      <trkpt lat="44.68301" lon="6.64937">
        <ele>1239</ele>
        <time>2022-05-08T20:43:38Z</time>
      </trkpt>
      <trkpt lat="44.68275" lon="6.64956">
        <ele>1237</ele>
        <time>2022-05-08T20:43:45Z</time>
      </trkpt>
      <trkpt lat="44.68262" lon="6.64971">
        <ele>1239</ele>
        <time>2022-05-08T20:43:49Z</time>
      </trkpt>
      <trkpt lat="44.68257" lon="6.64982">
        <ele>1242</ele>
        <time>2022-05-08T20:43:51Z</time>
      </trkpt>
      <trkpt lat="44.68247" lon="6.64988">
        <ele>1240</ele>
        <time>2022-05-08T20:43:54Z</time>
      </trkpt>
      <trkpt lat="44.6824" lon="6.64998">
        <ele>1242</ele>
        <time>2022-05-08T20:43:56Z</time>
      </trkpt>
      <trkpt lat="44.68226" lon="6.65009">
        <ele>1241</ele>
        <time>2022-05-08T20:44:00Z</time>
      </trkpt>
      <trkpt lat="44.6821" lon="6.65032">
        <ele>1242</ele>
        <time>2022-05-08T20:44:05Z</time>
      </trkpt>
      <trkpt lat="44.68195" lon="6.65044">
        <ele>1239</ele>
        <time>2022-05-08T20:44:09Z</time>
      </trkpt>
      <trkpt lat="44.68185" lon="6.6506">
        <ele>1239</ele>
        <time>2022-05-08T20:44:13Z</time>
      </trkpt>
      <trkpt lat="44.68178" lon="6.65063">
        <ele>1236</ele>
        <time>2022-05-08T20:44:14Z</time>
      </trkpt>
      <trkpt lat="44.68174" lon="6.6507">
        <ele>1236</ele>
        <time>2022-05-08T20:44:16Z</time>
      </trkpt>
      <trkpt lat="44.68172" lon="6.6508">
        <ele>1237</ele>
        <time>2022-05-08T20:44:18Z</time>
      </trkpt>
      <trkpt lat="44.68197" lon="6.65138">
        <ele>1260</ele>
        <time>2022-05-08T20:44:29Z</time>
      </trkpt>
      <trkpt lat="44.68206" lon="6.65172">
        <ele>1270</ele>
        <time>2022-05-08T20:44:35Z</time>
      </trkpt>
      <trkpt lat="44.68202" lon="6.65183">
        <ele>1271</ele>
        <time>2022-05-08T20:44:37Z</time>
      </trkpt>
      <trkpt lat="44.68183" lon="6.65199">
        <ele>1266</ele>
        <time>2022-05-08T20:44:42Z</time>
      </trkpt>
      <trkpt lat="44.68178" lon="6.65215">
        <ele>1268</ele>
        <time>2022-05-08T20:44:45Z</time>
      </trkpt>
      <trkpt lat="44.68166" lon="6.65224">
        <ele>1264</ele>
        <time>2022-05-08T20:44:48Z</time>
      </trkpt>
      <trkpt lat="44.68144" lon="6.65232">
        <ele>1258</ele>
        <time>2022-05-08T20:44:53Z</time>
      </trkpt>
      <trkpt lat="44.68134" lon="6.65239">
        <ele>1256</ele>
        <time>2022-05-08T20:44:56Z</time>
      </trkpt>
      <trkpt lat="44.6815" lon="6.65202">
        <ele>1251</ele>
        <time>2022-05-08T20:45:03Z</time>
      </trkpt>
      <trkpt lat="44.68129" lon="6.65206">
        <ele>1243</ele>
        <time>2022-05-08T20:45:08Z</time>
      </trkpt>
      <trkpt lat="44.68093" lon="6.65226">
        <ele>1235</ele>
        <time>2022-05-08T20:45:17Z</time>
      </trkpt>
      <trkpt lat="44.68101" lon="6.65202">
        <ele>1231</ele>
        <time>2022-05-08T20:45:22Z</time>
      </trkpt>
      <trkpt lat="44.6812" lon="6.65168">
        <ele>1227</ele>
        <time>2022-05-08T20:45:29Z</time>
      </trkpt>
      <trkpt lat="44.68093" lon="6.65179">
        <ele>1219</ele>
        <time>2022-05-08T20:45:35Z</time>
      </trkpt>
      <trkpt lat="44.68074" lon="6.65192">
        <ele>1216</ele>
        <time>2022-05-08T20:45:40Z</time>
      </trkpt>
      <trkpt lat="44.68051" lon="6.65198">
        <ele>1210</ele>
        <time>2022-05-08T20:45:46Z</time>
      </trkpt>
      <trkpt lat="44.6804" lon="6.65204">
        <ele>1208</ele>
        <time>2022-05-08T20:45:48Z</time>
      </trkpt>
      <trkpt lat="44.68031" lon="6.65213">
        <ele>1208</ele>
        <time>2022-05-08T20:45:51Z</time>
      </trkpt>
      <trkpt lat="44.68025" lon="6.6521">
        <ele>1205</ele>
        <time>2022-05-08T20:45:53Z</time>
      </trkpt>
      <trkpt lat="44.68026" lon="6.65202">
        <ele>1203</ele>
        <time>2022-05-08T20:45:54Z</time>
      </trkpt>
      <trkpt lat="44.68045" lon="6.65162">
        <ele>1196</ele>
        <time>2022-05-08T20:46:02Z</time>
      </trkpt>
      <trkpt lat="44.68062" lon="6.6513">
        <ele>1196</ele>
        <time>2022-05-08T20:46:09Z</time>
      </trkpt>
      <trkpt lat="44.68073" lon="6.65125">
        <ele>1198</ele>
        <time>2022-05-08T20:46:11Z</time>
      </trkpt>
      <trkpt lat="44.68079" lon="6.65117">
        <ele>1199</ele>
        <time>2022-05-08T20:46:13Z</time>
      </trkpt>
      <trkpt lat="44.68075" lon="6.65115">
        <ele>1197</ele>
        <time>2022-05-08T20:46:14Z</time>
      </trkpt>
      <trkpt lat="44.68066" lon="6.65114">
        <ele>1194</ele>
        <time>2022-05-08T20:46:16Z</time>
      </trkpt>
      <trkpt lat="44.6803" lon="6.65125">
        <ele>1183</ele>
        <time>2022-05-08T20:46:25Z</time>
      </trkpt>
      <trkpt lat="44.6802" lon="6.6512">
        <ele>1179</ele>
        <time>2022-05-08T20:46:27Z</time>
      </trkpt>
      <trkpt lat="44.67984" lon="6.65133">
        <ele>1169</ele>
        <time>2022-05-08T20:46:36Z</time>
      </trkpt>
      <trkpt lat="44.67972" lon="6.65139">
        <ele>1167</ele>
        <time>2022-05-08T20:46:39Z</time>
      </trkpt>
      <trkpt lat="44.67964" lon="6.65147">
        <ele>1166</ele>
        <time>2022-05-08T20:46:41Z</time>
      </trkpt>
      <trkpt lat="44.67957" lon="6.65162">
        <ele>1167</ele>
        <time>2022-05-08T20:46:44Z</time>
      </trkpt>
      <trkpt lat="44.67948" lon="6.65173">
        <ele>1167</ele>
        <time>2022-05-08T20:46:47Z</time>
      </trkpt>
      <trkpt lat="44.67918" lon="6.65184">
        <ele>1161</ele>
        <time>2022-05-08T20:46:54Z</time>
      </trkpt>
      <trkpt lat="44.67928" lon="6.65146">
        <ele>1155</ele>
        <time>2022-05-08T20:47:01Z</time>
      </trkpt>
      <trkpt lat="44.67925" lon="6.65135">
        <ele>1153</ele>
        <time>2022-05-08T20:47:03Z</time>
      </trkpt>
      <trkpt lat="44.67901" lon="6.65151">
        <ele>1148</ele>
        <time>2022-05-08T20:47:09Z</time>
      </trkpt>
      <trkpt lat="44.67901" lon="6.6516">
        <ele>1149</ele>
        <time>2022-05-08T20:47:11Z</time>
      </trkpt>
      <trkpt lat="44.679" lon="6.65147">
        <ele>1147</ele>
        <time>2022-05-08T20:47:13Z</time>
      </trkpt>
      <trkpt lat="44.67891" lon="6.65139">
        <ele>1143</ele>
        <time>2022-05-08T20:47:15Z</time>
      </trkpt>
      <trkpt lat="44.67879" lon="6.65141">
        <ele>1140</ele>
        <time>2022-05-08T20:47:18Z</time>
      </trkpt>
      <trkpt lat="44.6788" lon="6.65127">
        <ele>1137</ele>
        <time>2022-05-08T20:47:20Z</time>
      </trkpt>
      <trkpt lat="44.67869" lon="6.65126">
        <ele>1134</ele>
        <time>2022-05-08T20:47:23Z</time>
      </trkpt>
      <trkpt lat="44.67864" lon="6.65092">
        <ele>1126</ele>
        <time>2022-05-08T20:47:29Z</time>
      </trkpt>
      <trkpt lat="44.67857" lon="6.65087">
        <ele>1123</ele>
        <time>2022-05-08T20:47:31Z</time>
      </trkpt>
      <trkpt lat="44.67856" lon="6.65097">
        <ele>1124</ele>
        <time>2022-05-08T20:47:32Z</time>
      </trkpt>
      <trkpt lat="44.6785" lon="6.65111">
        <ele>1125</ele>
        <time>2022-05-08T20:47:35Z</time>
      </trkpt>
      <trkpt lat="44.67843" lon="6.65116">
        <ele>1124</ele>
        <time>2022-05-08T20:47:37Z</time>
      </trkpt>
      <trkpt lat="44.67827" lon="6.65119">
        <ele>1120</ele>
        <time>2022-05-08T20:47:41Z</time>
      </trkpt>
      <trkpt lat="44.6783" lon="6.6509">
        <ele>1114</ele>
        <time>2022-05-08T20:47:46Z</time>
      </trkpt>
      <trkpt lat="44.67839" lon="6.6505">
        <ele>1112</ele>
        <time>2022-05-08T20:47:52Z</time>
      </trkpt>
      <trkpt lat="44.67828" lon="6.64967">
        <ele>1098</ele>
        <time>2022-05-08T20:48:07Z</time>
      </trkpt>
      <trkpt lat="44.67835" lon="6.64951">
        <ele>1097</ele>
        <time>2022-05-08T20:48:10Z</time>
      </trkpt>
      <trkpt lat="44.67847" lon="6.64936">
        <ele>1097</ele>
        <time>2022-05-08T20:48:13Z</time>
      </trkpt>
      <trkpt lat="44.67872" lon="6.64921">
        <ele>1099</ele>
        <time>2022-05-08T20:48:20Z</time>
      </trkpt>
      <trkpt lat="44.67832" lon="6.64931">
        <ele>1093</ele>
        <time>2022-05-08T20:48:29Z</time>
      </trkpt>
      <trkpt lat="44.67792" lon="6.64957">
        <ele>1086</ele>
        <time>2022-05-08T20:48:40Z</time>
      </trkpt>
      <trkpt lat="44.67785" lon="6.65003">
        <ele>1090</ele>
        <time>2022-05-08T20:48:47Z</time>
      </trkpt>
      <trkpt lat="44.67772" lon="6.65042">
        <ele>1090</ele>
        <time>2022-05-08T20:48:54Z</time>
      </trkpt>
      <trkpt lat="44.67745" lon="6.65073">
        <ele>1087</ele>
        <time>2022-05-08T20:49:03Z</time>
      </trkpt>
      <trkpt lat="44.67711" lon="6.65093">
        <ele>1084</ele>
        <time>2022-05-08T20:49:11Z</time>
      </trkpt>
      <trkpt lat="44.67686" lon="6.65102">
        <ele>1082</ele>
        <time>2022-05-08T20:49:17Z</time>
      </trkpt>
      <trkpt lat="44.67647" lon="6.65108">
        <ele>1076</ele>
        <time>2022-05-08T20:49:26Z</time>
      </trkpt>
      <trkpt lat="44.67626" lon="6.65119">
        <ele>1075</ele>
        <time>2022-05-08T20:49:32Z</time>
      </trkpt>
      <trkpt lat="44.67595" lon="6.6513">
        <ele>1072</ele>
        <time>2022-05-08T20:49:39Z</time>
      </trkpt>
      <trkpt lat="44.67571" lon="6.65144">
        <ele>1070</ele>
        <time>2022-05-08T20:49:45Z</time>
      </trkpt>
      <trkpt lat="44.67551" lon="6.65175">
        <ele>1074</ele>
        <time>2022-05-08T20:49:52Z</time>
      </trkpt>
      <trkpt lat="44.67532" lon="6.65188">
        <ele>1073</ele>
        <time>2022-05-08T20:49:57Z</time>
      </trkpt>
      <trkpt lat="44.6746" lon="6.6519">
        <ele>1051</ele>
        <time>2022-05-08T20:50:14Z</time>
      </trkpt>
      <trkpt lat="44.67445" lon="6.65209">
        <ele>1049</ele>
        <time>2022-05-08T20:50:19Z</time>
      </trkpt>
      <trkpt lat="44.67423" lon="6.65308">
        <ele>1049</ele>
        <time>2022-05-08T20:50:36Z</time>
      </trkpt>
      <trkpt lat="44.67419" lon="6.65348">
        <ele>1050</ele>
        <time>2022-05-08T20:50:43Z</time>
      </trkpt>
      <trkpt lat="44.67413" lon="6.65374">
        <ele>1049</ele>
        <time>2022-05-08T20:50:47Z</time>
      </trkpt>
      <trkpt lat="44.67407" lon="6.6538">
        <ele>1048</ele>
        <time>2022-05-08T20:50:49Z</time>
      </trkpt>
      <trkpt lat="44.67402" lon="6.65355">
        <ele>1043</ele>
        <time>2022-05-08T20:50:53Z</time>
      </trkpt>
      <trkpt lat="44.67405" lon="6.6532">
        <ele>1041</ele>
        <time>2022-05-08T20:50:59Z</time>
      </trkpt>
      <trkpt lat="44.67401" lon="6.65293">
        <ele>1038</ele>
        <time>2022-05-08T20:51:04Z</time>
      </trkpt>
      <trkpt lat="44.67398" lon="6.65241">
        <ele>1033</ele>
        <time>2022-05-08T20:51:12Z</time>
      </trkpt>
      <trkpt lat="44.67433" lon="6.65125">
        <ele>1028</ele>
        <time>2022-05-08T20:51:33Z</time>
      </trkpt>
      <trkpt lat="44.67455" lon="6.65091">
        <ele>1024</ele>
        <time>2022-05-08T20:51:41Z</time>
      </trkpt>
      <trkpt lat="44.67488" lon="6.6505">
        <ele>1023</ele>
        <time>2022-05-08T20:51:51Z</time>
      </trkpt>
      <trkpt lat="44.67498" lon="6.64972">
        <ele>1016</ele>
        <time>2022-05-08T20:52:04Z</time>
      </trkpt>
      <trkpt lat="44.67513" lon="6.64916">
        <ele>1017</ele>
        <time>2022-05-08T20:52:14Z</time>
      </trkpt>
      <trkpt lat="44.67513" lon="6.64909">
        <ele>1016</ele>
        <time>2022-05-08T20:52:15Z</time>
      </trkpt>
      <trkpt lat="44.67504" lon="6.64905">
        <ele>1014</ele>
        <time>2022-05-08T20:52:17Z</time>
      </trkpt>
      <trkpt lat="44.67474" lon="6.649">
        <ele>1011</ele>
        <time>2022-05-08T20:52:25Z</time>
      </trkpt>
      <trkpt lat="44.67457" lon="6.64905">
        <ele>1009</ele>
        <time>2022-05-08T20:52:29Z</time>
      </trkpt>
      <trkpt lat="44.67428" lon="6.64898">
        <ele>1006</ele>
        <time>2022-05-08T20:52:35Z</time>
      </trkpt>
      <trkpt lat="44.67399" lon="6.64875">
        <ele>1000</ele>
        <time>2022-05-08T20:52:43Z</time>
      </trkpt>
      <trkpt lat="44.67373" lon="6.64859">
        <ele>994</ele>
        <time>2022-05-08T20:52:50Z</time>
      </trkpt>
      <trkpt lat="44.67363" lon="6.64857">
        <ele>992</ele>
        <time>2022-05-08T20:52:52Z</time>
      </trkpt>
      <trkpt lat="44.67358" lon="6.64858">
        <ele>991</ele>
        <time>2022-05-08T20:52:53Z</time>
      </trkpt>
      <trkpt lat="44.67338" lon="6.64898">
        <ele>988</ele>
        <time>2022-05-08T20:53:02Z</time>
      </trkpt>
      <trkpt lat="44.67325" lon="6.64909">
        <ele>984</ele>
        <time>2022-05-08T20:53:05Z</time>
      </trkpt>
      <trkpt lat="44.67322" lon="6.64905">
        <ele>982</ele>
        <time>2022-05-08T20:53:06Z</time>
      </trkpt>
      <trkpt lat="44.67321" lon="6.64896">
        <ele>982</ele>
        <time>2022-05-08T20:53:08Z</time>
      </trkpt>
      <trkpt lat="44.67316" lon="6.64887">
        <ele>979</ele>
        <time>2022-05-08T20:53:09Z</time>
      </trkpt>
      <trkpt lat="44.67312" lon="6.64849">
        <ele>977</ele>
        <time>2022-05-08T20:53:16Z</time>
      </trkpt>
      <trkpt lat="44.67314" lon="6.64832">
        <ele>977</ele>
        <time>2022-05-08T20:53:19Z</time>
      </trkpt>
      <trkpt lat="44.67321" lon="6.64811">
        <ele>978</ele>
        <time>2022-05-08T20:53:23Z</time>
      </trkpt>
      <trkpt lat="44.6732" lon="6.64778">
        <ele>975</ele>
        <time>2022-05-08T20:53:28Z</time>
      </trkpt>
      <trkpt lat="44.67311" lon="6.64767">
        <ele>971</ele>
        <time>2022-05-08T20:53:31Z</time>
      </trkpt>
      <trkpt lat="44.67281" lon="6.6475">
        <ele>962</ele>
        <time>2022-05-08T20:53:38Z</time>
      </trkpt>
      <trkpt lat="44.67241" lon="6.64722">
        <ele>949</ele>
        <time>2022-05-08T20:53:49Z</time>
      </trkpt>
      <trkpt lat="44.67236" lon="6.64718">
        <ele>947</ele>
        <time>2022-05-08T20:53:50Z</time>
      </trkpt>
      <trkpt lat="44.67233" lon="6.64711">
        <ele>945</ele>
        <time>2022-05-08T20:53:52Z</time>
      </trkpt>
      <trkpt lat="44.67239" lon="6.64635">
        <ele>937</ele>
        <time>2022-05-08T20:54:04Z</time>
      </trkpt>
      <trkpt lat="44.67246" lon="6.64619">
        <ele>937</ele>
        <time>2022-05-08T20:54:07Z</time>
      </trkpt>
      <trkpt lat="44.67255" lon="6.64612">
        <ele>937</ele>
        <time>2022-05-08T20:54:10Z</time>
      </trkpt>
      <trkpt lat="44.67257" lon="6.64594">
        <ele>935</ele>
        <time>2022-05-08T20:54:13Z</time>
      </trkpt>
      <trkpt lat="44.6725" lon="6.64586">
        <ele>932</ele>
        <time>2022-05-08T20:54:15Z</time>
      </trkpt>
      <trkpt lat="44.67228" lon="6.64586">
        <ele>929</ele>
        <time>2022-05-08T20:54:20Z</time>
      </trkpt>
      <trkpt lat="44.67222" lon="6.64584">
        <ele>927</ele>
        <time>2022-05-08T20:54:21Z</time>
      </trkpt>
      <trkpt lat="44.67218" lon="6.64571">
        <ele>926</ele>
        <time>2022-05-08T20:54:24Z</time>
      </trkpt>
      <trkpt lat="44.6722" lon="6.64555">
        <ele>926</ele>
        <time>2022-05-08T20:54:26Z</time>
      </trkpt>
      <trkpt lat="44.67129" lon="6.6454">
        <ele>925</ele>
        <time>2022-05-08T20:54:48Z</time>
      </trkpt>
      <trkpt lat="44.67105" lon="6.64485">
        <ele>930</ele>
        <time>2022-05-08T20:54:59Z</time>
      </trkpt>
      <trkpt lat="44.67095" lon="6.64427">
        <ele>932</ele>
        <time>2022-05-08T20:55:09Z</time>
      </trkpt>
      <trkpt lat="44.67068" lon="6.64392">
        <ele>942</ele>
        <time>2022-05-08T20:55:17Z</time>
      </trkpt>
      <trkpt lat="44.67076" lon="6.64309">
        <ele>944</ele>
        <time>2022-05-08T20:55:31Z</time>
      </trkpt>
      <trkpt lat="44.67092" lon="6.6422">
        <ele>947</ele>
        <time>2022-05-08T20:55:46Z</time>
      </trkpt>
      <trkpt lat="44.6706" lon="6.64266">
        <ele>957</ele>
        <time>2022-05-08T20:55:57Z</time>
      </trkpt>
      <trkpt lat="44.67031" lon="6.64334">
        <ele>964</ele>
        <time>2022-05-08T20:56:10Z</time>
      </trkpt>
      <trkpt lat="44.67007" lon="6.64452">
        <ele>964</ele>
        <time>2022-05-08T20:56:30Z</time>
      </trkpt>
      <trkpt lat="44.67002" lon="6.64519">
        <ele>964</ele>
        <time>2022-05-08T20:56:42Z</time>
      </trkpt>
      <trkpt lat="44.67002" lon="6.64599">
        <ele>968</ele>
        <time>2022-05-08T20:56:55Z</time>
      </trkpt>
      <trkpt lat="44.67005" lon="6.64646">
        <ele>969</ele>
        <time>2022-05-08T20:57:03Z</time>
      </trkpt>
      <trkpt lat="44.66988" lon="6.64708">
        <ele>980</ele>
        <time>2022-05-08T20:57:14Z</time>
      </trkpt>
      <trkpt lat="44.66995" lon="6.64769">
        <ele>977</ele>
        <time>2022-05-08T20:57:24Z</time>
      </trkpt>
      <trkpt lat="44.66968" lon="6.6486">
        <ele>997</ele>
        <time>2022-05-08T20:57:40Z</time>
      </trkpt>
      <trkpt lat="44.66968" lon="6.6491">
        <ele>1001</ele>
        <time>2022-05-08T20:57:49Z</time>
      </trkpt>
      <trkpt lat="44.66975" lon="6.64971">
        <ele>1008</ele>
        <time>2022-05-08T20:57:59Z</time>
      </trkpt>
      <trkpt lat="44.6701" lon="6.65047">
        <ele>997</ele>
        <time>2022-05-08T20:58:14Z</time>
      </trkpt>
      <trkpt lat="44.66997" lon="6.65133">
        <ele>1012</ele>
        <time>2022-05-08T20:58:29Z</time>
      </trkpt>
      <trkpt lat="44.66982" lon="6.65045">
        <ele>1013</ele>
        <time>2022-05-08T20:58:44Z</time>
      </trkpt>
      <trkpt lat="44.6695" lon="6.65073">
        <ele>1037</ele>
        <time>2022-05-08T20:58:53Z</time>
      </trkpt>
      <trkpt lat="44.66982" lon="6.65269">
        <ele>1029</ele>
        <time>2022-05-08T20:59:26Z</time>
      </trkpt>
      <trkpt lat="44.66967" lon="6.65364">
        <ele>1031</ele>
        <time>2022-05-08T20:59:42Z</time>
      </trkpt>
      <trkpt lat="44.66921" lon="6.65425">
        <ele>1050</ele>
        <time>2022-05-08T20:59:57Z</time>
      </trkpt>
      <trkpt lat="44.669" lon="6.65534">
        <ele>1050</ele>
        <time>2022-05-08T21:00:16Z</time>
      </trkpt>
      <trkpt lat="44.66915" lon="6.65629">
        <ele>1017</ele>
        <time>2022-05-08T21:00:32Z</time>
      </trkpt>
      <trkpt lat="44.66903" lon="6.65715">
        <ele>991</ele>
        <time>2022-05-08T21:00:46Z</time>
      </trkpt>
      <trkpt lat="44.66844" lon="6.6574">
        <ele>1038</ele>
        <time>2022-05-08T21:01:01Z</time>
      </trkpt>
      <trkpt lat="44.66785" lon="6.65786">
        <ele>1060</ele>
        <time>2022-05-08T21:01:16Z</time>
      </trkpt>
      <trkpt lat="44.66745" lon="6.65833">
        <ele>1079</ele>
        <time>2022-05-08T21:01:29Z</time>
      </trkpt>
      <trkpt lat="44.66707" lon="6.659">
        <ele>1080</ele>
        <time>2022-05-08T21:01:43Z</time>
      </trkpt>
      <trkpt lat="44.66682" lon="6.65928">
        <ele>1083</ele>
        <time>2022-05-08T21:01:50Z</time>
      </trkpt>
      <trkpt lat="44.66667" lon="6.65957">
        <ele>1087</ele>
        <time>2022-05-08T21:01:56Z</time>
      </trkpt>
      <trkpt lat="44.66657" lon="6.66023">
        <ele>1094</ele>
        <time>2022-05-08T21:02:07Z</time>
      </trkpt>
      <trkpt lat="44.66648" lon="6.66119">
        <ele>1104</ele>
        <time>2022-05-08T21:02:24Z</time>
      </trkpt>
      <trkpt lat="44.66651" lon="6.66176">
        <ele>1099</ele>
        <time>2022-05-08T21:02:33Z</time>
      </trkpt>
      <trkpt lat="44.6664" lon="6.66219">
        <ele>1096</ele>
        <time>2022-05-08T21:02:41Z</time>
      </trkpt>
      <trkpt lat="44.66632" lon="6.66288">
        <ele>1090</ele>
        <time>2022-05-08T21:02:52Z</time>
      </trkpt>
      <trkpt lat="44.66615" lon="6.6635">
        <ele>1090</ele>
        <time>2022-05-08T21:03:03Z</time>
      </trkpt>
      <trkpt lat="44.66582" lon="6.66351">
        <ele>1100</ele>
        <time>2022-05-08T21:03:11Z</time>
      </trkpt>
      <trkpt lat="44.66542" lon="6.66328">
        <ele>1105</ele>
        <time>2022-05-08T21:03:21Z</time>
      </trkpt>
      <trkpt lat="44.66519" lon="6.66376">
        <ele>1103</ele>
        <time>2022-05-08T21:03:31Z</time>
      </trkpt>
      <trkpt lat="44.66458" lon="6.66362">
        <ele>1103</ele>
        <time>2022-05-08T21:03:45Z</time>
      </trkpt>
      <trkpt lat="44.66411" lon="6.66405">
        <ele>1107</ele>
        <time>2022-05-08T21:03:58Z</time>
      </trkpt>
      <trkpt lat="44.66344" lon="6.66406">
        <ele>1110</ele>
        <time>2022-05-08T21:04:14Z</time>
      </trkpt>
      <trkpt lat="44.66298" lon="6.66429">
        <ele>1115</ele>
        <time>2022-05-08T21:04:25Z</time>
      </trkpt>
      <trkpt lat="44.66228" lon="6.66504">
        <ele>1132</ele>
        <time>2022-05-08T21:04:46Z</time>
      </trkpt>
      <trkpt lat="44.6616" lon="6.66547">
        <ele>1136</ele>
        <time>2022-05-08T21:05:03Z</time>
      </trkpt>
      <trkpt lat="44.66094" lon="6.66579">
        <ele>1136</ele>
        <time>2022-05-08T21:05:20Z</time>
      </trkpt>
      <trkpt lat="44.66019" lon="6.66496">
        <ele>1130</ele>
        <time>2022-05-08T21:05:42Z</time>
      </trkpt>
      <trkpt lat="44.65947" lon="6.66438">
        <ele>1136</ele>
        <time>2022-05-08T21:06:01Z</time>
      </trkpt>
      <trkpt lat="44.65837" lon="6.66399">
        <ele>1143</ele>
        <time>2022-05-08T21:06:28Z</time>
      </trkpt>
      <trkpt lat="44.65832" lon="6.66405">
        <ele>1145</ele>
        <time>2022-05-08T21:06:29Z</time>
      </trkpt>
      <trkpt lat="44.65821" lon="6.66407">
        <ele>1146</ele>
        <time>2022-05-08T21:06:32Z</time>
      </trkpt>
      <trkpt lat="44.65821" lon="6.66409">
        <ele>1146</ele>
        <time>2022-05-08T21:06:32Z</time>
      </trkpt>
      <trkpt lat="44.65764" lon="6.66408">
        <ele>1149</ele>
        <time>2022-05-08T21:06:45Z</time>
      </trkpt>
      <trkpt lat="44.65709" lon="6.66383">
        <ele>1152</ele>
        <time>2022-05-08T21:06:59Z</time>
      </trkpt>
      <trkpt lat="44.65623" lon="6.66431">
        <ele>1171</ele>
        <time>2022-05-08T21:07:21Z</time>
      </trkpt>
      <trkpt lat="44.65564" lon="6.66371">
        <ele>1175</ele>
        <time>2022-05-08T21:07:38Z</time>
      </trkpt>
      <trkpt lat="44.65499" lon="6.66319">
        <ele>1183</ele>
        <time>2022-05-08T21:07:55Z</time>
      </trkpt>
      <trkpt lat="44.65499" lon="6.66322">
        <ele>1184</ele>
        <time>2022-05-08T21:07:56Z</time>
      </trkpt>
      <trkpt lat="44.65463" lon="6.66296">
        <ele>1187</ele>
        <time>2022-05-08T21:08:05Z</time>
      </trkpt>
      <trkpt lat="44.65449" lon="6.66298">
        <ele>1191</ele>
        <time>2022-05-08T21:08:08Z</time>
      </trkpt>
      <trkpt lat="44.65422" lon="6.66282">
        <ele>1193</ele>
        <time>2022-05-08T21:08:15Z</time>
      </trkpt>
      <trkpt lat="44.65336" lon="6.66255">
        <ele>1200</ele>
        <time>2022-05-08T21:08:36Z</time>
      </trkpt>
      <trkpt lat="44.65285" lon="6.66266">
        <ele>1209</ele>
        <time>2022-05-08T21:08:48Z</time>
      </trkpt>
      <trkpt lat="44.6526" lon="6.66277">
        <ele>1215</ele>
        <time>2022-05-08T21:08:54Z</time>
      </trkpt>
      <trkpt lat="44.65247" lon="6.66279">
        <ele>1217</ele>
        <time>2022-05-08T21:08:57Z</time>
      </trkpt>
      <trkpt lat="44.65157" lon="6.66275">
        <ele>1221</ele>
        <time>2022-05-08T21:09:18Z</time>
      </trkpt>
      <trkpt lat="44.65119" lon="6.66283">
        <ele>1228</ele>
        <time>2022-05-08T21:09:27Z</time>
      </trkpt>
      <trkpt lat="44.65101" lon="6.66262">
        <ele>1222</ele>
        <time>2022-05-08T21:09:32Z</time>
      </trkpt>
      <trkpt lat="44.65079" lon="6.66251">
        <ele>1220</ele>
        <time>2022-05-08T21:09:38Z</time>
      </trkpt>
      <trkpt lat="44.65047" lon="6.66254">
        <ele>1223</ele>
        <time>2022-05-08T21:09:45Z</time>
      </trkpt>
      <trkpt lat="44.6503" lon="6.6625">
        <ele>1222</ele>
        <time>2022-05-08T21:09:49Z</time>
      </trkpt>
      <trkpt lat="44.65009" lon="6.66254">
        <ele>1224</ele>
        <time>2022-05-08T21:09:54Z</time>
      </trkpt>
      <trkpt lat="44.64998" lon="6.66233">
        <ele>1219</ele>
        <time>2022-05-08T21:09:59Z</time>
      </trkpt>
      <trkpt lat="44.64997" lon="6.66209">
        <ele>1214</ele>
        <time>2022-05-08T21:10:03Z</time>
      </trkpt>
      <trkpt lat="44.6496" lon="6.66264">
        <ele>1219</ele>
        <time>2022-05-08T21:10:15Z</time>
      </trkpt>
      <trkpt lat="44.64957" lon="6.66282">
        <ele>1223</ele>
        <time>2022-05-08T21:10:18Z</time>
      </trkpt>
      <trkpt lat="44.64951" lon="6.66292">
        <ele>1224</ele>
        <time>2022-05-08T21:10:20Z</time>
      </trkpt>
      <trkpt lat="44.64948" lon="6.66307">
        <ele>1227</ele>
        <time>2022-05-08T21:10:23Z</time>
      </trkpt>
      <trkpt lat="44.64925" lon="6.66363">
        <ele>1235</ele>
        <time>2022-05-08T21:10:34Z</time>
      </trkpt>
      <trkpt lat="44.649" lon="6.6639">
        <ele>1240</ele>
        <time>2022-05-08T21:10:41Z</time>
      </trkpt>
      <trkpt lat="44.64891" lon="6.6639">
        <ele>1241</ele>
        <time>2022-05-08T21:10:43Z</time>
      </trkpt>
      <trkpt lat="44.64874" lon="6.66341">
        <ele>1229</ele>
        <time>2022-05-08T21:10:52Z</time>
      </trkpt>
      <trkpt lat="44.64839" lon="6.6626">
        <ele>1219</ele>
        <time>2022-05-08T21:11:08Z</time>
      </trkpt>
      <trkpt lat="44.64793" lon="6.66351">
        <ele>1224</ele>
        <time>2022-05-08T21:11:27Z</time>
      </trkpt>
      <trkpt lat="44.64781" lon="6.66346">
        <ele>1220</ele>
        <time>2022-05-08T21:11:30Z</time>
      </trkpt>
      <trkpt lat="44.64778" lon="6.66336">
        <ele>1216</ele>
        <time>2022-05-08T21:11:31Z</time>
      </trkpt>
      <trkpt lat="44.64764" lon="6.66333">
        <ele>1212</ele>
        <time>2022-05-08T21:11:35Z</time>
      </trkpt>
      <trkpt lat="44.64761" lon="6.66301">
        <ele>1204</ele>
        <time>2022-05-08T21:11:40Z</time>
      </trkpt>
      <trkpt lat="44.64763" lon="6.66292">
        <ele>1202</ele>
        <time>2022-05-08T21:11:42Z</time>
      </trkpt>
      <trkpt lat="44.64748" lon="6.66289">
        <ele>1197</ele>
        <time>2022-05-08T21:11:45Z</time>
      </trkpt>
      <trkpt lat="44.6475" lon="6.66278">
        <ele>1195</ele>
        <time>2022-05-08T21:11:47Z</time>
      </trkpt>
      <trkpt lat="44.64697" lon="6.66278">
        <ele>1178</ele>
        <time>2022-05-08T21:11:59Z</time>
      </trkpt>
      <trkpt lat="44.64667" lon="6.66287">
        <ele>1171</ele>
        <time>2022-05-08T21:12:07Z</time>
      </trkpt>
      <trkpt lat="44.64626" lon="6.66304">
        <ele>1167</ele>
        <time>2022-05-08T21:12:17Z</time>
      </trkpt>
      <trkpt lat="44.64618" lon="6.6631">
        <ele>1167</ele>
        <time>2022-05-08T21:12:19Z</time>
      </trkpt>
      <trkpt lat="44.64621" lon="6.66301">
        <ele>1166</ele>
        <time>2022-05-08T21:12:20Z</time>
      </trkpt>
      <trkpt lat="44.64616" lon="6.66299">
        <ele>1165</ele>
        <time>2022-05-08T21:12:22Z</time>
      </trkpt>
      <trkpt lat="44.646" lon="6.6632">
        <ele>1163</ele>
        <time>2022-05-08T21:12:27Z</time>
      </trkpt>
      <trkpt lat="44.64597" lon="6.6632">
        <ele>1162</ele>
        <time>2022-05-08T21:12:27Z</time>
      </trkpt>
      <trkpt lat="44.64597" lon="6.66307">
        <ele>1162</ele>
        <time>2022-05-08T21:12:29Z</time>
      </trkpt>
      <trkpt lat="44.64628" lon="6.66155">
        <ele>1156</ele>
        <time>2022-05-08T21:12:56Z</time>
      </trkpt>
      <trkpt lat="44.64637" lon="6.66136">
        <ele>1154</ele>
        <time>2022-05-08T21:13:00Z</time>
      </trkpt>
      <trkpt lat="44.64662" lon="6.66111">
        <ele>1145</ele>
        <time>2022-05-08T21:13:07Z</time>
      </trkpt>
      <trkpt lat="44.64691" lon="6.6606">
        <ele>1146</ele>
        <time>2022-05-08T21:13:18Z</time>
      </trkpt>
      <trkpt lat="44.64694" lon="6.66046">
        <ele>1145</ele>
        <time>2022-05-08T21:13:20Z</time>
      </trkpt>
      <trkpt lat="44.64686" lon="6.66029">
        <ele>1144</ele>
        <time>2022-05-08T21:13:23Z</time>
      </trkpt>
      <trkpt lat="44.64704" lon="6.65954">
        <ele>1141</ele>
        <time>2022-05-08T21:13:37Z</time>
      </trkpt>
      <trkpt lat="44.64706" lon="6.65932">
        <ele>1141</ele>
        <time>2022-05-08T21:13:40Z</time>
      </trkpt>
      <trkpt lat="44.64701" lon="6.65915">
        <ele>1142</ele>
        <time>2022-05-08T21:13:43Z</time>
      </trkpt>
      <trkpt lat="44.64694" lon="6.65914">
        <ele>1145</ele>
        <time>2022-05-08T21:13:45Z</time>
      </trkpt>
      <trkpt lat="44.64691" lon="6.65909">
        <ele>1147</ele>
        <time>2022-05-08T21:13:46Z</time>
      </trkpt>
      <trkpt lat="44.64692" lon="6.65856">
        <ele>1155</ele>
        <time>2022-05-08T21:13:55Z</time>
      </trkpt>
      <trkpt lat="44.64703" lon="6.6583">
        <ele>1154</ele>
        <time>2022-05-08T21:14:00Z</time>
      </trkpt>
      <trkpt lat="44.64708" lon="6.65776">
        <ele>1163</ele>
        <time>2022-05-08T21:14:09Z</time>
      </trkpt>
      <trkpt lat="44.64704" lon="6.65735">
        <ele>1173</ele>
        <time>2022-05-08T21:14:16Z</time>
      </trkpt>
      <trkpt lat="44.64708" lon="6.65656">
        <ele>1181</ele>
        <time>2022-05-08T21:14:29Z</time>
      </trkpt>
      <trkpt lat="44.64717" lon="6.65646">
        <ele>1179</ele>
        <time>2022-05-08T21:14:32Z</time>
      </trkpt>
      <trkpt lat="44.6474" lon="6.6563">
        <ele>1174</ele>
        <time>2022-05-08T21:14:38Z</time>
      </trkpt>
      <trkpt lat="44.64743" lon="6.65613">
        <ele>1174</ele>
        <time>2022-05-08T21:14:41Z</time>
      </trkpt>
      <trkpt lat="44.64741" lon="6.65609">
        <ele>1174</ele>
        <time>2022-05-08T21:14:41Z</time>
      </trkpt>
      <trkpt lat="44.64724" lon="6.65611">
        <ele>1177</ele>
        <time>2022-05-08T21:14:45Z</time>
      </trkpt>
      <trkpt lat="44.64685" lon="6.65608">
        <ele>1183</ele>
        <time>2022-05-08T21:14:54Z</time>
      </trkpt>
      <trkpt lat="44.64678" lon="6.6561">
        <ele>1184</ele>
        <time>2022-05-08T21:14:56Z</time>
      </trkpt>
      <trkpt lat="44.64651" lon="6.65603">
        <ele>1188</ele>
        <time>2022-05-08T21:15:03Z</time>
      </trkpt>
      <trkpt lat="44.64631" lon="6.65595">
        <ele>1190</ele>
        <time>2022-05-08T21:15:07Z</time>
      </trkpt>
      <trkpt lat="44.64607" lon="6.6559">
        <ele>1192</ele>
        <time>2022-05-08T21:15:13Z</time>
      </trkpt>
      <trkpt lat="44.64571" lon="6.65598">
        <ele>1196</ele>
        <time>2022-05-08T21:15:22Z</time>
      </trkpt>
      <trkpt lat="44.64523" lon="6.65639">
        <ele>1202</ele>
        <time>2022-05-08T21:15:35Z</time>
      </trkpt>
      <trkpt lat="44.64495" lon="6.65651">
        <ele>1204</ele>
        <time>2022-05-08T21:15:41Z</time>
      </trkpt>
      <trkpt lat="44.64481" lon="6.65652">
        <ele>1203</ele>
        <time>2022-05-08T21:15:45Z</time>
      </trkpt>
      <trkpt lat="44.64466" lon="6.65659">
        <ele>1203</ele>
        <time>2022-05-08T21:15:48Z</time>
      </trkpt>
      <trkpt lat="44.64367" lon="6.65714">
        <ele>1203</ele>
        <time>2022-05-08T21:16:13Z</time>
      </trkpt>
      <trkpt lat="44.64329" lon="6.6573">
        <ele>1199</ele>
        <time>2022-05-08T21:16:23Z</time>
      </trkpt>
      <trkpt lat="44.64311" lon="6.65756">
        <ele>1198</ele>
        <time>2022-05-08T21:16:29Z</time>
      </trkpt>
      <trkpt lat="44.64312" lon="6.65752">
        <ele>1198</ele>
        <time>2022-05-08T21:16:29Z</time>
      </trkpt>
      <trkpt lat="44.64306" lon="6.6578">
        <ele>1200</ele>
        <time>2022-05-08T21:16:34Z</time>
      </trkpt>
      <trkpt lat="44.64298" lon="6.65748">
        <ele>1192</ele>
        <time>2022-05-08T21:16:40Z</time>
      </trkpt>
      <trkpt lat="44.64294" lon="6.65775">
        <ele>1195</ele>
        <time>2022-05-08T21:16:44Z</time>
      </trkpt>
      <trkpt lat="44.64288" lon="6.65753">
        <ele>1189</ele>
        <time>2022-05-08T21:16:48Z</time>
      </trkpt>
      <trkpt lat="44.64276" lon="6.65766">
        <ele>1187</ele>
        <time>2022-05-08T21:16:52Z</time>
      </trkpt>
      <trkpt lat="44.64267" lon="6.65719">
        <ele>1175</ele>
        <time>2022-05-08T21:17:00Z</time>
      </trkpt>
      <trkpt lat="44.64229" lon="6.65801">
        <ele>1175</ele>
        <time>2022-05-08T21:17:16Z</time>
      </trkpt>
      <trkpt lat="44.64225" lon="6.65823">
        <ele>1177</ele>
        <time>2022-05-08T21:17:20Z</time>
      </trkpt>
      <trkpt lat="44.64188" lon="6.65832">
        <ele>1163</ele>
        <time>2022-05-08T21:17:29Z</time>
      </trkpt>
      <trkpt lat="44.64177" lon="6.65845">
        <ele>1163</ele>
        <time>2022-05-08T21:17:32Z</time>
      </trkpt>
      <trkpt lat="44.64136" lon="6.65863">
        <ele>1163</ele>
        <time>2022-05-08T21:17:42Z</time>
      </trkpt>
      <trkpt lat="44.64114" lon="6.65852">
        <ele>1157</ele>
        <time>2022-05-08T21:17:48Z</time>
      </trkpt>
      <trkpt lat="44.64091" lon="6.65778">
        <ele>1145</ele>
        <time>2022-05-08T21:18:01Z</time>
      </trkpt>
      <trkpt lat="44.64094" lon="6.65697">
        <ele>1145</ele>
        <time>2022-05-08T21:18:14Z</time>
      </trkpt>
      <trkpt lat="44.64105" lon="6.65653">
        <ele>1143</ele>
        <time>2022-05-08T21:18:22Z</time>
      </trkpt>
      <trkpt lat="44.64108" lon="6.65622">
        <ele>1142</ele>
        <time>2022-05-08T21:18:27Z</time>
      </trkpt>
      <trkpt lat="44.64102" lon="6.65605">
        <ele>1144</ele>
        <time>2022-05-08T21:18:31Z</time>
      </trkpt>
      <trkpt lat="44.64084" lon="6.65587">
        <ele>1152</ele>
        <time>2022-05-08T21:18:36Z</time>
      </trkpt>
      <trkpt lat="44.64078" lon="6.65587">
        <ele>1155</ele>
        <time>2022-05-08T21:18:37Z</time>
      </trkpt>
      <trkpt lat="44.64087" lon="6.65563">
        <ele>1152</ele>
        <time>2022-05-08T21:18:42Z</time>
      </trkpt>
      <trkpt lat="44.64092" lon="6.65522">
        <ele>1152</ele>
        <time>2022-05-08T21:18:49Z</time>
      </trkpt>
      <trkpt lat="44.64114" lon="6.6543">
        <ele>1151</ele>
        <time>2022-05-08T21:19:05Z</time>
      </trkpt>
      <trkpt lat="44.64146" lon="6.65357">
        <ele>1152</ele>
        <time>2022-05-08T21:19:19Z</time>
      </trkpt>
      <trkpt lat="44.64167" lon="6.65341">
        <ele>1145</ele>
        <time>2022-05-08T21:19:25Z</time>
      </trkpt>
      <trkpt lat="44.64194" lon="6.65332">
        <ele>1135</ele>
        <time>2022-05-08T21:19:31Z</time>
      </trkpt>
      <trkpt lat="44.6423" lon="6.65307">
        <ele>1125</ele>
        <time>2022-05-08T21:19:40Z</time>
      </trkpt>
      <trkpt lat="44.64229" lon="6.65247">
        <ele>1139</ele>
        <time>2022-05-08T21:19:50Z</time>
      </trkpt>
      <trkpt lat="44.64245" lon="6.65167">
        <ele>1141</ele>
        <time>2022-05-08T21:20:04Z</time>
      </trkpt>
      <trkpt lat="44.64286" lon="6.65091">
        <ele>1145</ele>
        <time>2022-05-08T21:20:20Z</time>
      </trkpt>
      <trkpt lat="44.64314" lon="6.65053">
        <ele>1150</ele>
        <time>2022-05-08T21:20:29Z</time>
      </trkpt>
      <trkpt lat="44.64342" lon="6.65026">
        <ele>1153</ele>
        <time>2022-05-08T21:20:37Z</time>
      </trkpt>
      <trkpt lat="44.64372" lon="6.64992">
        <ele>1158</ele>
        <time>2022-05-08T21:20:46Z</time>
      </trkpt>
      <trkpt lat="44.64401" lon="6.64968">
        <ele>1158</ele>
        <time>2022-05-08T21:20:54Z</time>
      </trkpt>
      <trkpt lat="44.64422" lon="6.64947">
        <ele>1159</ele>
        <time>2022-05-08T21:21:00Z</time>
      </trkpt>
      <trkpt lat="44.6446" lon="6.64874">
        <ele>1171</ele>
        <time>2022-05-08T21:21:15Z</time>
      </trkpt>
      <trkpt lat="44.64482" lon="6.64864">
        <ele>1163</ele>
        <time>2022-05-08T21:21:20Z</time>
      </trkpt>
      <trkpt lat="44.64554" lon="6.64815">
        <ele>1157</ele>
        <time>2022-05-08T21:21:39Z</time>
      </trkpt>
      <trkpt lat="44.64573" lon="6.6481">
        <ele>1153</ele>
        <time>2022-05-08T21:21:44Z</time>
      </trkpt>
      <trkpt lat="44.64607" lon="6.64794">
        <ele>1154</ele>
        <time>2022-05-08T21:21:52Z</time>
      </trkpt>
      <trkpt lat="44.64653" lon="6.64783">
        <ele>1155</ele>
        <time>2022-05-08T21:22:03Z</time>
      </trkpt>
      <trkpt lat="44.64678" lon="6.64794">
        <ele>1149</ele>
        <time>2022-05-08T21:22:09Z</time>
      </trkpt>
      <trkpt lat="44.64685" lon="6.64805">
        <ele>1143</ele>
        <time>2022-05-08T21:22:11Z</time>
      </trkpt>
      <trkpt lat="44.64733" lon="6.64817">
        <ele>1135</ele>
        <time>2022-05-08T21:22:23Z</time>
      </trkpt>
      <trkpt lat="44.64758" lon="6.64816">
        <ele>1133</ele>
        <time>2022-05-08T21:22:29Z</time>
      </trkpt>
      <trkpt lat="44.64813" lon="6.64801">
        <ele>1128</ele>
        <time>2022-05-08T21:22:42Z</time>
      </trkpt>
      <trkpt lat="44.64824" lon="6.64795">
        <ele>1128</ele>
        <time>2022-05-08T21:22:44Z</time>
      </trkpt>
      <trkpt lat="44.6484" lon="6.64772">
        <ele>1129</ele>
        <time>2022-05-08T21:22:50Z</time>
      </trkpt>
      <trkpt lat="44.64828" lon="6.64729">
        <ele>1146</ele>
        <time>2022-05-08T21:22:57Z</time>
      </trkpt>
      <trkpt lat="44.64815" lon="6.64693">
        <ele>1160</ele>
        <time>2022-05-08T21:23:04Z</time>
      </trkpt>
      <trkpt lat="44.64826" lon="6.64649">
        <ele>1166</ele>
        <time>2022-05-08T21:23:12Z</time>
      </trkpt>
      <trkpt lat="44.64846" lon="6.64642">
        <ele>1160</ele>
        <time>2022-05-08T21:23:17Z</time>
      </trkpt>
      <trkpt lat="44.6487" lon="6.64649">
        <ele>1148</ele>
        <time>2022-05-08T21:23:22Z</time>
      </trkpt>
      <trkpt lat="44.64881" lon="6.64643">
        <ele>1145</ele>
        <time>2022-05-08T21:23:25Z</time>
      </trkpt>
      <trkpt lat="44.64896" lon="6.64619">
        <ele>1146</ele>
        <time>2022-05-08T21:23:30Z</time>
      </trkpt>
      <trkpt lat="44.64901" lon="6.64604">
        <ele>1148</ele>
        <time>2022-05-08T21:23:33Z</time>
      </trkpt>
      <trkpt lat="44.64906" lon="6.64574">
        <ele>1152</ele>
        <time>2022-05-08T21:23:38Z</time>
      </trkpt>
      <trkpt lat="44.64907" lon="6.64532">
        <ele>1156</ele>
        <time>2022-05-08T21:23:45Z</time>
      </trkpt>
      <trkpt lat="44.64892" lon="6.64491">
        <ele>1163</ele>
        <time>2022-05-08T21:23:53Z</time>
      </trkpt>
      <trkpt lat="44.6489" lon="6.64477">
        <ele>1163</ele>
        <time>2022-05-08T21:23:55Z</time>
      </trkpt>
      <trkpt lat="44.64895" lon="6.64448">
        <ele>1162</ele>
        <time>2022-05-08T21:24:00Z</time>
      </trkpt>
      <trkpt lat="44.64917" lon="6.64401">
        <ele>1158</ele>
        <time>2022-05-08T21:24:10Z</time>
      </trkpt>
      <trkpt lat="44.64921" lon="6.64385">
        <ele>1157</ele>
        <time>2022-05-08T21:24:12Z</time>
      </trkpt>
      <trkpt lat="44.64926" lon="6.64324">
        <ele>1155</ele>
        <time>2022-05-08T21:24:23Z</time>
      </trkpt>
      <trkpt lat="44.6492" lon="6.64293">
        <ele>1153</ele>
        <time>2022-05-08T21:24:28Z</time>
      </trkpt>
      <trkpt lat="44.64913" lon="6.64279">
        <ele>1153</ele>
        <time>2022-05-08T21:24:31Z</time>
      </trkpt>
      <trkpt lat="44.64895" lon="6.64255">
        <ele>1155</ele>
        <time>2022-05-08T21:24:37Z</time>
      </trkpt>
      <trkpt lat="44.64889" lon="6.64239">
        <ele>1155</ele>
        <time>2022-05-08T21:24:40Z</time>
      </trkpt>
      <trkpt lat="44.64879" lon="6.64186">
        <ele>1153</ele>
        <time>2022-05-08T21:24:49Z</time>
      </trkpt>
      <trkpt lat="44.64865" lon="6.64139">
        <ele>1153</ele>
        <time>2022-05-08T21:24:57Z</time>
      </trkpt>
      <trkpt lat="44.64846" lon="6.64096">
        <ele>1152</ele>
        <time>2022-05-08T21:25:06Z</time>
      </trkpt>
      <trkpt lat="44.64852" lon="6.64106">
        <ele>1152</ele>
        <time>2022-05-08T21:25:08Z</time>
      </trkpt>
      <trkpt lat="44.64833" lon="6.64067">
        <ele>1150</ele>
        <time>2022-05-08T21:25:16Z</time>
      </trkpt>
      <trkpt lat="44.64834" lon="6.64081">
        <ele>1152</ele>
        <time>2022-05-08T21:25:18Z</time>
      </trkpt>
      <trkpt lat="44.6485" lon="6.64145">
        <ele>1156</ele>
        <time>2022-05-08T21:25:29Z</time>
      </trkpt>
      <trkpt lat="44.64852" lon="6.64165">
        <ele>1157</ele>
        <time>2022-05-08T21:25:33Z</time>
      </trkpt>
      <trkpt lat="44.64843" lon="6.64299">
        <ele>1168</ele>
        <time>2022-05-08T21:25:55Z</time>
      </trkpt>
      <trkpt lat="44.6483" lon="6.64372">
        <ele>1174</ele>
        <time>2022-05-08T21:26:08Z</time>
      </trkpt>
      <trkpt lat="44.64828" lon="6.64404">
        <ele>1176</ele>
        <time>2022-05-08T21:26:13Z</time>
      </trkpt>
      <trkpt lat="44.64828" lon="6.64533">
        <ele>1178</ele>
        <time>2022-05-08T21:26:34Z</time>
      </trkpt>
      <trkpt lat="44.64831" lon="6.64565">
        <ele>1177</ele>
        <time>2022-05-08T21:26:40Z</time>
      </trkpt>
      <trkpt lat="44.64828" lon="6.64577">
        <ele>1178</ele>
        <time>2022-05-08T21:26:42Z</time>
      </trkpt>
      <trkpt lat="44.64821" lon="6.64568">
        <ele>1180</ele>
        <time>2022-05-08T21:26:44Z</time>
      </trkpt>
      <trkpt lat="44.64821" lon="6.64549">
        <ele>1181</ele>
        <time>2022-05-08T21:26:47Z</time>
      </trkpt>
      <trkpt lat="44.64808" lon="6.64474">
        <ele>1185</ele>
        <time>2022-05-08T21:27:00Z</time>
      </trkpt>
      <trkpt lat="44.64765" lon="6.64389">
        <ele>1197</ele>
        <time>2022-05-08T21:27:17Z</time>
      </trkpt>
      <trkpt lat="44.64757" lon="6.64361">
        <ele>1197</ele>
        <time>2022-05-08T21:27:22Z</time>
      </trkpt>
      <trkpt lat="44.64748" lon="6.64305">
        <ele>1195</ele>
        <time>2022-05-08T21:27:32Z</time>
      </trkpt>
      <trkpt lat="44.64741" lon="6.64283">
        <ele>1195</ele>
        <time>2022-05-08T21:27:36Z</time>
      </trkpt>
      <trkpt lat="44.64729" lon="6.64267">
        <ele>1197</ele>
        <time>2022-05-08T21:27:40Z</time>
      </trkpt>
      <trkpt lat="44.64713" lon="6.64257">
        <ele>1199</ele>
        <time>2022-05-08T21:27:44Z</time>
      </trkpt>
      <trkpt lat="44.64697" lon="6.64251">
        <ele>1202</ele>
        <time>2022-05-08T21:27:48Z</time>
      </trkpt>
      <trkpt lat="44.64681" lon="6.64249">
        <ele>1205</ele>
        <time>2022-05-08T21:27:51Z</time>
      </trkpt>
      <trkpt lat="44.64653" lon="6.64251">
        <ele>1212</ele>
        <time>2022-05-08T21:27:58Z</time>
      </trkpt>
      <trkpt lat="44.64641" lon="6.64241">
        <ele>1214</ele>
        <time>2022-05-08T21:28:01Z</time>
      </trkpt>
      <trkpt lat="44.64625" lon="6.64202">
        <ele>1214</ele>
        <time>2022-05-08T21:28:09Z</time>
      </trkpt>
      <trkpt lat="44.64614" lon="6.64157">
        <ele>1209</ele>
        <time>2022-05-08T21:28:17Z</time>
      </trkpt>
      <trkpt lat="44.64606" lon="6.64141">
        <ele>1207</ele>
        <time>2022-05-08T21:28:20Z</time>
      </trkpt>
      <trkpt lat="44.64592" lon="6.64135">
        <ele>1208</ele>
        <time>2022-05-08T21:28:23Z</time>
      </trkpt>
      <trkpt lat="44.64576" lon="6.64135">
        <ele>1211</ele>
        <time>2022-05-08T21:28:27Z</time>
      </trkpt>
      <trkpt lat="44.64539" lon="6.64145">
        <ele>1220</ele>
        <time>2022-05-08T21:28:36Z</time>
      </trkpt>
      <trkpt lat="44.64511" lon="6.64158">
        <ele>1227</ele>
        <time>2022-05-08T21:28:43Z</time>
      </trkpt>
      <trkpt lat="44.64419" lon="6.64211">
        <ele>1243</ele>
        <time>2022-05-08T21:29:06Z</time>
      </trkpt>
      <trkpt lat="44.64399" lon="6.64219">
        <ele>1246</ele>
        <time>2022-05-08T21:29:11Z</time>
      </trkpt>
      <trkpt lat="44.64387" lon="6.64219">
        <ele>1246</ele>
        <time>2022-05-08T21:29:14Z</time>
      </trkpt>
      <trkpt lat="44.64343" lon="6.64228">
        <ele>1250</ele>
        <time>2022-05-08T21:29:24Z</time>
      </trkpt>
      <trkpt lat="44.64271" lon="6.64249">
        <ele>1256</ele>
        <time>2022-05-08T21:29:41Z</time>
      </trkpt>
      <trkpt lat="44.64257" lon="6.64251">
        <ele>1257</ele>
        <time>2022-05-08T21:29:44Z</time>
      </trkpt>
      <trkpt lat="44.64247" lon="6.64251">
        <ele>1258</ele>
        <time>2022-05-08T21:29:47Z</time>
      </trkpt>
      <trkpt lat="44.64236" lon="6.64241">
        <ele>1262</ele>
        <time>2022-05-08T21:29:50Z</time>
      </trkpt>
      <trkpt lat="44.64233" lon="6.64229">
        <ele>1262</ele>
        <time>2022-05-08T21:29:52Z</time>
      </trkpt>
      <trkpt lat="44.64235" lon="6.64211">
        <ele>1260</ele>
        <time>2022-05-08T21:29:55Z</time>
      </trkpt>
      <trkpt lat="44.64241" lon="6.64193">
        <ele>1257</ele>
        <time>2022-05-08T21:29:58Z</time>
      </trkpt>
      <trkpt lat="44.64247" lon="6.64162">
        <ele>1253</ele>
        <time>2022-05-08T21:30:04Z</time>
      </trkpt>
      <trkpt lat="44.64238" lon="6.64159">
        <ele>1255</ele>
        <time>2022-05-08T21:30:06Z</time>
      </trkpt>
      <trkpt lat="44.64214" lon="6.64217">
        <ele>1268</ele>
        <time>2022-05-08T21:30:17Z</time>
      </trkpt>
      <trkpt lat="44.64208" lon="6.64238">
        <ele>1272</ele>
        <time>2022-05-08T21:30:21Z</time>
      </trkpt>
      <trkpt lat="44.64204" lon="6.64282">
        <ele>1278</ele>
        <time>2022-05-08T21:30:28Z</time>
      </trkpt>
      <trkpt lat="44.64196" lon="6.64323">
        <ele>1283</ele>
        <time>2022-05-08T21:30:35Z</time>
      </trkpt>
      <trkpt lat="44.64187" lon="6.64343">
        <ele>1287</ele>
        <time>2022-05-08T21:30:39Z</time>
      </trkpt>
      <trkpt lat="44.64175" lon="6.64358">
        <ele>1290</ele>
        <time>2022-05-08T21:30:43Z</time>
      </trkpt>
      <trkpt lat="44.64169" lon="6.64373">
        <ele>1292</ele>
        <time>2022-05-08T21:30:46Z</time>
      </trkpt>
      <trkpt lat="44.64173" lon="6.64385">
        <ele>1292</ele>
        <time>2022-05-08T21:30:48Z</time>
      </trkpt>
      <trkpt lat="44.64182" lon="6.64395">
        <ele>1293</ele>
        <time>2022-05-08T21:30:51Z</time>
      </trkpt>
      <trkpt lat="44.64193" lon="6.64397">
        <ele>1293</ele>
        <time>2022-05-08T21:30:53Z</time>
      </trkpt>
      <trkpt lat="44.64249" lon="6.64396">
        <ele>1291</ele>
        <time>2022-05-08T21:31:06Z</time>
      </trkpt>
      <trkpt lat="44.64261" lon="6.64399">
        <ele>1293</ele>
        <time>2022-05-08T21:31:09Z</time>
      </trkpt>
      <trkpt lat="44.64274" lon="6.64406">
        <ele>1296</ele>
        <time>2022-05-08T21:31:12Z</time>
      </trkpt>
      <trkpt lat="44.64286" lon="6.64404">
        <ele>1296</ele>
        <time>2022-05-08T21:31:15Z</time>
      </trkpt>
      <trkpt lat="44.64327" lon="6.64358">
        <ele>1287</ele>
        <time>2022-05-08T21:31:27Z</time>
      </trkpt>
      <trkpt lat="44.64334" lon="6.64367">
        <ele>1290</ele>
        <time>2022-05-08T21:31:30Z</time>
      </trkpt>
      <trkpt lat="44.6432" lon="6.64387">
        <ele>1294</ele>
        <time>2022-05-08T21:31:34Z</time>
      </trkpt>
      <trkpt lat="44.643" lon="6.64408">
        <ele>1299</ele>
        <time>2022-05-08T21:31:40Z</time>
      </trkpt>
      <trkpt lat="44.64303" lon="6.64425">
        <ele>1304</ele>
        <time>2022-05-08T21:31:43Z</time>
      </trkpt>
      <trkpt lat="44.64295" lon="6.64436">
        <ele>1306</ele>
        <time>2022-05-08T21:31:46Z</time>
      </trkpt>
      <trkpt lat="44.6428" lon="6.64445">
        <ele>1308</ele>
        <time>2022-05-08T21:31:49Z</time>
      </trkpt>
      <trkpt lat="44.64262" lon="6.64448">
        <ele>1307</ele>
        <time>2022-05-08T21:31:54Z</time>
      </trkpt>
      <trkpt lat="44.64249" lon="6.64461">
        <ele>1310</ele>
        <time>2022-05-08T21:31:57Z</time>
      </trkpt>
      <trkpt lat="44.64231" lon="6.64471">
        <ele>1311</ele>
        <time>2022-05-08T21:32:02Z</time>
      </trkpt>
      <trkpt lat="44.64223" lon="6.64479">
        <ele>1312</ele>
        <time>2022-05-08T21:32:04Z</time>
      </trkpt>
      <trkpt lat="44.64216" lon="6.64493">
        <ele>1314</ele>
        <time>2022-05-08T21:32:07Z</time>
      </trkpt>
      <trkpt lat="44.64209" lon="6.64508">
        <ele>1316</ele>
        <time>2022-05-08T21:32:10Z</time>
      </trkpt>
      <trkpt lat="44.642" lon="6.64539">
        <ele>1320</ele>
        <time>2022-05-08T21:32:16Z</time>
      </trkpt>
      <trkpt lat="44.64192" lon="6.64551">
        <ele>1321</ele>
        <time>2022-05-08T21:32:18Z</time>
      </trkpt>
      <trkpt lat="44.64188" lon="6.64567">
        <ele>1323</ele>
        <time>2022-05-08T21:32:21Z</time>
      </trkpt>
      <trkpt lat="44.64189" lon="6.64582">
        <ele>1326</ele>
        <time>2022-05-08T21:32:24Z</time>
      </trkpt>
      <trkpt lat="44.64199" lon="6.6461">
        <ele>1331</ele>
        <time>2022-05-08T21:32:29Z</time>
      </trkpt>
      <trkpt lat="44.64205" lon="6.64636">
        <ele>1334</ele>
        <time>2022-05-08T21:32:33Z</time>
      </trkpt>
      <trkpt lat="44.64204" lon="6.64652">
        <ele>1336</ele>
        <time>2022-05-08T21:32:36Z</time>
      </trkpt>
      <trkpt lat="44.64196" lon="6.64659">
        <ele>1337</ele>
        <time>2022-05-08T21:32:38Z</time>
      </trkpt>
      <trkpt lat="44.64187" lon="6.64662">
        <ele>1338</ele>
        <time>2022-05-08T21:32:40Z</time>
      </trkpt>
      <trkpt lat="44.64166" lon="6.64654">
        <ele>1337</ele>
        <time>2022-05-08T21:32:45Z</time>
      </trkpt>
      <trkpt lat="44.64146" lon="6.64643">
        <ele>1340</ele>
        <time>2022-05-08T21:32:50Z</time>
      </trkpt>
      <trkpt lat="44.64127" lon="6.64629">
        <ele>1343</ele>
        <time>2022-05-08T21:32:55Z</time>
      </trkpt>
      <trkpt lat="44.64112" lon="6.64613">
        <ele>1343</ele>
        <time>2022-05-08T21:33:00Z</time>
      </trkpt>
      <trkpt lat="44.64102" lon="6.64609">
        <ele>1345</ele>
        <time>2022-05-08T21:33:02Z</time>
      </trkpt>
      <trkpt lat="44.64082" lon="6.64612">
        <ele>1351</ele>
        <time>2022-05-08T21:33:07Z</time>
      </trkpt>
      <trkpt lat="44.64073" lon="6.64611">
        <ele>1354</ele>
        <time>2022-05-08T21:33:09Z</time>
      </trkpt>
      <trkpt lat="44.64062" lon="6.64614">
        <ele>1359</ele>
        <time>2022-05-08T21:33:12Z</time>
      </trkpt>
      <trkpt lat="44.64049" lon="6.64607">
        <ele>1363</ele>
        <time>2022-05-08T21:33:15Z</time>
      </trkpt>
      <trkpt lat="44.64036" lon="6.64576">
        <ele>1363</ele>
        <time>2022-05-08T21:33:21Z</time>
      </trkpt>
      <trkpt lat="44.64034" lon="6.64561">
        <ele>1363</ele>
        <time>2022-05-08T21:33:24Z</time>
      </trkpt>
      <trkpt lat="44.64037" lon="6.64518">
        <ele>1358</ele>
        <time>2022-05-08T21:33:31Z</time>
      </trkpt>
      <trkpt lat="44.64034" lon="6.64486">
        <ele>1357</ele>
        <time>2022-05-08T21:33:36Z</time>
      </trkpt>
      <trkpt lat="44.64024" lon="6.64474">
        <ele>1360</ele>
        <time>2022-05-08T21:33:39Z</time>
      </trkpt>
      <trkpt lat="44.64011" lon="6.6445">
        <ele>1362</ele>
        <time>2022-05-08T21:33:44Z</time>
      </trkpt>
      <trkpt lat="44.64002" lon="6.64421">
        <ele>1363</ele>
        <time>2022-05-08T21:33:49Z</time>
      </trkpt>
      <trkpt lat="44.63978" lon="6.64414">
        <ele>1368</ele>
        <time>2022-05-08T21:33:55Z</time>
      </trkpt>
      <trkpt lat="44.63958" lon="6.64395">
        <ele>1372</ele>
        <time>2022-05-08T21:34:01Z</time>
      </trkpt>
      <trkpt lat="44.63937" lon="6.64389">
        <ele>1377</ele>
        <time>2022-05-08T21:34:06Z</time>
      </trkpt>
      <trkpt lat="44.63929" lon="6.64381">
        <ele>1378</ele>
        <time>2022-05-08T21:34:08Z</time>
      </trkpt>
      <trkpt lat="44.63926" lon="6.6435">
        <ele>1377</ele>
        <time>2022-05-08T21:34:13Z</time>
      </trkpt>
      <trkpt lat="44.63919" lon="6.64334">
        <ele>1377</ele>
        <time>2022-05-08T21:34:16Z</time>
      </trkpt>
      <trkpt lat="44.63894" lon="6.64293">
        <ele>1382</ele>
        <time>2022-05-08T21:34:25Z</time>
      </trkpt>
      <trkpt lat="44.63861" lon="6.64256">
        <ele>1393</ele>
        <time>2022-05-08T21:34:35Z</time>
      </trkpt>
      <trkpt lat="44.63843" lon="6.64222">
        <ele>1394</ele>
        <time>2022-05-08T21:34:42Z</time>
      </trkpt>
      <trkpt lat="44.63824" lon="6.64202">
        <ele>1397</ele>
        <time>2022-05-08T21:34:48Z</time>
      </trkpt>
      <trkpt lat="44.63788" lon="6.64185">
        <ele>1406</ele>
        <time>2022-05-08T21:34:57Z</time>
      </trkpt>
      <trkpt lat="44.63757" lon="6.64164">
        <ele>1413</ele>
        <time>2022-05-08T21:35:05Z</time>
      </trkpt>
      <trkpt lat="44.63739" lon="6.64141">
        <ele>1414</ele>
        <time>2022-05-08T21:35:10Z</time>
      </trkpt>
      <trkpt lat="44.63714" lon="6.64095">
        <ele>1414</ele>
        <time>2022-05-08T21:35:20Z</time>
      </trkpt>
      <trkpt lat="44.63691" lon="6.6407">
        <ele>1419</ele>
        <time>2022-05-08T21:35:27Z</time>
      </trkpt>
      <trkpt lat="44.63679" lon="6.64045">
        <ele>1420</ele>
        <time>2022-05-08T21:35:32Z</time>
      </trkpt>
      <trkpt lat="44.63651" lon="6.64025">
        <ele>1425</ele>
        <time>2022-05-08T21:35:39Z</time>
      </trkpt>
      <trkpt lat="44.63645" lon="6.64014">
        <ele>1425</ele>
        <time>2022-05-08T21:35:41Z</time>
      </trkpt>
      <trkpt lat="44.63645" lon="6.64016">
        <ele>1425</ele>
        <time>2022-05-08T21:35:42Z</time>
      </trkpt>
      <trkpt lat="44.63608" lon="6.63999">
        <ele>1431</ele>
        <time>2022-05-08T21:35:51Z</time>
      </trkpt>
      <trkpt lat="44.63596" lon="6.63988">
        <ele>1433</ele>
        <time>2022-05-08T21:35:54Z</time>
      </trkpt>
      <trkpt lat="44.63574" lon="6.63982">
        <ele>1438</ele>
        <time>2022-05-08T21:35:59Z</time>
      </trkpt>
      <trkpt lat="44.63549" lon="6.63971">
        <ele>1444</ele>
        <time>2022-05-08T21:36:06Z</time>
      </trkpt>
      <trkpt lat="44.63545" lon="6.63983">
        <ele>1446</ele>
        <time>2022-05-08T21:36:08Z</time>
      </trkpt>
      <trkpt lat="44.6355" lon="6.63999">
        <ele>1446</ele>
        <time>2022-05-08T21:36:11Z</time>
      </trkpt>
      <trkpt lat="44.63563" lon="6.64024">
        <ele>1447</ele>
        <time>2022-05-08T21:36:16Z</time>
      </trkpt>
      <trkpt lat="44.63573" lon="6.64036">
        <ele>1447</ele>
        <time>2022-05-08T21:36:19Z</time>
      </trkpt>
      <trkpt lat="44.63601" lon="6.64084">
        <ele>1449</ele>
        <time>2022-05-08T21:36:29Z</time>
      </trkpt>
      <trkpt lat="44.63611" lon="6.64097">
        <ele>1447</ele>
        <time>2022-05-08T21:36:32Z</time>
      </trkpt>
      <trkpt lat="44.63623" lon="6.64105">
        <ele>1444</ele>
        <time>2022-05-08T21:36:35Z</time>
      </trkpt>
      <trkpt lat="44.6363" lon="6.64116">
        <ele>1443</ele>
        <time>2022-05-08T21:36:38Z</time>
      </trkpt>
      <trkpt lat="44.63633" lon="6.64128">
        <ele>1443</ele>
        <time>2022-05-08T21:36:40Z</time>
      </trkpt>
      <trkpt lat="44.6362" lon="6.64198">
        <ele>1457</ele>
        <time>2022-05-08T21:36:52Z</time>
      </trkpt>
      <trkpt lat="44.63625" lon="6.64259">
        <ele>1464</ele>
        <time>2022-05-08T21:37:02Z</time>
      </trkpt>
      <trkpt lat="44.63642" lon="6.64284">
        <ele>1460</ele>
        <time>2022-05-08T21:37:08Z</time>
      </trkpt>
      <trkpt lat="44.63655" lon="6.64315">
        <ele>1459</ele>
        <time>2022-05-08T21:37:14Z</time>
      </trkpt>
      <trkpt lat="44.63658" lon="6.64347">
        <ele>1460</ele>
        <time>2022-05-08T21:37:19Z</time>
      </trkpt>
      <trkpt lat="44.63654" lon="6.64384">
        <ele>1462</ele>
        <time>2022-05-08T21:37:26Z</time>
      </trkpt>
      <trkpt lat="44.63644" lon="6.64419">
        <ele>1466</ele>
        <time>2022-05-08T21:37:32Z</time>
      </trkpt>
      <trkpt lat="44.63614" lon="6.64479">
        <ele>1475</ele>
        <time>2022-05-08T21:37:44Z</time>
      </trkpt>
      <trkpt lat="44.63609" lon="6.64508">
        <ele>1476</ele>
        <time>2022-05-08T21:37:49Z</time>
      </trkpt>
      <trkpt lat="44.6359" lon="6.64573">
        <ele>1481</ele>
        <time>2022-05-08T21:38:01Z</time>
      </trkpt>
      <trkpt lat="44.63587" lon="6.64627">
        <ele>1485</ele>
        <time>2022-05-08T21:38:10Z</time>
      </trkpt>
      <trkpt lat="44.63574" lon="6.64685">
        <ele>1494</ele>
        <time>2022-05-08T21:38:20Z</time>
      </trkpt>
      <trkpt lat="44.63563" lon="6.64715">
        <ele>1501</ele>
        <time>2022-05-08T21:38:25Z</time>
      </trkpt>
      <trkpt lat="44.63551" lon="6.64733">
        <ele>1505</ele>
        <time>2022-05-08T21:38:29Z</time>
      </trkpt>
      <trkpt lat="44.6354" lon="6.64744">
        <ele>1508</ele>
        <time>2022-05-08T21:38:33Z</time>
      </trkpt>
      <trkpt lat="44.63528" lon="6.64745">
        <ele>1510</ele>
        <time>2022-05-08T21:38:35Z</time>
      </trkpt>
      <trkpt lat="44.6351" lon="6.64729">
        <ele>1510</ele>
        <time>2022-05-08T21:38:40Z</time>
      </trkpt>
      <trkpt lat="44.63514" lon="6.64704">
        <ele>1506</ele>
        <time>2022-05-08T21:38:45Z</time>
      </trkpt>
      <trkpt lat="44.63506" lon="6.64688">
        <ele>1506</ele>
        <time>2022-05-08T21:38:48Z</time>
      </trkpt>
      <trkpt lat="44.63496" lon="6.64658">
        <ele>1505</ele>
        <time>2022-05-08T21:38:53Z</time>
      </trkpt>
      <trkpt lat="44.63493" lon="6.64626">
        <ele>1506</ele>
        <time>2022-05-08T21:38:59Z</time>
      </trkpt>
      <trkpt lat="44.63487" lon="6.64613">
        <ele>1507</ele>
        <time>2022-05-08T21:39:01Z</time>
      </trkpt>
      <trkpt lat="44.63454" lon="6.64578">
        <ele>1513</ele>
        <time>2022-05-08T21:39:11Z</time>
      </trkpt>
      <trkpt lat="44.63431" lon="6.64572">
        <ele>1518</ele>
        <time>2022-05-08T21:39:16Z</time>
      </trkpt>
      <trkpt lat="44.63407" lon="6.64573">
        <ele>1525</ele>
        <time>2022-05-08T21:39:22Z</time>
      </trkpt>
      <trkpt lat="44.63397" lon="6.64567">
        <ele>1529</ele>
        <time>2022-05-08T21:39:25Z</time>
      </trkpt>
      <trkpt lat="44.63384" lon="6.64547">
        <ele>1533</ele>
        <time>2022-05-08T21:39:29Z</time>
      </trkpt>
      <trkpt lat="44.63389" lon="6.64529">
        <ele>1530</ele>
        <time>2022-05-08T21:39:32Z</time>
      </trkpt>
      <trkpt lat="44.6339" lon="6.64452">
        <ele>1531</ele>
        <time>2022-05-08T21:39:45Z</time>
      </trkpt>
      <trkpt lat="44.63378" lon="6.64427">
        <ele>1535</ele>
        <time>2022-05-08T21:39:50Z</time>
      </trkpt>
      <trkpt lat="44.63378" lon="6.64373">
        <ele>1534</ele>
        <time>2022-05-08T21:39:59Z</time>
      </trkpt>
      <trkpt lat="44.63372" lon="6.64341">
        <ele>1534</ele>
        <time>2022-05-08T21:40:05Z</time>
      </trkpt>
      <trkpt lat="44.63363" lon="6.64328">
        <ele>1535</ele>
        <time>2022-05-08T21:40:08Z</time>
      </trkpt>
      <trkpt lat="44.63351" lon="6.64321">
        <ele>1536</ele>
        <time>2022-05-08T21:40:11Z</time>
      </trkpt>
      <trkpt lat="44.63339" lon="6.64323">
        <ele>1538</ele>
        <time>2022-05-08T21:40:13Z</time>
      </trkpt>
      <trkpt lat="44.63308" lon="6.64334">
        <ele>1547</ele>
        <time>2022-05-08T21:40:21Z</time>
      </trkpt>
      <trkpt lat="44.63269" lon="6.64354">
        <ele>1558</ele>
        <time>2022-05-08T21:40:31Z</time>
      </trkpt>
      <trkpt lat="44.63265" lon="6.6437">
        <ele>1559</ele>
        <time>2022-05-08T21:40:33Z</time>
      </trkpt>
      <trkpt lat="44.63271" lon="6.64381">
        <ele>1558</ele>
        <time>2022-05-08T21:40:36Z</time>
      </trkpt>
      <trkpt lat="44.63289" lon="6.64385">
        <ele>1554</ele>
        <time>2022-05-08T21:40:40Z</time>
      </trkpt>
      <trkpt lat="44.63297" lon="6.64397">
        <ele>1553</ele>
        <time>2022-05-08T21:40:43Z</time>
      </trkpt>
      <trkpt lat="44.63301" lon="6.64418">
        <ele>1554</ele>
        <time>2022-05-08T21:40:46Z</time>
      </trkpt>
      <trkpt lat="44.63301" lon="6.64438">
        <ele>1554</ele>
        <time>2022-05-08T21:40:50Z</time>
      </trkpt>
      <trkpt lat="44.63313" lon="6.64492">
        <ele>1553</ele>
        <time>2022-05-08T21:40:59Z</time>
      </trkpt>
      <trkpt lat="44.6331" lon="6.64508">
        <ele>1554</ele>
        <time>2022-05-08T21:41:02Z</time>
      </trkpt>
      <trkpt lat="44.63295" lon="6.64535">
        <ele>1559</ele>
        <time>2022-05-08T21:41:08Z</time>
      </trkpt>
      <trkpt lat="44.63284" lon="6.64561">
        <ele>1563</ele>
        <time>2022-05-08T21:41:13Z</time>
      </trkpt>
      <trkpt lat="44.63284" lon="6.64578">
        <ele>1564</ele>
        <time>2022-05-08T21:41:15Z</time>
      </trkpt>
      <trkpt lat="44.63278" lon="6.64593">
        <ele>1567</ele>
        <time>2022-05-08T21:41:18Z</time>
      </trkpt>
      <trkpt lat="44.63269" lon="6.64596">
        <ele>1570</ele>
        <time>2022-05-08T21:41:20Z</time>
      </trkpt>
      <trkpt lat="44.63243" lon="6.64566">
        <ele>1572</ele>
        <time>2022-05-08T21:41:28Z</time>
      </trkpt>
      <trkpt lat="44.63209" lon="6.64567">
        <ele>1580</ele>
        <time>2022-05-08T21:41:36Z</time>
      </trkpt>
      <trkpt lat="44.63196" lon="6.64562">
        <ele>1583</ele>
        <time>2022-05-08T21:41:39Z</time>
      </trkpt>
      <trkpt lat="44.63198" lon="6.64546">
        <ele>1582</ele>
        <time>2022-05-08T21:41:42Z</time>
      </trkpt>
      <trkpt lat="44.63194" lon="6.64528">
        <ele>1583</ele>
        <time>2022-05-08T21:41:45Z</time>
      </trkpt>
      <trkpt lat="44.63172" lon="6.64575">
        <ele>1590</ele>
        <time>2022-05-08T21:41:55Z</time>
      </trkpt>
      <trkpt lat="44.6317" lon="6.64592">
        <ele>1592</ele>
        <time>2022-05-08T21:41:57Z</time>
      </trkpt>
      <trkpt lat="44.63173" lon="6.64604">
        <ele>1594</ele>
        <time>2022-05-08T21:42:00Z</time>
      </trkpt>
      <trkpt lat="44.63186" lon="6.64627">
        <ele>1595</ele>
        <time>2022-05-08T21:42:04Z</time>
      </trkpt>
      <trkpt lat="44.63215" lon="6.64657">
        <ele>1596</ele>
        <time>2022-05-08T21:42:13Z</time>
      </trkpt>
      <trkpt lat="44.6322" lon="6.64668">
        <ele>1597</ele>
        <time>2022-05-08T21:42:15Z</time>
      </trkpt>
      <trkpt lat="44.63228" lon="6.64677">
        <ele>1598</ele>
        <time>2022-05-08T21:42:17Z</time>
      </trkpt>
      <trkpt lat="44.63257" lon="6.64703">
        <ele>1597</ele>
        <time>2022-05-08T21:42:25Z</time>
      </trkpt>
      <trkpt lat="44.63278" lon="6.64741">
        <ele>1600</ele>
        <time>2022-05-08T21:42:33Z</time>
      </trkpt>
      <trkpt lat="44.63225" lon="6.6473">
        <ele>1611</ele>
        <time>2022-05-08T21:42:46Z</time>
      </trkpt>
      <trkpt lat="44.63231" lon="6.64742">
        <ele>1613</ele>
        <time>2022-05-08T21:42:48Z</time>
      </trkpt>
      <trkpt lat="44.63239" lon="6.64751">
        <ele>1613</ele>
        <time>2022-05-08T21:42:51Z</time>
      </trkpt>
      <trkpt lat="44.63253" lon="6.64778">
        <ele>1615</ele>
        <time>2022-05-08T21:42:56Z</time>
      </trkpt>
      <trkpt lat="44.63258" lon="6.64808">
        <ele>1619</ele>
        <time>2022-05-08T21:43:01Z</time>
      </trkpt>
      <trkpt lat="44.63254" lon="6.64823">
        <ele>1623</ele>
        <time>2022-05-08T21:43:04Z</time>
      </trkpt>
      <trkpt lat="44.63245" lon="6.64817">
        <ele>1624</ele>
        <time>2022-05-08T21:43:06Z</time>
      </trkpt>
      <trkpt lat="44.63235" lon="6.64815">
        <ele>1625</ele>
        <time>2022-05-08T21:43:09Z</time>
      </trkpt>
      <trkpt lat="44.63228" lon="6.64806">
        <ele>1625</ele>
        <time>2022-05-08T21:43:11Z</time>
      </trkpt>
      <trkpt lat="44.63207" lon="6.64796">
        <ele>1627</ele>
        <time>2022-05-08T21:43:16Z</time>
      </trkpt>
      <trkpt lat="44.63197" lon="6.64788">
        <ele>1627</ele>
        <time>2022-05-08T21:43:19Z</time>
      </trkpt>
      <trkpt lat="44.63188" lon="6.64795">
        <ele>1630</ele>
        <time>2022-05-08T21:43:21Z</time>
      </trkpt>
      <trkpt lat="44.63203" lon="6.648">
        <ele>1628</ele>
        <time>2022-05-08T21:43:25Z</time>
      </trkpt>
      <trkpt lat="44.63212" lon="6.6481">
        <ele>1628</ele>
        <time>2022-05-08T21:43:28Z</time>
      </trkpt>
      <trkpt lat="44.63218" lon="6.64826">
        <ele>1629</ele>
        <time>2022-05-08T21:43:31Z</time>
      </trkpt>
      <trkpt lat="44.63226" lon="6.64871">
        <ele>1632</ele>
        <time>2022-05-08T21:43:38Z</time>
      </trkpt>
      <trkpt lat="44.6321" lon="6.64893">
        <ele>1634</ele>
        <time>2022-05-08T21:43:43Z</time>
      </trkpt>
      <trkpt lat="44.632" lon="6.64899">
        <ele>1635</ele>
        <time>2022-05-08T21:43:46Z</time>
      </trkpt>
      <trkpt lat="44.63181" lon="6.64859">
        <ele>1636</ele>
        <time>2022-05-08T21:43:54Z</time>
      </trkpt>
      <trkpt lat="44.63171" lon="6.64849">
        <ele>1637</ele>
        <time>2022-05-08T21:43:57Z</time>
      </trkpt>
      <trkpt lat="44.63142" lon="6.64831">
        <ele>1642</ele>
        <time>2022-05-08T21:44:04Z</time>
      </trkpt>
      <trkpt lat="44.63133" lon="6.64833">
        <ele>1644</ele>
        <time>2022-05-08T21:44:06Z</time>
      </trkpt>
      <trkpt lat="44.63117" lon="6.64852">
        <ele>1646</ele>
        <time>2022-05-08T21:44:11Z</time>
      </trkpt>
      <trkpt lat="44.63071" lon="6.64881">
        <ele>1652</ele>
        <time>2022-05-08T21:44:23Z</time>
      </trkpt>
      <trkpt lat="44.63051" lon="6.64898">
        <ele>1656</ele>
        <time>2022-05-08T21:44:29Z</time>
      </trkpt>
      <trkpt lat="44.63039" lon="6.64896">
        <ele>1658</ele>
        <time>2022-05-08T21:44:31Z</time>
      </trkpt>
      <trkpt lat="44.63028" lon="6.64898">
        <ele>1660</ele>
        <time>2022-05-08T21:44:34Z</time>
      </trkpt>
      <trkpt lat="44.63019" lon="6.64892">
        <ele>1662</ele>
        <time>2022-05-08T21:44:36Z</time>
      </trkpt>
      <trkpt lat="44.63011" lon="6.64879">
        <ele>1663</ele>
        <time>2022-05-08T21:44:39Z</time>
      </trkpt>
      <trkpt lat="44.63007" lon="6.64864">
        <ele>1664</ele>
        <time>2022-05-08T21:44:42Z</time>
      </trkpt>
      <trkpt lat="44.62997" lon="6.64854">
        <ele>1665</ele>
        <time>2022-05-08T21:44:45Z</time>
      </trkpt>
      <trkpt lat="44.62986" lon="6.64858">
        <ele>1669</ele>
        <time>2022-05-08T21:44:47Z</time>
      </trkpt>
      <trkpt lat="44.6297" lon="6.64878">
        <ele>1674</ele>
        <time>2022-05-08T21:44:52Z</time>
      </trkpt>
      <trkpt lat="44.62963" lon="6.64903">
        <ele>1675</ele>
        <time>2022-05-08T21:44:57Z</time>
      </trkpt>
      <trkpt lat="44.6295" lon="6.64925">
        <ele>1678</ele>
        <time>2022-05-08T21:45:02Z</time>
      </trkpt>
      <trkpt lat="44.62939" lon="6.64923">
        <ele>1681</ele>
        <time>2022-05-08T21:45:04Z</time>
      </trkpt>
      <trkpt lat="44.62935" lon="6.64908">
        <ele>1683</ele>
        <time>2022-05-08T21:45:07Z</time>
      </trkpt>
      <trkpt lat="44.62911" lon="6.64863">
        <ele>1692</ele>
        <time>2022-05-08T21:45:16Z</time>
      </trkpt>
      <trkpt lat="44.62903" lon="6.64833">
        <ele>1697</ele>
        <time>2022-05-08T21:45:21Z</time>
      </trkpt>
      <trkpt lat="44.62874" lon="6.64807">
        <ele>1710</ele>
        <time>2022-05-08T21:45:29Z</time>
      </trkpt>
      <trkpt lat="44.62893" lon="6.64772">
        <ele>1702</ele>
        <time>2022-05-08T21:45:37Z</time>
      </trkpt>
      <trkpt lat="44.62896" lon="6.64754">
        <ele>1701</ele>
        <time>2022-05-08T21:45:40Z</time>
      </trkpt>
      <trkpt lat="44.62888" lon="6.64747">
        <ele>1704</ele>
        <time>2022-05-08T21:45:42Z</time>
      </trkpt>
      <trkpt lat="44.62873" lon="6.64744">
        <ele>1709</ele>
        <time>2022-05-08T21:45:46Z</time>
      </trkpt>
      <trkpt lat="44.62863" lon="6.64737">
        <ele>1712</ele>
        <time>2022-05-08T21:45:48Z</time>
      </trkpt>
      <trkpt lat="44.62846" lon="6.64711">
        <ele>1715</ele>
        <time>2022-05-08T21:45:54Z</time>
      </trkpt>
      <trkpt lat="44.62818" lon="6.64651">
        <ele>1714</ele>
        <time>2022-05-08T21:46:06Z</time>
      </trkpt>
      <trkpt lat="44.62807" lon="6.64641">
        <ele>1714</ele>
        <time>2022-05-08T21:46:09Z</time>
      </trkpt>
      <trkpt lat="44.62798" lon="6.64637">
        <ele>1714</ele>
        <time>2022-05-08T21:46:11Z</time>
      </trkpt>
      <trkpt lat="44.6279" lon="6.64648">
        <ele>1715</ele>
        <time>2022-05-08T21:46:14Z</time>
      </trkpt>
      <trkpt lat="44.6277" lon="6.64657">
        <ele>1715</ele>
        <time>2022-05-08T21:46:19Z</time>
      </trkpt>
      <trkpt lat="44.62754" lon="6.64678">
        <ele>1718</ele>
        <time>2022-05-08T21:46:24Z</time>
      </trkpt>
      <trkpt lat="44.6274" lon="6.64704">
        <ele>1726</ele>
        <time>2022-05-08T21:46:29Z</time>
      </trkpt>
      <trkpt lat="44.62747" lon="6.64714">
        <ele>1727</ele>
        <time>2022-05-08T21:46:32Z</time>
      </trkpt>
      <trkpt lat="44.62763" lon="6.64717">
        <ele>1726</ele>
        <time>2022-05-08T21:46:35Z</time>
      </trkpt>
      <trkpt lat="44.62773" lon="6.64714">
        <ele>1725</ele>
        <time>2022-05-08T21:46:38Z</time>
      </trkpt>
      <trkpt lat="44.62787" lon="6.6472">
        <ele>1725</ele>
        <time>2022-05-08T21:46:41Z</time>
      </trkpt>
      <trkpt lat="44.62776" lon="6.6473">
        <ele>1727</ele>
        <time>2022-05-08T21:46:44Z</time>
      </trkpt>
      <trkpt lat="44.6274" lon="6.64738">
        <ele>1733</ele>
        <time>2022-05-08T21:46:53Z</time>
      </trkpt>
      <trkpt lat="44.6273" lon="6.6474">
        <ele>1735</ele>
        <time>2022-05-08T21:46:55Z</time>
      </trkpt>
      <trkpt lat="44.62719" lon="6.64737">
        <ele>1737</ele>
        <time>2022-05-08T21:46:58Z</time>
      </trkpt>
      <trkpt lat="44.62699" lon="6.64739">
        <ele>1741</ele>
        <time>2022-05-08T21:47:02Z</time>
      </trkpt>
      <trkpt lat="44.6269" lon="6.64751">
        <ele>1745</ele>
        <time>2022-05-08T21:47:05Z</time>
      </trkpt>
      <trkpt lat="44.62695" lon="6.64763">
        <ele>1747</ele>
        <time>2022-05-08T21:47:08Z</time>
      </trkpt>
      <trkpt lat="44.62747" lon="6.64788">
        <ele>1742</ele>
        <time>2022-05-08T21:47:20Z</time>
      </trkpt>
      <trkpt lat="44.62761" lon="6.64809">
        <ele>1744</ele>
        <time>2022-05-08T21:47:25Z</time>
      </trkpt>
      <trkpt lat="44.62756" lon="6.64822">
        <ele>1747</ele>
        <time>2022-05-08T21:47:28Z</time>
      </trkpt>
      <trkpt lat="44.62732" lon="6.64836">
        <ele>1755</ele>
        <time>2022-05-08T21:47:34Z</time>
      </trkpt>
      <trkpt lat="44.62709" lon="6.64835">
        <ele>1760</ele>
        <time>2022-05-08T21:47:39Z</time>
      </trkpt>
      <trkpt lat="44.62697" lon="6.64837">
        <ele>1763</ele>
        <time>2022-05-08T21:47:42Z</time>
      </trkpt>
      <trkpt lat="44.62687" lon="6.64832">
        <ele>1764</ele>
        <time>2022-05-08T21:47:44Z</time>
      </trkpt>
      <trkpt lat="44.62666" lon="6.64788">
        <ele>1758</ele>
        <time>2022-05-08T21:47:53Z</time>
      </trkpt>
      <trkpt lat="44.62597" lon="6.6474">
        <ele>1772</ele>
        <time>2022-05-08T21:48:11Z</time>
      </trkpt>
      <trkpt lat="44.62552" lon="6.64654">
        <ele>1774</ele>
        <time>2022-05-08T21:48:29Z</time>
      </trkpt>
      <trkpt lat="44.62525" lon="6.6456">
        <ele>1781</ele>
        <time>2022-05-08T21:48:46Z</time>
      </trkpt>
      <trkpt lat="44.62504" lon="6.64515">
        <ele>1783</ele>
        <time>2022-05-08T21:48:55Z</time>
      </trkpt>
      <trkpt lat="44.62505" lon="6.64473">
        <ele>1777</ele>
        <time>2022-05-08T21:49:02Z</time>
      </trkpt>
      <trkpt lat="44.62482" lon="6.6443">
        <ele>1785</ele>
        <time>2022-05-08T21:49:11Z</time>
      </trkpt>
      <trkpt lat="44.62482" lon="6.64382">
        <ele>1782</ele>
        <time>2022-05-08T21:49:19Z</time>
      </trkpt>
      <trkpt lat="44.62455" lon="6.64341">
        <ele>1794</ele>
        <time>2022-05-08T21:49:28Z</time>
      </trkpt>
      <trkpt lat="44.62465" lon="6.64259">
        <ele>1795</ele>
        <time>2022-05-08T21:49:42Z</time>
      </trkpt>
      <trkpt lat="44.62479" lon="6.64188">
        <ele>1799</ele>
        <time>2022-05-08T21:49:54Z</time>
      </trkpt>
      <trkpt lat="44.62545" lon="6.64051">
        <ele>1811</ele>
        <time>2022-05-08T21:50:22Z</time>
      </trkpt>
      <trkpt lat="44.62597" lon="6.64022">
        <ele>1805</ele>
        <time>2022-05-08T21:50:35Z</time>
      </trkpt>
      <trkpt lat="44.62638" lon="6.6398">
        <ele>1804</ele>
        <time>2022-05-08T21:50:46Z</time>
      </trkpt>
      <trkpt lat="44.6262" lon="6.63931">
        <ele>1818</ele>
        <time>2022-05-08T21:50:56Z</time>
      </trkpt>
      <trkpt lat="44.62614" lon="6.63891">
        <ele>1824</ele>
        <time>2022-05-08T21:51:02Z</time>
      </trkpt>
      <trkpt lat="44.62597" lon="6.63902">
        <ele>1830</ele>
        <time>2022-05-08T21:51:07Z</time>
      </trkpt>
      <trkpt lat="44.62596" lon="6.63949">
        <ele>1822</ele>
        <time>2022-05-08T21:51:15Z</time>
      </trkpt>
      <trkpt lat="44.62576" lon="6.63941">
        <ele>1830</ele>
        <time>2022-05-08T21:51:19Z</time>
      </trkpt>
      <trkpt lat="44.62545" lon="6.63799">
        <ele>1845</ele>
        <time>2022-05-08T21:51:44Z</time>
      </trkpt>
      <trkpt lat="44.62507" lon="6.63788">
        <ele>1852</ele>
        <time>2022-05-08T21:51:53Z</time>
      </trkpt>
      <trkpt lat="44.62452" lon="6.63683">
        <ele>1853</ele>
        <time>2022-05-08T21:52:15Z</time>
      </trkpt>
      <trkpt lat="44.62425" lon="6.63685">
        <ele>1857</ele>
        <time>2022-05-08T21:52:21Z</time>
      </trkpt>
      <trkpt lat="44.62397" lon="6.6363">
        <ele>1859</ele>
        <time>2022-05-08T21:52:32Z</time>
      </trkpt>
      <trkpt lat="44.62373" lon="6.636">
        <ele>1863</ele>
        <time>2022-05-08T21:52:40Z</time>
      </trkpt>
      <trkpt lat="44.62364" lon="6.63454">
        <ele>1861</ele>
        <time>2022-05-08T21:53:04Z</time>
      </trkpt>
      <trkpt lat="44.62345" lon="6.63416">
        <ele>1861</ele>
        <time>2022-05-08T21:53:12Z</time>
      </trkpt>
      <trkpt lat="44.62298" lon="6.63369">
        <ele>1862</ele>
        <time>2022-05-08T21:53:25Z</time>
      </trkpt>
      <trkpt lat="44.62259" lon="6.63349">
        <ele>1864</ele>
        <time>2022-05-08T21:53:35Z</time>
      </trkpt>
      <trkpt lat="44.62217" lon="6.63333">
        <ele>1869</ele>
        <time>2022-05-08T21:53:45Z</time>
      </trkpt>
      <trkpt lat="44.62202" lon="6.633">
        <ele>1874</ele>
        <time>2022-05-08T21:53:52Z</time>
      </trkpt>
      <trkpt lat="44.62172" lon="6.63289">
        <ele>1880</ele>
        <time>2022-05-08T21:53:59Z</time>
      </trkpt>
      <trkpt lat="44.62072" lon="6.63319">
        <ele>1881</ele>
        <time>2022-05-08T21:54:23Z</time>
      </trkpt>
      <trkpt lat="44.61994" lon="6.63314">
        <ele>1888</ele>
        <time>2022-05-08T21:54:41Z</time>
      </trkpt>
      <trkpt lat="44.61917" lon="6.63322">
        <ele>1895</ele>
        <time>2022-05-08T21:54:59Z</time>
      </trkpt>
      <trkpt lat="44.61864" lon="6.63353">
        <ele>1903</ele>
        <time>2022-05-08T21:55:13Z</time>
      </trkpt>
      <trkpt lat="44.61875" lon="6.6342">
        <ele>1908</ele>
        <time>2022-05-08T21:55:24Z</time>
      </trkpt>
      <trkpt lat="44.6194" lon="6.63499">
        <ele>1909</ele>
        <time>2022-05-08T21:55:44Z</time>
      </trkpt>
      <trkpt lat="44.61952" lon="6.63563">
        <ele>1916</ele>
        <time>2022-05-08T21:55:55Z</time>
      </trkpt>
      <trkpt lat="44.6201" lon="6.63653">
        <ele>1919</ele>
        <time>2022-05-08T21:56:15Z</time>
      </trkpt>
      <trkpt lat="44.61993" lon="6.63729">
        <ele>1928</ele>
        <time>2022-05-08T21:56:29Z</time>
      </trkpt>
      <trkpt lat="44.62007" lon="6.63792">
        <ele>1930</ele>
        <time>2022-05-08T21:56:40Z</time>
      </trkpt>
      <trkpt lat="44.62063" lon="6.63895">
        <ele>1937</ele>
        <time>2022-05-08T21:57:01Z</time>
      </trkpt>
      <trkpt lat="44.62118" lon="6.64072">
        <ele>1955</ele>
        <time>2022-05-08T21:57:33Z</time>
      </trkpt>
      <trkpt lat="44.62117" lon="6.6416">
        <ele>1958</ele>
        <time>2022-05-08T21:57:48Z</time>
      </trkpt>
      <trkpt lat="44.62053" lon="6.64199">
        <ele>1972</ele>
        <time>2022-05-08T21:58:04Z</time>
      </trkpt>
      <trkpt lat="44.62019" lon="6.6429">
        <ele>1971</ele>
        <time>2022-05-08T21:58:21Z</time>
      </trkpt>
      <trkpt lat="44.61947" lon="6.643">
        <ele>1981</ele>
        <time>2022-05-08T21:58:38Z</time>
      </trkpt>
      <trkpt lat="44.61917" lon="6.64321">
        <ele>1981</ele>
        <time>2022-05-08T21:58:46Z</time>
      </trkpt>
      <trkpt lat="44.6186" lon="6.64351">
        <ele>1989</ele>
        <time>2022-05-08T21:59:00Z</time>
      </trkpt>
      <trkpt lat="44.61809" lon="6.64413">
        <ele>1991</ele>
        <time>2022-05-08T21:59:16Z</time>
      </trkpt>
      <trkpt lat="44.61741" lon="6.64507">
        <ele>1994</ele>
        <time>2022-05-08T21:59:38Z</time>
      </trkpt>
      <trkpt lat="44.61701" lon="6.64643">
        <ele>1999</ele>
        <time>2022-05-08T22:00:03Z</time>
      </trkpt>
      <trkpt lat="44.61617" lon="6.64699">
        <ele>2002</ele>
        <time>2022-05-08T22:00:24Z</time>
      </trkpt>
      <trkpt lat="44.6159" lon="6.64633">
        <ele>2018</ele>
        <time>2022-05-08T22:00:37Z</time>
      </trkpt>
      <trkpt lat="44.61454" lon="6.64578">
        <ele>2031</ele>
        <time>2022-05-08T22:01:10Z</time>
      </trkpt>
      <trkpt lat="44.61385" lon="6.64577">
        <ele>2034</ele>
        <time>2022-05-08T22:01:26Z</time>
      </trkpt>
      <trkpt lat="44.61327" lon="6.64604">
        <ele>2036</ele>
        <time>2022-05-08T22:01:40Z</time>
      </trkpt>
      <trkpt lat="44.61224" lon="6.64758">
        <ele>2032</ele>
        <time>2022-05-08T22:02:16Z</time>
      </trkpt>
      <trkpt lat="44.612" lon="6.64814">
        <ele>2030</ele>
        <time>2022-05-08T22:02:26Z</time>
      </trkpt>
      <trkpt lat="44.61167" lon="6.64852">
        <ele>2028</ele>
        <time>2022-05-08T22:02:36Z</time>
      </trkpt>
      <trkpt lat="44.61124" lon="6.64909">
        <ele>2031</ele>
        <time>2022-05-08T22:02:50Z</time>
      </trkpt>
      <trkpt lat="44.61077" lon="6.65008">
        <ele>2036</ele>
        <time>2022-05-08T22:03:10Z</time>
      </trkpt>
      <trkpt lat="44.61081" lon="6.65063">
        <ele>2035</ele>
        <time>2022-05-08T22:03:19Z</time>
      </trkpt>
      <trkpt lat="44.61072" lon="6.65137">
        <ele>2037</ele>
        <time>2022-05-08T22:03:32Z</time>
      </trkpt>
      <trkpt lat="44.61056" lon="6.65332">
        <ele>2039</ele>
        <time>2022-05-08T22:04:04Z</time>
      </trkpt>
      <trkpt lat="44.61072" lon="6.6537">
        <ele>2041</ele>
        <time>2022-05-08T22:04:12Z</time>
      </trkpt>
      <trkpt lat="44.61114" lon="6.654">
        <ele>2037</ele>
        <time>2022-05-08T22:04:23Z</time>
      </trkpt>
      <trkpt lat="44.61152" lon="6.65513">
        <ele>2049</ele>
        <time>2022-05-08T22:04:43Z</time>
      </trkpt>
      <trkpt lat="44.61213" lon="6.65631">
        <ele>2060</ele>
        <time>2022-05-08T22:05:08Z</time>
      </trkpt>
      <trkpt lat="44.61293" lon="6.65638">
        <ele>2042</ele>
        <time>2022-05-08T22:05:26Z</time>
      </trkpt>
      <trkpt lat="44.61257" lon="6.65739">
        <ele>2059</ele>
        <time>2022-05-08T22:05:45Z</time>
      </trkpt>
      <trkpt lat="44.61252" lon="6.65847">
        <ele>2056</ele>
        <time>2022-05-08T22:06:03Z</time>
      </trkpt>
      <trkpt lat="44.61231" lon="6.6593">
        <ele>2062</ele>
        <time>2022-05-08T22:06:18Z</time>
      </trkpt>
      <trkpt lat="44.61249" lon="6.65995">
        <ele>2052</ele>
        <time>2022-05-08T22:06:29Z</time>
      </trkpt>
      <trkpt lat="44.61235" lon="6.66079">
        <ele>2060</ele>
        <time>2022-05-08T22:06:44Z</time>
      </trkpt>
      <trkpt lat="44.61301" lon="6.66093">
        <ele>2046</ele>
        <time>2022-05-08T22:06:59Z</time>
      </trkpt>
      <trkpt lat="44.61297" lon="6.66156">
        <ele>2041</ele>
        <time>2022-05-08T22:07:10Z</time>
      </trkpt>
      <trkpt lat="44.61253" lon="6.66225">
        <ele>2047</ele>
        <time>2022-05-08T22:07:25Z</time>
      </trkpt>
      <trkpt lat="44.61274" lon="6.66326">
        <ele>2032</ele>
        <time>2022-05-08T22:07:43Z</time>
      </trkpt>
      <trkpt lat="44.61268" lon="6.6637">
        <ele>2031</ele>
        <time>2022-05-08T22:07:50Z</time>
      </trkpt>
      <trkpt lat="44.61284" lon="6.6641">
        <ele>2026</ele>
        <time>2022-05-08T22:07:58Z</time>
      </trkpt>
      <trkpt lat="44.61283" lon="6.66449">
        <ele>2020</ele>
        <time>2022-05-08T22:08:04Z</time>
      </trkpt>
      <trkpt lat="44.6127" lon="6.66502">
        <ele>2015</ele>
        <time>2022-05-08T22:08:14Z</time>
      </trkpt>
      <trkpt lat="44.6127" lon="6.66606">
        <ele>2003</ele>
        <time>2022-05-08T22:08:31Z</time>
      </trkpt>
      <trkpt lat="44.61259" lon="6.66667">
        <ele>1996</ele>
        <time>2022-05-08T22:08:41Z</time>
      </trkpt>
      <trkpt lat="44.61211" lon="6.66778">
        <ele>1982</ele>
        <time>2022-05-08T22:09:03Z</time>
      </trkpt>
      <trkpt lat="44.6121" lon="6.66872">
        <ele>1959</ele>
        <time>2022-05-08T22:09:19Z</time>
      </trkpt>
      <trkpt lat="44.61177" lon="6.66993">
        <ele>1945</ele>
        <time>2022-05-08T22:09:40Z</time>
      </trkpt>
      <trkpt lat="44.61175" lon="6.67104">
        <ele>1928</ele>
        <time>2022-05-08T22:09:59Z</time>
      </trkpt>
      <trkpt lat="44.6114" lon="6.67193">
        <ele>1927</ele>
        <time>2022-05-08T22:10:15Z</time>
      </trkpt>
      <trkpt lat="44.61202" lon="6.67318">
        <ele>1907</ele>
        <time>2022-05-08T22:10:41Z</time>
      </trkpt>
      <trkpt lat="44.61194" lon="6.67338">
        <ele>1903</ele>
        <time>2022-05-08T22:10:45Z</time>
      </trkpt>
      <trkpt lat="44.6118" lon="6.67357">
        <ele>1898</ele>
        <time>2022-05-08T22:10:49Z</time>
      </trkpt>
      <trkpt lat="44.61154" lon="6.67381">
        <ele>1893</ele>
        <time>2022-05-08T22:10:56Z</time>
      </trkpt>
      <trkpt lat="44.61122" lon="6.67393">
        <ele>1896</ele>
        <time>2022-05-08T22:11:04Z</time>
      </trkpt>
      <trkpt lat="44.61109" lon="6.67402">
        <ele>1897</ele>
        <time>2022-05-08T22:11:08Z</time>
      </trkpt>
      <trkpt lat="44.61103" lon="6.67414">
        <ele>1895</ele>
        <time>2022-05-08T22:11:10Z</time>
      </trkpt>
      <trkpt lat="44.61103" lon="6.6742">
        <ele>1893</ele>
        <time>2022-05-08T22:11:11Z</time>
      </trkpt>
      <trkpt lat="44.61106" lon="6.67421">
        <ele>1892</ele>
        <time>2022-05-08T22:11:12Z</time>
      </trkpt>
      <trkpt lat="44.61111" lon="6.67433">
        <ele>1885</ele>
        <time>2022-05-08T22:11:14Z</time>
      </trkpt>
      <trkpt lat="44.61108" lon="6.67447">
        <ele>1881</ele>
        <time>2022-05-08T22:11:16Z</time>
      </trkpt>
      <trkpt lat="44.61106" lon="6.67453">
        <ele>1879</ele>
        <time>2022-05-08T22:11:18Z</time>
      </trkpt>
      <trkpt lat="44.61098" lon="6.67462">
        <ele>1877</ele>
        <time>2022-05-08T22:11:20Z</time>
      </trkpt>
      <trkpt lat="44.61084" lon="6.67493">
        <ele>1868</ele>
        <time>2022-05-08T22:11:26Z</time>
      </trkpt>
      <trkpt lat="44.61061" lon="6.6752">
        <ele>1857</ele>
        <time>2022-05-08T22:11:33Z</time>
      </trkpt>
      <trkpt lat="44.61042" lon="6.67534">
        <ele>1852</ele>
        <time>2022-05-08T22:11:38Z</time>
      </trkpt>
      <trkpt lat="44.61026" lon="6.67541">
        <ele>1850</ele>
        <time>2022-05-08T22:11:42Z</time>
      </trkpt>
      <trkpt lat="44.61017" lon="6.67558">
        <ele>1842</ele>
        <time>2022-05-08T22:11:45Z</time>
      </trkpt>
      <trkpt lat="44.60991" lon="6.67596">
        <ele>1827</ele>
        <time>2022-05-08T22:11:54Z</time>
      </trkpt>
      <trkpt lat="44.60968" lon="6.67623">
        <ele>1820</ele>
        <time>2022-05-08T22:12:01Z</time>
      </trkpt>
      <trkpt lat="44.60937" lon="6.67645">
        <ele>1816</ele>
        <time>2022-05-08T22:12:09Z</time>
      </trkpt>
      <trkpt lat="44.60878" lon="6.67675">
        <ele>1812</ele>
        <time>2022-05-08T22:12:24Z</time>
      </trkpt>
      <trkpt lat="44.60852" lon="6.67656">
        <ele>1821</ele>
        <time>2022-05-08T22:12:31Z</time>
      </trkpt>
      <trkpt lat="44.60843" lon="6.67659">
        <ele>1821</ele>
        <time>2022-05-08T22:12:33Z</time>
      </trkpt>
      <trkpt lat="44.60835" lon="6.67681">
        <ele>1816</ele>
        <time>2022-05-08T22:12:37Z</time>
      </trkpt>
      <trkpt lat="44.60838" lon="6.67711">
        <ele>1810</ele>
        <time>2022-05-08T22:12:42Z</time>
      </trkpt>
      <trkpt lat="44.60837" lon="6.67725">
        <ele>1808</ele>
        <time>2022-05-08T22:12:44Z</time>
      </trkpt>
      <trkpt lat="44.60828" lon="6.6773">
        <ele>1809</ele>
        <time>2022-05-08T22:12:47Z</time>
      </trkpt>
      <trkpt lat="44.60811" lon="6.67748">
        <ele>1808</ele>
        <time>2022-05-08T22:12:52Z</time>
      </trkpt>
      <trkpt lat="44.60781" lon="6.67763">
        <ele>1809</ele>
        <time>2022-05-08T22:12:59Z</time>
      </trkpt>
      <trkpt lat="44.60749" lon="6.6777">
        <ele>1812</ele>
        <time>2022-05-08T22:13:07Z</time>
      </trkpt>
      <trkpt lat="44.60721" lon="6.67791">
        <ele>1811</ele>
        <time>2022-05-08T22:13:14Z</time>
      </trkpt>
      <trkpt lat="44.60695" lon="6.678">
        <ele>1812</ele>
        <time>2022-05-08T22:13:20Z</time>
      </trkpt>
      <trkpt lat="44.60652" lon="6.678">
        <ele>1818</ele>
        <time>2022-05-08T22:13:30Z</time>
      </trkpt>
      <trkpt lat="44.60637" lon="6.67804">
        <ele>1820</ele>
        <time>2022-05-08T22:13:34Z</time>
      </trkpt>
      <trkpt lat="44.60585" lon="6.6786">
        <ele>1808</ele>
        <time>2022-05-08T22:13:49Z</time>
      </trkpt>
      <trkpt lat="44.60562" lon="6.67875">
        <ele>1807</ele>
        <time>2022-05-08T22:13:55Z</time>
      </trkpt>
      <trkpt lat="44.60517" lon="6.67925">
        <ele>1796</ele>
        <time>2022-05-08T22:14:09Z</time>
      </trkpt>
      <trkpt lat="44.60504" lon="6.67946">
        <ele>1792</ele>
        <time>2022-05-08T22:14:13Z</time>
      </trkpt>
      <trkpt lat="44.60491" lon="6.67975">
        <ele>1786</ele>
        <time>2022-05-08T22:14:19Z</time>
      </trkpt>
      <trkpt lat="44.6046" lon="6.6799">
        <ele>1789</ele>
        <time>2022-05-08T22:14:27Z</time>
      </trkpt>
      <trkpt lat="44.60446" lon="6.68014">
        <ele>1783</ele>
        <time>2022-05-08T22:14:32Z</time>
      </trkpt>
      <trkpt lat="44.60425" lon="6.68037">
        <ele>1779</ele>
        <time>2022-05-08T22:14:38Z</time>
      </trkpt>
      <trkpt lat="44.60397" lon="6.68046">
        <ele>1780</ele>
        <time>2022-05-08T22:14:45Z</time>
      </trkpt>
      <trkpt lat="44.60378" lon="6.68049">
        <ele>1780</ele>
        <time>2022-05-08T22:14:49Z</time>
      </trkpt>
      <trkpt lat="44.60358" lon="6.68065">
        <ele>1775</ele>
        <time>2022-05-08T22:14:55Z</time>
      </trkpt>
      <trkpt lat="44.60342" lon="6.68083">
        <ele>1769</ele>
        <time>2022-05-08T22:14:59Z</time>
      </trkpt>
      <trkpt lat="44.60322" lon="6.68092">
        <ele>1768</ele>
        <time>2022-05-08T22:15:04Z</time>
      </trkpt>
      <trkpt lat="44.60277" lon="6.68122">
        <ele>1765</ele>
        <time>2022-05-08T22:15:16Z</time>
      </trkpt>
      <trkpt lat="44.60256" lon="6.68144">
        <ele>1762</ele>
        <time>2022-05-08T22:15:22Z</time>
      </trkpt>
      <trkpt lat="44.60252" lon="6.68156">
        <ele>1759</ele>
        <time>2022-05-08T22:15:24Z</time>
      </trkpt>
      <trkpt lat="44.6027" lon="6.68167">
        <ele>1754</ele>
        <time>2022-05-08T22:15:29Z</time>
      </trkpt>
      <trkpt lat="44.60227" lon="6.68184">
        <ele>1757</ele>
        <time>2022-05-08T22:15:39Z</time>
      </trkpt>
      <trkpt lat="44.60223" lon="6.6821">
        <ele>1752</ele>
        <time>2022-05-08T22:15:44Z</time>
      </trkpt>
      <trkpt lat="44.60191" lon="6.68228">
        <ele>1751</ele>
        <time>2022-05-08T22:15:52Z</time>
      </trkpt>
      <trkpt lat="44.60154" lon="6.68244">
        <ele>1751</ele>
        <time>2022-05-08T22:16:01Z</time>
      </trkpt>
      <trkpt lat="44.60136" lon="6.68264">
        <ele>1748</ele>
        <time>2022-05-08T22:16:06Z</time>
      </trkpt>
      <trkpt lat="44.6013" lon="6.68299">
        <ele>1739</ele>
        <time>2022-05-08T22:16:12Z</time>
      </trkpt>
      <trkpt lat="44.60095" lon="6.68321">
        <ele>1736</ele>
        <time>2022-05-08T22:16:21Z</time>
      </trkpt>
      <trkpt lat="44.60078" lon="6.68346">
        <ele>1730</ele>
        <time>2022-05-08T22:16:27Z</time>
      </trkpt>
      <trkpt lat="44.60048" lon="6.68368">
        <ele>1727</ele>
        <time>2022-05-08T22:16:35Z</time>
      </trkpt>
      <trkpt lat="44.60026" lon="6.68377">
        <ele>1728</ele>
        <time>2022-05-08T22:16:40Z</time>
      </trkpt>
      <trkpt lat="44.60007" lon="6.68376">
        <ele>1732</ele>
        <time>2022-05-08T22:16:44Z</time>
      </trkpt>
      <trkpt lat="44.59983" lon="6.6842">
        <ele>1723</ele>
        <time>2022-05-08T22:16:54Z</time>
      </trkpt>
      <trkpt lat="44.59958" lon="6.68438">
        <ele>1723</ele>
        <time>2022-05-08T22:17:00Z</time>
      </trkpt>
      <trkpt lat="44.59953" lon="6.68449">
        <ele>1720</ele>
        <time>2022-05-08T22:17:02Z</time>
      </trkpt>
      <trkpt lat="44.59941" lon="6.68463">
        <ele>1718</ele>
        <time>2022-05-08T22:17:06Z</time>
      </trkpt>
      <trkpt lat="44.5994" lon="6.68485">
        <ele>1711</ele>
        <time>2022-05-08T22:17:10Z</time>
      </trkpt>
      <trkpt lat="44.59935" lon="6.68508">
        <ele>1705</ele>
        <time>2022-05-08T22:17:14Z</time>
      </trkpt>
      <trkpt lat="44.59906" lon="6.68579">
        <ele>1697</ele>
        <time>2022-05-08T22:17:27Z</time>
      </trkpt>
      <trkpt lat="44.59867" lon="6.6859">
        <ele>1698</ele>
        <time>2022-05-08T22:17:37Z</time>
      </trkpt>
      <trkpt lat="44.59846" lon="6.68562">
        <ele>1705</ele>
        <time>2022-05-08T22:17:43Z</time>
      </trkpt>
      <trkpt lat="44.59818" lon="6.6855">
        <ele>1708</ele>
        <time>2022-05-08T22:17:50Z</time>
      </trkpt>
      <trkpt lat="44.59794" lon="6.68553">
        <ele>1705</ele>
        <time>2022-05-08T22:17:56Z</time>
      </trkpt>
      <trkpt lat="44.59769" lon="6.68572">
        <ele>1698</ele>
        <time>2022-05-08T22:18:02Z</time>
      </trkpt>
      <trkpt lat="44.59752" lon="6.686">
        <ele>1688</ele>
        <time>2022-05-08T22:18:09Z</time>
      </trkpt>
      <trkpt lat="44.59737" lon="6.68599">
        <ele>1689</ele>
        <time>2022-05-08T22:18:12Z</time>
      </trkpt>
      <trkpt lat="44.59727" lon="6.68622">
        <ele>1683</ele>
        <time>2022-05-08T22:18:17Z</time>
      </trkpt>
      <trkpt lat="44.59704" lon="6.68628">
        <ele>1682</ele>
        <time>2022-05-08T22:18:22Z</time>
      </trkpt>
      <trkpt lat="44.59687" lon="6.68667">
        <ele>1671</ele>
        <time>2022-05-08T22:18:30Z</time>
      </trkpt>
      <trkpt lat="44.59675" lon="6.68706">
        <ele>1662</ele>
        <time>2022-05-08T22:18:37Z</time>
      </trkpt>
      <trkpt lat="44.59672" lon="6.6873">
        <ele>1656</ele>
        <time>2022-05-08T22:18:41Z</time>
      </trkpt>
      <trkpt lat="44.59693" lon="6.68752">
        <ele>1652</ele>
        <time>2022-05-08T22:18:47Z</time>
      </trkpt>
      <trkpt lat="44.5967" lon="6.68757">
        <ele>1650</ele>
        <time>2022-05-08T22:18:52Z</time>
      </trkpt>
      <trkpt lat="44.59663" lon="6.68782">
        <ele>1646</ele>
        <time>2022-05-08T22:18:57Z</time>
      </trkpt>
      <trkpt lat="44.59632" lon="6.68783">
        <ele>1646</ele>
        <time>2022-05-08T22:19:04Z</time>
      </trkpt>
      <trkpt lat="44.59624" lon="6.68851">
        <ele>1641</ele>
        <time>2022-05-08T22:19:15Z</time>
      </trkpt>
      <trkpt lat="44.59651" lon="6.68873">
        <ele>1640</ele>
        <time>2022-05-08T22:19:23Z</time>
      </trkpt>
    </trkseg>
  </trk>
</gpx>